Date StartTime U_cm/s V_cm/s W_cm/s Ustd_cm/s Vstd_cm/s Wstd_cm/s Uvar_(cm/s)^2 Vvar_(cm/s)^2 Wvar_(cm/s)^2 KE_(m/s)^2 TurbulentKE_(m/s)^2 HorizWindSpeed_cm/s FrictionSpeec_cm/s DragCoef SpeedOfSound_m/s SonicTemperature_C Pressure_mb 
07/22/2014  00:00:00      -37.773     -102.459      -12.279       44.315       56.480       20.421     1963.828     3189.967      417.014        0.882        0.279      109.200       21.249        0.038      344.864       21.988      864.729
07/22/2014  00:01:00      -13.146      -17.257        7.935       24.604       23.972       25.731      605.352      574.660      662.109        0.119        0.092       21.693       21.938        1.023      344.861       21.981      864.744
07/22/2014  00:02:00      -43.628      -47.182       -0.895       40.678       22.867       22.867     1654.690      522.900      522.908        0.341        0.135       64.261       12.428        0.037      344.870       21.997      864.768
07/22/2014  00:03:00       -6.752        8.503       34.309       10.393       32.874       26.026      108.004     1080.691      677.328        0.158        0.093       10.858       27.303        6.323      344.871       22.001      864.755
07/22/2014  00:04:00       39.805      -17.507       20.932       54.102       47.114       32.927     2927.018     2219.747     1084.182        0.428        0.312       43.485       41.573        0.914      344.834       21.934      864.756
07/22/2014  00:05:00        9.467       -0.321       43.052       32.509       30.290       22.617     1056.836      917.466      511.514        0.221        0.124        9.473       18.275        3.722      344.815       21.901      864.762
07/22/2014  00:06:00       -1.687       36.844       57.832       23.090       43.962       24.375      533.139     1932.677      594.141        0.388        0.153       36.883       26.087        0.500      344.783       21.848      864.757
07/22/2014  00:07:00      -11.274       20.100       50.688       15.496       38.724       27.246      240.121     1499.567      742.319        0.279        0.124       23.046       28.977        1.581      344.833       21.932      864.758
07/22/2014  00:08:00      -21.732        5.236       19.817       18.510       15.867       11.849      342.635      251.776      140.404        0.081        0.037       22.353       11.212        0.252      344.778       21.841      864.760
07/22/2014  00:09:00      -23.086        4.135       -2.074       17.238       21.305       19.555      297.158      453.905      382.379        0.084        0.057       23.453       13.687        0.341      344.756       21.799      864.763
07/22/2014  00:10:00       -7.596       20.498       32.481       10.433       21.327       10.970      108.839      454.853      120.337        0.111        0.034       21.860        9.644        0.195      344.778       21.838      864.758
07/22/2014  00:11:00      -19.376      -22.633       11.574       17.562       39.662       24.864      308.441     1573.094      618.194        0.176        0.125       29.794       24.196        0.660      344.793       21.863      864.765
07/22/2014  00:12:00       -6.266        0.344        3.206       19.594       17.872       15.023      383.915      319.407      225.692        0.049        0.046        6.276       11.729        3.493      344.790       21.858      864.778
07/22/2014  00:13:00      -31.471       10.701        7.207       18.126       18.226        9.948      328.554      332.186       98.968        0.096        0.038       33.240       12.279        0.136      344.764       21.812      864.786
07/22/2014  00:14:00      -18.103      -12.781        5.515       13.344       13.971       13.360      178.069      195.180      178.480        0.054        0.028       22.160        9.578        0.187      344.791       21.859      864.797
07/22/2014  00:15:00       -8.713        7.286       25.142       15.934       25.462       26.843      253.898      648.320      720.542        0.119        0.081       11.358       19.052        2.814      344.804       21.883      864.814
07/22/2014  00:16:00        0.915       66.250       93.691       35.408       43.688       18.770     1253.705     1908.607      352.312        0.834        0.176       66.257       18.481        0.078      344.878       22.010      864.825
07/22/2014  00:17:00        7.355        1.577       46.318       27.765       56.920       29.716      770.906     3239.916      883.048        0.355        0.245        7.522       32.803       19.017      344.905       22.056      864.844
07/22/2014  00:18:00       59.357      -70.810        7.826       36.340       51.778       28.245     1320.611     2680.999      797.781        0.670        0.240       92.398       30.940        0.112      344.842       21.947      864.865
07/22/2014  00:19:00       23.999       12.268       39.289       38.351       37.409       30.436     1470.784     1399.438      926.330        0.303        0.190       26.953       27.407        1.034      344.800       21.876      864.872
07/22/2014  00:20:00       31.662       92.640       83.600       46.238       57.806       48.118     2137.968     3341.489     2315.348        1.218        0.390       97.902       33.674        0.118      344.841       21.945      864.884
07/22/2014  00:21:00      104.721       63.149       49.601       58.481       50.696       46.795     3420.050     2570.116     2189.730        1.280        0.409      122.287       19.041        0.024      344.788       21.854      864.879
07/22/2014  00:22:00        4.518       77.518       97.724       32.919       56.876       31.147     1083.683     3234.846      970.126        1.043        0.264       77.650       30.563        0.155      344.789       21.857      864.874
07/22/2014  00:23:00       56.117      -30.215       29.722       57.032       49.696       36.419     3252.609     2469.733     1326.334        0.600        0.352       63.734       25.939        0.166      344.716       21.732      864.874
07/22/2014  00:24:00       68.528       11.963       37.401       57.255       50.046       39.344     3278.168     2504.641     1547.961        0.678        0.367       69.565       32.323        0.216      344.667       21.649      864.891
07/22/2014  00:25:00       67.276       32.044       60.445       64.774       59.500       46.572     4195.612     3540.284     2168.996        0.955        0.495       74.517       46.653        0.392      344.708       21.719      864.886
07/22/2014  00:26:00       58.195       90.828      118.741       91.892       69.211       53.807     8444.113     4790.194     2895.197        2.093        0.806      107.872       58.591        0.295      344.680       21.669      864.885
07/22/2014  00:27:00       38.142       81.615      106.721       60.908       59.308       28.380     3709.841     3517.383      805.401        1.377        0.402       90.088       29.404        0.107      344.691       21.688      864.894
07/22/2014  00:28:00       21.394       82.716       97.162       31.890       49.485       34.672     1016.981     2448.791     1202.159        1.070        0.233       85.438       36.363        0.181      344.704       21.711      864.910
07/22/2014  00:29:00       51.673       98.311       95.259       55.817       61.390       47.954     3115.532     3768.744     2299.592        1.529        0.459      111.064       38.474        0.120      344.645       21.611      864.917
07/22/2014  00:30:00       15.412       72.197       85.372       39.647       37.665       23.729     1571.863     1418.644      563.057        0.815        0.178       73.824       23.901        0.105      344.685       21.677      864.922
07/22/2014  00:31:00       55.756       28.995       59.946       48.221       39.881       38.057     2325.303     1590.532     1448.326        0.645        0.268       62.844       32.405        0.266      344.741       21.775      864.918
07/22/2014  00:32:00       65.692       77.710       70.860       70.585       47.168       45.130     4982.291     2224.845     2036.676        1.231        0.462      101.757       44.345        0.190      344.775       21.833      864.909
07/22/2014  00:33:00      142.000      121.183       90.245       73.108       57.700       53.822     5344.716     3329.298     2896.779        2.728        0.579      186.680       44.254        0.056      344.714       21.725      864.901
07/22/2014  00:34:00      147.244       86.530       71.277       71.621       56.197       50.728     5129.571     3158.053     2573.294        2.255        0.543      170.787       27.433        0.026      344.799       21.873      864.896
07/22/2014  00:35:00      100.826       74.676       75.708       70.667       57.726       50.590     4993.891     3332.302     2559.391        1.618        0.544      125.469       49.252        0.154      344.741       21.775      864.898
07/22/2014  00:36:00       90.207       98.819       99.265       63.006       53.453       38.028     3969.775     2857.256     1446.159        1.801        0.414      133.801       31.526        0.056      344.715       21.729      864.888
07/22/2014  00:37:00       82.333      133.050      122.951       62.589       50.638       43.923     3917.378     2564.216     1929.270        2.400        0.421      156.464       40.358        0.067      344.631       21.586      864.873
07/22/2014  00:38:00       90.367      102.825      109.504       60.850       56.521       46.170     3702.685     3194.635     2131.669        1.988        0.451      136.891       37.937        0.077      344.570       21.483      864.867
07/22/2014  00:39:00       89.062       92.511       80.715       45.321       44.415       44.371     2053.995     1972.690     1968.742        1.450        0.300      128.415       29.550        0.053      344.538       21.428      864.876
07/22/2014  00:40:00       68.664       86.927       81.715       39.228       26.815       25.152     1538.851      719.038      632.630        1.092        0.145      110.775       19.034        0.030      344.605       21.543      864.888
07/22/2014  00:41:00       40.314       41.188       53.216       37.371       35.175       23.598     1396.570     1237.299      556.887        0.467        0.160       57.634       17.049        0.088      344.600       21.534      864.907
07/22/2014  00:42:00       17.676       13.856       25.928       36.168       22.480       26.363     1308.118      505.354      695.005        0.184        0.125       22.459       25.864        1.326      344.632       21.590      864.920
07/22/2014  00:43:00        4.680       14.832       38.390       19.504       32.770       22.265      380.404     1073.889      495.718        0.183        0.098       15.553       15.458        0.988      344.635       21.594      864.922
07/22/2014  00:44:00        4.499        5.356       21.776       14.812       12.924        7.638      219.406      167.033       58.343        0.048        0.022        6.995        4.141        0.350      344.581       21.502      864.921
07/22/2014  00:45:00       13.478        0.686       17.501       20.556       18.364       16.945      422.538      337.219      287.136        0.077        0.052       13.495       12.720        0.888      344.567       21.478      864.924
07/22/2014  00:46:00       15.817      -32.247        8.199       20.549       34.012       20.480      422.244     1156.795      419.436        0.168        0.100       35.917       21.503        0.358      344.558       21.462      864.930
07/22/2014  00:47:00      -20.080      -34.820      -13.108       37.493       36.967       21.316     1405.719     1366.539      454.358        0.251        0.161       40.195       18.429        0.210      344.541       21.432      864.927
07/22/2014  00:48:00      -29.685      -28.379        3.991       29.286       14.892       16.070      857.671      221.764      258.233        0.152        0.067       41.068       16.826        0.168      344.537       21.427      864.923
07/22/2014  00:49:00      -41.999      -34.035       -3.466       17.424       12.178       11.440      303.613      148.310      130.882        0.176        0.029       54.058        4.521        0.007      344.527       21.410      864.923
07/22/2014  00:50:00      -24.219      -61.187       -0.387       36.100       26.101       19.906     1303.193      681.287      396.268        0.336        0.119       65.806       12.567        0.036      344.552       21.453      864.933
07/22/2014  00:51:00      -56.493      -74.125       -3.590       41.274       32.012       20.269     1703.543     1024.754      410.814        0.592        0.157       93.199       18.038        0.037      344.478       21.326      864.943
07/22/2014  00:52:00      -84.915     -125.301      -11.300       49.967       45.565       29.088     2496.688     2076.197      846.091        1.423        0.271      151.363       20.098        0.018      344.366       21.133      864.955
07/22/2014  00:53:00      -18.215      -75.319        7.897       31.455       39.083       22.086      989.432     1527.448      487.801        0.454        0.150       77.490       12.490        0.026      344.441       21.262      864.962
07/22/2014  00:54:00      -60.295      -81.205       -2.972       26.964       24.675       18.421      727.076      608.832      339.316        0.596        0.084      101.142       14.637        0.021      344.380       21.157      864.954
07/22/2014  00:55:00      -58.967      -36.846       -2.913       24.616       25.154       16.005      605.941      632.741      256.161        0.317        0.075       69.532        9.094        0.017      344.324       21.060      864.937
07/22/2014  00:56:00      -23.039      -50.681       -1.589       26.099       21.098       17.024      681.154      445.131      289.816        0.226        0.071       55.672       12.573        0.051      344.358       21.119      864.927
07/22/2014  00:57:00       15.291      -36.029       12.958       19.122       26.714       22.043      365.659      713.643      485.907        0.163        0.078       39.139       22.425        0.328      344.392       21.177      864.915
07/22/2014  00:58:00      -18.099      -11.131        6.958       20.072       14.930       12.179      402.885      222.910      148.340        0.064        0.039       21.248        8.708        0.168      344.359       21.122      864.903
07/22/2014  00:59:00      -17.486      -19.500        6.049       27.547       24.767       12.832      758.834      613.426      164.650        0.113        0.077       26.192        8.511        0.106      344.366       21.134      864.905
07/22/2014  01:00:00      -57.728      -53.370        3.238       32.653       27.941       19.469     1066.197      780.681      379.047        0.421        0.111       78.619       18.559        0.056      344.293       21.010      864.909
07/22/2014  01:01:00      -37.388      -39.236       13.940       38.817       25.300       19.247     1506.788      640.094      370.436        0.282        0.126       54.197       20.533        0.144      344.286       20.998      864.912
07/22/2014  01:02:00      -65.511      -92.059       -2.821       41.970       35.233       21.522     1761.456     1241.388      463.216        0.812        0.173      112.989       17.802        0.025      344.220       20.885      864.913
07/22/2014  01:03:00     -108.573     -154.280       -4.785       41.902       40.569       30.642     1755.741     1645.831      938.956        1.998        0.217      188.654       32.613        0.030      344.163       20.788      864.911
07/22/2014  01:04:00      -75.391     -131.164       -4.996       38.306       35.404       18.365     1467.343     1253.447      337.287        1.298        0.153      151.287       14.907        0.010      344.168       20.794      864.906
07/22/2014  01:05:00      -51.879      -96.690        4.351       33.846       34.501       23.565     1145.541     1190.304      555.298        0.747        0.145      109.729       22.465        0.042      344.205       20.858      864.894
07/22/2014  01:06:00      -29.758      -79.634       -0.327       26.083       27.527       16.836      680.306      757.736      283.459        0.447        0.086       85.013       16.246        0.037      344.220       20.885      864.888
07/22/2014  01:07:00      -47.828      -71.565       -4.039       24.432       25.524       17.243      596.935      651.465      297.327        0.449        0.077       86.076       18.315        0.045      344.229       20.900      864.876
07/22/2014  01:08:00      -54.041      -82.781        2.761       38.215       34.361       22.011     1460.403     1180.653      484.464        0.645        0.156       98.859       17.833        0.033      344.202       20.854      864.873
07/22/2014  01:09:00      -30.059      -60.761        0.612       36.962       57.197       24.815     1366.223     3271.523      615.760        0.492        0.263       67.790       29.039        0.184      344.232       20.906      864.869
07/22/2014  01:10:00       -6.942      -51.481       -4.930       28.810       30.807       20.597      830.044      949.082      424.217        0.246        0.110       51.947        8.973        0.030      344.160       20.781      864.873
07/22/2014  01:11:00      -17.116      -21.457       -3.337       27.766       26.848       18.287      770.949      720.799      334.422        0.129        0.091       27.448       16.695        0.370      344.151       20.765      864.888
07/22/2014  01:12:00       13.938      -53.745      -10.965       14.057       30.129       17.427      197.611      907.738      303.684        0.231        0.070       55.523       13.015        0.055      344.187       20.827      864.894
07/22/2014  01:13:00      -49.070      -32.812        1.789       27.521       23.142       11.809      757.391      535.560      139.443        0.246        0.072       59.030        9.999        0.029      344.137       20.743      864.900
07/22/2014  01:14:00      -33.807      -13.571       -2.393       20.199       10.711       10.984      408.016      114.723      120.642        0.099        0.032       36.430        7.154        0.039      344.063       20.618      864.901
07/22/2014  01:15:00      -11.229      -16.820       -1.962       25.448       12.433       11.961      647.608      154.577      143.073        0.068        0.047       20.224       11.358        0.315      344.142       20.750      864.904
07/22/2014  01:16:00      -24.453      -18.606        3.703       23.901       15.540       14.954      571.268      241.506      223.622        0.100        0.052       30.727        8.862        0.083      344.149       20.762      864.898
07/22/2014  01:17:00      -19.844      -22.250        8.534       26.451       23.584       14.932      699.658      556.213      222.951        0.122        0.074       29.813       12.673        0.181      344.083       20.651      864.891
07/22/2014  01:18:00      -45.215      -39.447       -0.390       22.138       14.984       12.285      490.103      224.516      150.922        0.223        0.043       60.004       11.690        0.038      344.051       20.595      864.884
07/22/2014  01:19:00      -48.053      -21.258       -4.472       18.186       16.198        9.037      330.745      262.373       81.662        0.173        0.034       52.545        6.706        0.016      344.052       20.599      864.879
07/22/2014  01:20:00       -3.618      -34.445       -1.116       16.104       15.737       13.426      259.338      247.642      180.270        0.094        0.034       34.635        8.381        0.059      344.132       20.736      864.874
07/22/2014  01:21:00      -23.784      -56.414        0.886       22.720       27.251       16.684      516.212      742.605      278.360        0.264        0.077       61.223       15.114        0.061      344.148       20.761      864.874
07/22/2014  01:22:00      -19.574      -43.485        3.700       28.634       28.252       17.098      819.926      798.192      292.335        0.210        0.096       47.687       14.076        0.087      344.115       20.705      864.869
07/22/2014  01:23:00      -61.751      -45.825       -2.131       32.482       24.008       20.173     1055.086      576.397      406.943        0.398        0.102       76.897       20.172        0.069      344.065       20.619      864.864
07/22/2014  01:24:00      -46.352      -60.404      -12.248       33.068       25.794       17.141     1093.526      665.348      293.798        0.400        0.103       76.139        9.536        0.016      344.103       20.685      864.850
07/22/2014  01:25:00      -56.267      -42.672       -2.727       35.419       23.340       14.090     1254.473      544.744      198.532        0.350        0.100       70.617       10.952        0.024      344.063       20.615      864.836
07/22/2014  01:26:00      -25.325      -36.978        3.157       32.433       34.960       13.023     1051.896     1222.204      169.602        0.223        0.122       44.818       20.260        0.204      344.059       20.608      864.827
07/22/2014  01:27:00      -46.567      -70.654       -2.319       46.718       40.446       25.794     2182.533     1635.884      665.349        0.582        0.224       84.620       29.185        0.119      344.027       20.555      864.829
07/22/2014  01:28:00       -8.882      -42.916        4.123       30.325       35.965       28.598      919.578     1293.509      817.858        0.248        0.152       43.825       26.902        0.377      344.020       20.543      864.842
07/22/2014  01:29:00      -39.156      -51.896       -4.389       25.320       19.832       14.933      641.106      393.297      222.990        0.275        0.063       65.011        8.903        0.019      344.135       20.740      864.865
07/22/2014  01:30:00      -11.333      -57.100       -3.137       26.741       23.377       16.499      715.096      546.485      272.206        0.247        0.077       58.213       11.105        0.036      344.158       20.777      864.865
07/22/2014  01:31:00      -29.630      -43.499        2.838       31.967       29.644       27.406     1021.876      878.779      751.102        0.271        0.133       52.632       17.272        0.108      344.145       20.755      864.870
07/22/2014  01:32:00      -40.583      -90.810        3.343       39.481       43.958       24.908     1558.747     1932.264      620.398        0.701        0.206       99.466       22.791        0.053      344.096       20.673      864.881
07/22/2014  01:33:00      -77.178      -70.570       -8.481       29.177       43.219       28.024      851.293     1867.905      785.330        0.726        0.175      104.578       28.141        0.072      344.088       20.657      864.882
07/22/2014  01:34:00      -55.275      -52.475       -0.519       26.786       28.610       19.297      717.467      818.536      372.361        0.386        0.095       76.217        9.085        0.014      344.074       20.636      864.894
07/22/2014  01:35:00      -58.561      -80.647       -5.179       30.165       38.700       17.180      909.932     1497.653      295.161        0.633        0.135       99.666        6.052        0.004      344.062       20.617      864.896
07/22/2014  01:36:00      -39.957      -54.083       -1.909       26.102       24.772       12.285      681.298      613.660      150.932        0.299        0.072       67.242        9.209        0.019      344.041       20.583      864.895
07/22/2014  01:37:00      -39.259      -67.179       -0.712       25.237       38.337       18.197      636.916     1469.745      331.147        0.425        0.122       77.809        6.623        0.007      344.022       20.549      864.904
07/22/2014  01:38:00      -74.268      -57.038       -8.423       29.881       25.536       17.482      892.880      652.078      305.628        0.534        0.093       93.643       16.519        0.031      344.046       20.589      864.915
07/22/2014  01:39:00      -18.044      -85.342      -10.089       17.380       24.118       13.510      302.073      581.677      182.512        0.439        0.053       87.229        6.009        0.005      344.073       20.634      864.924
07/22/2014  01:40:00      -33.507      -41.920       -0.292       24.199       20.698       15.997      585.610      428.420      255.891        0.207        0.063       53.666       12.784        0.057      344.071       20.630      864.917
07/22/2014  01:41:00      -63.280      -48.106       -4.217       23.983       26.867       16.759      575.190      721.819      280.866        0.396        0.079       79.489        6.445        0.007      344.028       20.557      864.901
07/22/2014  01:42:00      -66.056      -20.377        3.887       51.547       32.776       17.988     2657.143     1074.245      323.571        0.442        0.203       69.127       19.430        0.079      343.982       20.476      864.884
07/22/2014  01:43:00      -73.728      -44.302       -0.335       28.765       24.744       15.104      827.444      612.247      228.126        0.453        0.083       86.014       16.351        0.036      343.977       20.467      864.878
07/22/2014  01:44:00      -90.160      -39.914       -1.664       35.797       31.687       14.655     1281.431     1004.077      214.777        0.611        0.125       98.600       12.844        0.017      343.967       20.451      864.877
07/22/2014  01:45:00      -79.337      -46.402       -5.823       21.285       20.139       16.049      453.034      405.564      257.584        0.480        0.056       91.910       11.077        0.015      343.950       20.425      864.881
07/22/2014  01:46:00      -77.780      -36.946       -1.306       33.837       25.054       16.011     1144.951      627.680      256.346        0.472        0.101       86.109       13.354        0.024      343.939       20.405      864.878
07/22/2014  01:47:00      -99.165       -8.916       -4.004       31.664       29.350       14.216     1002.614      861.400      202.100        0.600        0.103       99.565       15.140        0.023      343.913       20.360      864.874
07/22/2014  01:48:00      -53.399      -11.933        2.119       30.140       28.312       19.058      908.429      801.563      363.210        0.254        0.104       54.716       17.733        0.105      343.865       20.278      864.863
07/22/2014  01:49:00      -98.977        5.468       -6.273       25.327       25.945       14.287      641.450      673.121      204.107        0.569        0.076       99.128       11.907        0.014      343.786       20.145      864.859
07/22/2014  01:50:00      -92.041      -25.118       -4.194       27.615       34.749       20.111      762.598     1207.504      404.456        0.575        0.119       95.407       15.156        0.025      343.767       20.111      864.860
07/22/2014  01:51:00     -133.707      -38.730      -12.439       29.016       22.926       17.894      841.916      525.604      320.204        1.061        0.084      139.203       11.282        0.007      343.748       20.078      864.870
07/22/2014  01:52:00     -127.128      -62.613      -11.526       33.936       27.252       17.618     1151.673      742.695      310.385        1.121        0.110      141.711       14.734        0.011      343.696       19.990      864.883
07/22/2014  01:53:00      -54.180      -33.957      -12.080       43.409       24.650       19.695     1884.299      607.632      387.896        0.356        0.144       63.942       10.954        0.029      343.650       19.913      864.898
07/22/2014  01:54:00      -89.533      -55.204       -7.729       31.139       23.655       18.316      969.621      559.572      335.493        0.649        0.093      105.184       12.863        0.015      343.608       19.839      864.909
07/22/2014  01:55:00      -82.457      -40.921       -5.455       20.943       21.997        9.193      438.608      483.888       84.512        0.476        0.050       92.052        6.906        0.006      343.598       19.821      864.910
07/22/2014  01:56:00      -70.408      -13.834       -8.338       24.713       18.790       11.673      610.736      353.054      136.260        0.316        0.055       71.754       11.772        0.027      343.570       19.773      864.905
07/22/2014  01:57:00      -59.870      -32.022       -7.751       17.562       12.809        9.722      308.433      164.071       94.512        0.262        0.028       67.896        7.670        0.013      343.573       19.779      864.908
07/22/2014  01:58:00      -40.807      -40.402        3.995       19.258       22.227       11.539      370.886      494.056      133.158        0.216        0.050       57.424        8.968        0.024      343.543       19.730      864.913
07/22/2014  01:59:00      -30.937      -23.165       -1.068       17.178       19.659        8.102      295.080      386.489       65.646        0.112        0.037       38.649        4.687        0.015      343.568       19.773      864.911
07/22/2014  02:00:00       -3.681      -11.296        0.284       28.219        8.817       10.129      796.313       77.747      102.607        0.056        0.049       11.881       11.168        0.884      343.618       19.856      864.904
07/22/2014  02:01:00      -28.850      -15.399        1.389       12.757       13.170        9.200      162.731      173.445       84.634        0.075        0.021       32.702        7.465        0.052      343.637       19.889      864.899
07/22/2014  02:02:00      -42.158      -14.557       -3.774       12.235        9.919        9.248      149.686       98.377       85.527        0.117        0.017       44.600        7.573        0.029      343.630       19.878      864.896
07/22/2014  02:03:00      -18.208      -16.869        4.616       18.903       11.259       12.064      357.321      126.756      145.540        0.063        0.031       24.821        9.449        0.145      343.669       19.945      864.889
07/22/2014  02:04:00      -42.186       -7.899       -0.193       14.412        9.566        8.552      207.711       91.504       73.135        0.111        0.019       42.919        6.260        0.021      343.658       19.925      864.898
07/22/2014  02:05:00      -43.974      -13.070       -7.046       10.527       10.237       10.856      110.812      104.789      117.861        0.124        0.017       45.875        4.860        0.011      343.657       19.924      864.904
07/22/2014  02:06:00      -52.128      -25.130       -9.062        9.870       10.252        6.852       97.419      105.105       46.947        0.184        0.012       57.869        3.566        0.004      343.626       19.870      864.914
07/22/2014  02:07:00      -58.295      -19.988       -2.934       11.250       13.850       10.958      126.569      191.826      120.084        0.212        0.022       61.626        6.479        0.011      343.675       19.954      864.921
07/22/2014  02:08:00      -69.053      -25.439       -4.444       14.401       10.582       10.240      207.384      111.983      104.849        0.293        0.021       73.590        8.150        0.012      343.698       19.991      864.938
07/22/2014  02:09:00      -79.059      -27.202       -4.017       10.599       12.629        8.767      112.339      159.481       76.868        0.368        0.017       83.608        3.772        0.002      343.646       19.904      864.952
07/22/2014  02:10:00      -61.824      -34.882       -0.553       19.930       15.396       11.290      397.189      237.033      127.472        0.290        0.038       70.986        7.059        0.010      343.615       19.852      864.967
07/22/2014  02:11:00      -81.536      -35.431       -6.687       10.249        9.159        7.604      105.032       83.892       57.823        0.410        0.012       88.901        4.188        0.002      343.582       19.795      864.987
07/22/2014  02:12:00      -88.664      -24.271       -8.214       15.856       15.173       10.835      251.412      230.207      117.395        0.456        0.030       91.926        9.906        0.012      343.521       19.693      864.994
07/22/2014  02:13:00      -49.011       -9.021       -3.857       28.646       22.654       15.900      820.574      513.198      252.800        0.204        0.079       49.835       12.927        0.067      343.393       19.475      865.008
07/22/2014  02:14:00      -89.994        8.386       -4.565       24.487       21.851       17.275      599.632      477.472      298.417        0.478        0.069       90.384       13.752        0.023      343.370       19.435      865.021
07/22/2014  02:15:00      -76.192       -1.277       -5.326       25.440       18.381       15.679      647.169      337.871      245.823        0.353        0.062       76.203       14.682        0.037      343.340       19.383      865.031
07/22/2014  02:16:00      -41.069        0.490       -5.703       32.236       21.093       13.672     1039.154      444.914      186.921        0.169        0.084       41.072       12.214        0.088      343.318       19.344      865.043
07/22/2014  02:17:00      -28.081       -9.144       -0.312       20.233       23.313       10.297      409.375      543.490      106.037        0.097        0.053       29.532        9.153        0.096      343.295       19.304      865.054
07/22/2014  02:18:00      -51.991      -15.070       -6.988       22.027       14.040       10.880      485.189      197.108      118.377        0.189        0.040       54.131       11.290        0.044      343.414       19.508      865.052
07/22/2014  02:19:00      -39.312      -17.307       -6.122       22.579       16.330       15.490      509.831      266.665      239.944        0.145        0.051       42.953        6.391        0.022      343.463       19.593      865.048
07/22/2014  02:20:00      -53.118      -32.123      -10.897       22.340       12.704       10.171      499.055      161.382      103.456        0.237        0.038       62.076        6.578        0.011      343.360       19.416      865.051
07/22/2014  02:21:00      -28.634      -27.568        4.475       31.494       15.263       15.024      991.879      232.971      225.714        0.152        0.073       39.748       11.781        0.088      343.409       19.500      865.061
07/22/2014  02:22:00      -38.064      -46.920        3.917       38.408       27.023       19.889     1475.175      730.225      395.586        0.313        0.130       60.418       22.991        0.145      343.405       19.492      865.071
07/22/2014  02:23:00      -75.185      -56.630       -0.398       27.702       34.281       20.087      767.384     1175.193      403.490        0.560        0.117       94.126       18.407        0.038      343.442       19.556      865.073
07/22/2014  02:24:00      -18.361      -32.838        6.100       17.766       21.729       15.514      315.627      472.159      240.697        0.124        0.051       37.623       15.019        0.159      343.455       19.577      865.066
07/22/2014  02:25:00      -30.375      -17.596       -1.531       21.898       13.522       12.660      479.521      182.843      160.282        0.103        0.041       35.104       14.729        0.176      343.555       19.749      865.058
07/22/2014  02:26:00       -7.546      -11.968        0.547       15.887       12.898       14.072      252.408      166.368      198.023        0.041        0.031       14.149        7.737        0.299      343.552       19.741      865.058
07/22/2014  02:27:00      -15.200      -25.802        6.698       27.368       17.806       12.240      748.996      317.066      149.806        0.108        0.061       29.946       16.535        0.305      343.549       19.740      865.055
07/22/2014  02:28:00      -51.934      -31.523        3.357       29.057       19.684       21.357      844.306      387.465      456.109        0.269        0.084       60.753       17.156        0.080      343.564       19.764      865.060
07/22/2014  02:29:00      -62.617      -50.718       -4.288       29.235       18.101       15.845      854.660      327.661      251.060        0.397        0.072       80.581       15.424        0.037      343.564       19.766      865.059
07/22/2014  02:30:00      -61.024      -54.130       -0.787       35.860       21.579       16.605     1285.929      465.668      275.738        0.434        0.101       81.572       12.066        0.022      343.474       19.611      865.044
07/22/2014  02:31:00      -55.638      -53.494        8.908       44.942       29.513       22.724     2019.806      871.015      516.397        0.472        0.170       77.183       25.462        0.109      343.494       19.644      865.039
07/22/2014  02:32:00     -107.611       -8.399       -1.462       51.711       37.355       27.966     2674.055     1395.429      782.081        0.825        0.243      107.938       24.902        0.053      343.323       19.353      865.037
07/22/2014  02:33:00     -132.382      -21.199        1.832       48.260       34.510       26.522     2328.996     1190.938      703.420        1.110        0.211      134.068       29.190        0.047      343.198       19.142      865.042
07/22/2014  02:34:00     -102.244      -30.387        4.532       48.855       35.951       26.162     2386.841     1292.504      684.443        0.788        0.218      106.664       27.215        0.065      343.162       19.080      865.057
07/22/2014  02:35:00     -103.957       -7.278        0.369       49.894       26.541       27.504     2489.396      704.440      756.478        0.740        0.198      104.211       28.277        0.074      343.130       19.024      865.068
07/22/2014  02:36:00     -102.875      -11.082       -5.932       30.500       33.772       17.171      930.238     1140.580      294.839        0.655        0.118      103.470       15.663        0.023      343.113       18.997      865.079
07/22/2014  02:37:00      -98.449      -43.336       -4.582       30.834       29.369       13.814      950.760      862.531      190.828        0.680        0.100      107.565       12.287        0.013      343.171       19.094      865.087
07/22/2014  02:38:00     -106.578      -12.349      -16.370       24.372       17.061       15.319      593.991      291.066      234.679        0.645        0.056      107.291       10.194        0.009      343.243       19.217      865.078
07/22/2014  02:39:00      -81.058      -35.798       -2.430       35.021       21.261       16.237     1226.461      452.048      263.632        0.490        0.097       88.611        7.589        0.007      343.275       19.272      865.072
07/22/2014  02:40:00      -41.261      -41.701        0.844       32.328       24.720       18.215     1045.094      611.094      331.790        0.271        0.099       58.664       16.893        0.083      343.213       19.166      865.072
07/22/2014  02:41:00      -51.676      -42.079        3.943       34.975       26.945       15.186     1223.226      726.030      230.625        0.332        0.109       66.641       13.124        0.039      343.210       19.162      865.078
07/22/2014  02:42:00      -66.011      -40.578       -1.238       43.167       32.761       19.832     1863.381     1073.264      393.302        0.467        0.166       77.486       20.718        0.071      343.221       19.179      865.086
07/22/2014  02:43:00      -87.014      -36.222       -5.344       34.014       28.088       16.476     1156.980      788.960      271.459        0.556        0.111       94.252       16.913        0.032      343.280       19.280      865.084
07/22/2014  02:44:00      -86.732      -32.612       -3.151       30.880       36.852       17.614      953.586     1358.050      310.267        0.561        0.131       92.661        9.816        0.011      343.301       19.318      865.084
07/22/2014  02:45:00      -85.233      -19.838       -1.313       25.377       24.929       16.116      644.005      621.465      259.717        0.459        0.076       87.511       14.266        0.027      343.262       19.251      865.091
07/22/2014  02:46:00      -62.446      -27.348        1.031       30.659       15.991       13.116      940.000      255.704      172.022        0.301        0.068       68.172        8.794        0.017      343.317       19.344      865.094
07/22/2014  02:47:00     -103.671      -47.854        0.182       36.481       23.384       16.845     1330.885      546.802      283.760        0.760        0.108      114.183       16.363        0.021      343.349       19.398      865.107
07/22/2014  02:48:00     -105.523      -33.967       -1.925       22.112       17.223       15.653      488.942      296.640      245.010        0.666        0.052      110.855        9.368        0.007      343.350       19.401      865.114
07/22/2014  02:49:00      -57.796      -42.942        0.137       32.895       21.928       15.342     1082.091      480.841      235.366        0.349        0.090       72.002       14.331        0.040      343.358       19.413      865.107
07/22/2014  02:50:00      -69.910      -55.446       -3.698       26.682       20.393       18.868      711.954      415.855      356.013        0.473        0.074       89.228       12.351        0.019      343.418       19.515      865.094
07/22/2014  02:51:00      -53.237      -40.425        3.985       28.570       17.741       17.828      816.252      314.759      317.829        0.297        0.072       66.846       15.567        0.054      343.407       19.498      865.087
07/22/2014  02:52:00      -60.802      -25.569        0.277       22.718       18.310       13.673      516.086      335.274      186.940        0.269        0.052       65.960       14.977        0.052      343.416       19.509      865.092
07/22/2014  02:53:00      -51.909      -30.182       -3.207       11.348       20.389        7.633      128.781      415.694       58.265        0.211        0.030       60.045        7.644        0.016      343.439       19.551      865.094
07/22/2014  02:54:00      -44.669       -1.788       -3.924        9.212        7.711        6.297       84.859       59.457       39.657        0.110        0.009       44.705        4.821        0.012      343.434       19.540      865.085
07/22/2014  02:55:00      -36.437       -1.942       -1.629       15.241       14.069        8.380      232.274      197.944       70.232        0.092        0.025       36.489        6.332        0.030      343.365       19.425      865.082
07/22/2014  02:56:00      -45.073       14.779       -5.054       10.924        8.393        6.314      119.323       70.439       39.871        0.125        0.011       47.434        3.258        0.005      343.309       19.330      865.084
07/22/2014  02:57:00      -38.385       16.375       -6.034       10.489        6.739        5.364      110.010       45.419       28.771        0.098        0.009       41.732        4.744        0.013      343.311       19.334      865.091
07/22/2014  02:58:00      -36.802        0.936       -5.515       14.271       11.151        5.376      203.670      124.347       28.904        0.087        0.018       36.814        4.476        0.015      343.331       19.367      865.100
07/22/2014  02:59:00      -26.119       -5.288       -1.616       12.012       10.568        8.127      144.281      111.687       66.054        0.052        0.016       26.649        5.794        0.047      343.320       19.351      865.109
07/22/2014  03:00:00       -9.276        0.844        0.984        9.034        4.856        6.058       81.609       23.579       36.694        0.011        0.007        9.314        6.501        0.487      343.316       19.341      865.121
07/22/2014  03:01:00      -14.834        3.379       -1.951        8.768        4.163        3.212       76.887       17.334       10.318        0.017        0.005       15.214        2.752        0.033      343.323       19.353      865.129
07/22/2014  03:02:00      -22.562       11.216        2.249        8.474        5.693        5.680       71.808       32.410       32.264        0.039        0.007       25.195        3.215        0.016      343.334       19.373      865.138
07/22/2014  03:03:00       -9.943        8.169        5.301       11.296        5.372        7.062      127.595       28.854       49.874        0.020        0.010       12.868        6.859        0.284      343.367       19.430      865.141
07/22/2014  03:04:00        4.616       15.170       10.180        9.384        7.961        8.133       88.064       63.374       66.151        0.029        0.011       15.857        8.124        0.263      343.199       19.144      865.141
07/22/2014  03:05:00       -8.089       14.101       -3.390        3.403        5.746        2.886       11.580       33.016        8.327        0.016        0.003       16.257        2.733        0.028      343.333       19.366      865.139
07/22/2014  03:06:00       -6.313        4.488       -1.084        2.857        3.690        3.625        8.163       13.615       13.137        0.005        0.002        7.745        1.871        0.058      343.317       19.345      865.134
07/22/2014  03:07:00      -25.042       -3.035       -3.672        9.367        3.468        2.937       87.734       12.028        8.626        0.038        0.005       25.225        2.569        0.010      343.367       19.432      865.119
07/22/2014  03:08:00      -45.569      -11.447       -4.638       10.522        9.330        4.219      110.720       87.050       17.802        0.122        0.011       46.985        4.689        0.010      343.338       19.380      865.119
07/22/2014  03:09:00      -30.032      -33.863       -6.500       24.259       10.635        9.771      588.479      113.110       95.475        0.144        0.040       45.262       11.282        0.062      343.266       19.258      865.125
07/22/2014  03:10:00      -20.309      -16.342       -6.876       19.351       11.159        8.429      374.449      124.531       71.046        0.065        0.029       26.067        8.036        0.095      343.279       19.278      865.145
07/22/2014  03:11:00      -14.270       -7.831       -0.119       19.125        9.244        9.113      365.774       85.460       83.044        0.040        0.027       16.277       10.740        0.435      343.269       19.263      865.172
07/22/2014  03:12:00       -3.825       -9.861        1.385        8.913       10.452        7.999       79.440      109.250       63.983        0.018        0.013       10.577        6.094        0.332      343.316       19.340      865.185
07/22/2014  03:13:00      -24.423      -18.251        2.586       10.255        7.576        7.216      105.165       57.400       52.077        0.058        0.011       30.489        1.458        0.002      343.291       19.303      865.190
07/22/2014  03:14:00      -19.175        7.944       -2.334        9.315        9.464        5.918       86.767       89.576       35.027        0.032        0.011       20.756        6.064        0.085      343.256       19.243      865.193
07/22/2014  03:15:00       -0.599        4.821        4.591        2.707        6.147        3.425        7.328       37.788       11.728        0.005        0.003        4.858        2.223        0.209      343.228       19.194      865.200
07/22/2014  03:16:00      -11.419       -2.737        2.187       12.383        7.356        3.860      153.340       54.109       14.897        0.018        0.011       11.743        5.515        0.221      343.233       19.200      865.207
07/22/2014  03:17:00       -9.816      -20.568        3.611       23.246       12.965       10.510      540.368      168.091      110.459        0.068        0.041       22.791        6.566        0.083      343.281       19.281      865.210
07/22/2014  03:18:00      -39.853      -46.237        3.927       31.697       29.449       16.696     1004.731      867.267      278.743        0.295        0.108       61.042       17.290        0.080      343.239       19.210      865.207
07/22/2014  03:19:00      -76.908      -47.457        1.134       18.227       30.528       15.536      332.210      931.929      241.373        0.484        0.075       90.372       12.704        0.020      343.236       19.205      865.204
07/22/2014  03:20:00      -41.424      -47.774       -2.739       20.128       21.794       15.910      405.118      474.995      253.135        0.257        0.057       63.232        8.190        0.017      343.253       19.234      865.208
07/22/2014  03:21:00      -51.206      -12.798       -0.057       19.131       16.797       11.833      366.006      282.136      140.010        0.179        0.039       52.781       11.898        0.051      343.260       19.244      865.212
07/22/2014  03:22:00      -63.978      -25.218       -2.522       20.258       11.031        9.465      410.402      121.687       89.594        0.268        0.031       68.768        8.349        0.015      343.253       19.237      865.220
07/22/2014  03:23:00      -59.774      -14.592       -4.186       18.422       13.102        6.567      339.377      171.669       43.127        0.218        0.028       61.529        6.957        0.013      343.257       19.242      865.221
07/22/2014  03:24:00      -67.758      -28.593       -0.001       14.990       11.716       14.071      224.699      137.269      197.980        0.298        0.028       73.544       10.702        0.021      343.281       19.283      865.229
07/22/2014  03:25:00      -95.138      -30.370       -6.894       18.900       11.863        9.458      357.212      140.736       89.462        0.530        0.029       99.867        5.021        0.003      343.188       19.125      865.237
07/22/2014  03:26:00      -79.559       -9.324       -2.357       22.367       16.189       12.086      500.266      262.072      146.066        0.367        0.045       80.104       12.497        0.024      343.111       18.993      865.245
07/22/2014  03:27:00      -90.007      -15.970       -5.233       25.744       15.064       13.392      662.757      226.918      179.334        0.473        0.053       91.413       13.979        0.023      343.011       18.822      865.247
07/22/2014  03:28:00      -93.280      -35.765       -7.847       22.145       21.623       12.554      490.419      467.575      157.599        0.558        0.056       99.902       11.805        0.014      343.075       18.931      865.256
07/22/2014  03:29:00      -99.593      -24.430       -1.456       27.608       20.914       13.254      762.202      437.399      175.681        0.595        0.069      102.546       11.056        0.012      343.073       18.930      865.267
07/22/2014  03:30:00      -60.364      -10.402        5.819       29.582       24.842       17.727      875.113      617.135      314.243        0.280        0.090       61.253       15.252        0.062      343.124       19.014      865.273
07/22/2014  03:31:00      -67.893      -11.945        3.015       35.389       20.995       19.187     1252.379      440.805      368.144        0.341        0.103       68.936       21.083        0.094      343.110       18.990      865.271
07/22/2014  03:32:00      -86.822      -32.001        1.077       40.389       28.056       19.299     1631.306      787.164      372.464        0.568        0.140       92.532       20.325        0.048      343.067       18.917      865.267
07/22/2014  03:33:00      -76.931      -20.338        6.117       34.606       25.159       18.187     1197.598      632.998      330.768        0.426        0.108       79.573       17.682        0.049      342.967       18.748      865.267
07/22/2014  03:34:00      -98.939      -52.212        1.213       39.601       27.633       18.094     1568.205      763.562      327.405        0.759        0.133      111.870       18.576        0.028      343.011       18.823      865.267
07/22/2014  03:35:00      -94.532      -43.036        5.765       34.021       27.837       21.180     1157.416      774.925      448.604        0.660        0.119      103.867       18.071        0.030      342.979       18.768      865.263
07/22/2014  03:36:00     -112.386      -61.415       -3.291       29.396       22.599       14.606      864.097      510.720      213.348        0.900        0.079      128.072       13.417        0.011      342.983       18.776      865.255
07/22/2014  03:37:00     -101.326      -33.927        3.459       35.181       29.241       17.062     1237.730      855.024      291.113        0.691        0.119      106.855       19.817        0.034      342.920       18.666      865.237
07/22/2014  03:38:00     -120.560      -55.826       -2.578       25.853       22.115       15.507      668.380      489.087      240.476        0.953        0.070      132.858       13.225        0.010      342.972       18.754      865.221
07/22/2014  03:39:00     -106.262      -42.067        0.466       40.165       27.796       16.338     1613.220      772.610      266.943        0.786        0.133      114.286       17.910        0.025      342.929       18.683      865.217
07/22/2014  03:40:00     -109.420      -32.123       -0.367       32.153       22.856       17.460     1033.831      522.409      304.850        0.743        0.093      114.038       17.814        0.024      342.887       18.612      865.212
07/22/2014  03:41:00     -116.891      -41.042       -4.498       22.324       22.139       14.259      498.363      490.138      203.331        0.828        0.060      123.887       11.465        0.009      342.905       18.642      865.214
07/22/2014  03:42:00     -105.772      -29.096        1.485       24.720       21.541       13.942      611.087      464.010      194.374        0.665        0.063      109.701       14.586        0.018      342.918       18.663      865.210
07/22/2014  03:43:00     -103.779      -60.941       -8.739       16.954       14.622        8.805      287.450      213.813       77.528        0.757        0.029      120.349        6.149        0.003      342.900       18.636      865.204
07/22/2014  03:44:00      -92.311      -54.451       -3.896       40.273       30.873       22.396     1621.876      953.144      501.568        0.729        0.154      107.174       19.064        0.032      342.888       18.613      865.208
07/22/2014  03:45:00      -64.435      -36.033        9.312       40.510       25.369       20.532     1641.081      643.597      421.578        0.412        0.135       73.826       11.353        0.024      342.901       18.635      865.220
07/22/2014  03:46:00      -65.449      -47.573        7.315       42.182       45.470       17.546     1779.362     2067.477      307.859        0.538        0.208       80.912       17.492        0.047      342.984       18.777      865.231
07/22/2014  03:47:00      -92.158      -47.066       -0.209       29.787       29.431       16.374      887.293      866.181      268.117        0.636        0.101      103.481       14.001        0.018      342.952       18.722      865.240
07/22/2014  03:48:00     -103.654      -39.129       -1.076       29.688       25.280       15.261      881.368      639.069      232.898        0.701        0.088      110.793       12.819        0.013      342.956       18.728      865.238
07/22/2014  03:49:00      -64.054      -42.785        4.937       36.308       26.704       16.070     1318.292      713.108      258.261        0.412        0.114       77.029       16.428        0.045      342.982       18.773      865.227
07/22/2014  03:50:00      -85.589      -27.070        0.449       28.488       20.461       13.555      811.548      418.659      183.729        0.474        0.071       89.768       12.257        0.019      342.982       18.774      865.220
07/22/2014  03:51:00      -72.459      -31.945        2.218       20.102       16.230       11.803      404.087      263.401      139.302        0.354        0.040       79.189       12.237        0.024      342.968       18.749      865.208
07/22/2014  03:52:00      -82.940      -29.031       -0.587       22.340       18.301       12.238      499.079      334.915      149.769        0.435        0.049       87.874        4.172        0.002      343.013       18.825      865.194
07/22/2014  03:53:00      -74.885      -13.952       -3.150       24.616       16.343       14.273      605.927      267.100      203.709        0.344        0.054       76.174       11.483        0.023      343.012       18.823      865.184
07/22/2014  03:54:00      -80.670      -35.054       -2.080       25.414       19.618       13.595      645.893      384.872      184.828        0.448        0.061       87.958       11.253        0.016      342.998       18.801      865.161
07/22/2014  03:55:00      -92.517      -35.558       -4.290       19.629       21.686       12.485      385.283      470.273      155.884        0.543        0.051       99.115        9.032        0.008      343.007       18.813      865.131
07/22/2014  03:56:00     -110.429      -37.469       -4.265       24.800       20.257       13.348      615.044      410.332      178.163        0.741        0.060      116.613        9.206        0.006      342.959       18.735      865.103
07/22/2014  03:57:00     -106.155      -51.138       -3.726       21.533       21.888       14.376      463.689      479.105      206.656        0.752        0.057      117.830       11.228        0.009      342.941       18.702      865.084
07/22/2014  03:58:00      -96.538      -32.392       -2.070       22.758       21.176       13.582      517.937      448.424      184.480        0.576        0.058      101.828       11.760        0.013      342.950       18.717      865.080
07/22/2014  03:59:00      -66.136      -37.257       -2.318       28.136       40.489       14.483      791.648     1639.390      209.751        0.420        0.132       75.908       13.878        0.033      342.990       18.787      865.094
07/22/2014  04:00:00     -106.297      -44.809       -8.916       19.173       22.751       13.769      367.619      517.597      189.577        0.723        0.054      115.356        7.443        0.004      342.973       18.759      865.105
07/22/2014  04:01:00      -66.239      -26.081        4.776       50.045       23.007       15.359     2504.516      529.304      235.909        0.418        0.163       71.188       16.039        0.051      342.933       18.688      865.136
07/22/2014  04:02:00      -80.824      -54.549        1.349       52.015       38.868       23.444     2705.529     1510.726      549.644        0.714        0.238       97.509       31.575        0.105      342.974       18.760      865.177
07/22/2014  04:03:00      -72.810      -73.654       -3.141       29.731       31.146       22.631      883.917      970.044      512.184        0.655        0.118      103.568       20.573        0.039      342.986       18.782      865.215
07/22/2014  04:04:00     -101.807      -47.787       -3.371       30.876       33.801       19.399      953.348     1142.540      376.333        0.757        0.124      112.464       19.228        0.029      342.983       18.775      865.235
07/22/2014  04:05:00      -68.385      -57.355        0.006       39.019       20.137       16.550     1522.456      405.483      273.886        0.508        0.110       89.253       20.144        0.051      342.963       18.742      865.222
07/22/2014  04:06:00      -92.205      -51.503       -1.579       22.888       19.535       14.342      523.843      381.628      205.695        0.613        0.056      105.614       13.222        0.016      342.974       18.759      865.200
07/22/2014  04:07:00      -73.713      -11.862       -2.563       13.322       12.712       11.730      177.487      161.586      137.595        0.303        0.024       74.662        5.924        0.006      342.938       18.697      865.184
07/22/2014  04:08:00      -81.682      -22.592      -11.329       19.720       17.324       14.502      388.888      300.135      210.314        0.410        0.045       84.749        5.200        0.004      342.958       18.732      865.177
07/22/2014  04:09:00      -58.141      -30.268       -5.607       17.332       15.104       10.109      300.383      228.128      102.190        0.248        0.032       65.548        8.104        0.015      342.927       18.679      865.179
07/22/2014  04:10:00      -55.898      -71.086       -1.841       30.694       27.147       17.845      942.115      736.973      318.428        0.509        0.100       90.432       16.298        0.032      342.918       18.665      865.198
07/22/2014  04:11:00      -62.365      -91.288       -4.637       34.559       24.210       16.153     1194.354      586.125      260.911        0.714        0.102      110.557       11.537        0.011      342.897       18.630      865.228
07/22/2014  04:12:00      -58.515      -88.879        3.694       46.229       34.113       24.075     2137.101     1163.727      579.622        0.761        0.194      106.412       26.598        0.062      342.912       18.654      865.245
07/22/2014  04:13:00     -117.037     -110.729      -13.833       37.991       36.962       23.637     1443.330     1366.173      558.689        1.476        0.168      161.117       19.908        0.015      342.798       18.459      865.246
07/22/2014  04:14:00     -129.076     -101.242      -13.047       39.352       47.274       23.217     1548.568     2234.809      539.006        1.570        0.216      164.044       20.101        0.015      342.789       18.443      865.247
07/22/2014  04:15:00     -142.629      -66.869       -1.701       50.287       34.855       23.324     2528.826     1214.850      544.005        1.455        0.214      157.526       23.004        0.021      342.836       18.523      865.243
07/22/2014  04:16:00     -102.176      -58.964        2.865       41.154       22.567       19.773     1693.616      509.290      390.979        0.826        0.130      117.969       20.454        0.030      342.842       18.534      865.239
07/22/2014  04:17:00      -72.562      -54.241        5.105       51.336       26.918       24.920     2635.339      724.563      621.031        0.611        0.199       90.595       28.200        0.097      342.818       18.497      865.226
07/22/2014  04:18:00     -119.279      -71.135        5.107       52.775       29.913       26.980     2785.249      894.801      727.938        1.186        0.220      138.880       27.918        0.040      342.793       18.450      865.203
07/22/2014  04:19:00     -119.049     -103.201        0.447       58.513       42.161       28.272     3423.721     1777.511      799.334        1.541        0.300      157.554       24.204        0.024      342.757       18.390      865.177
07/22/2014  04:20:00     -153.988     -106.042       -7.830       27.553       38.423       20.997      759.150     1476.351      440.878        1.885        0.134      186.969       17.855        0.009      342.736       18.354      865.165
07/22/2014  04:21:00     -113.415      -53.708       -3.144       57.340       37.779       29.978     3287.909     1427.223      898.703        1.068        0.281      125.489       34.116        0.074      342.718       18.324      865.158
07/22/2014  04:22:00     -120.131      -52.202        0.920       31.957       50.541       22.798     1021.236     2554.396      519.757        1.063        0.205      130.983       14.390        0.012      342.729       18.342      865.141
07/22/2014  04:23:00     -144.761      -59.319       -0.418       47.405       44.392       23.325     2247.273     1970.620      544.044        1.462        0.238      156.443       27.963        0.032      342.727       18.339      865.123
07/22/2014  04:24:00     -110.214      -71.681       -0.462       44.700       37.796       27.961     1998.106     1428.562      781.834        1.075        0.210      131.474       26.230        0.040      342.718       18.323      865.109
07/22/2014  04:25:00     -111.916      -62.036       -6.166       39.343       28.843       22.326     1547.894      831.906      498.441        0.964        0.144      127.959       19.977        0.024      342.723       18.332      865.112
07/22/2014  04:26:00      -45.236      -31.917        9.355       49.807       22.765       17.968     2480.739      518.240      322.865        0.324        0.166       55.362       18.266        0.109      342.756       18.388      865.129
07/22/2014  04:27:00      -42.947      -52.944       -0.411       30.998       20.317       13.901      960.877      412.776      193.237        0.311        0.078       68.173       11.430        0.028      342.794       18.453      865.149
07/22/2014  04:28:00      -36.614     -114.083       -0.410       27.659       25.755       20.514      765.003      663.342      420.806        0.810        0.092      119.814       18.597        0.024      342.832       18.519      865.176
07/22/2014  04:29:00      -49.651     -113.309       -6.396       41.082       34.388       22.835     1687.701     1182.523      521.417        0.937        0.170      123.710       18.177        0.022      342.805       18.470      865.205
07/22/2014  04:30:00      -81.421     -111.370        2.164       47.803       63.428       37.528     2285.159     4023.165     1408.354        1.338        0.386      137.959       36.401        0.070      342.734       18.348      865.230
07/22/2014  04:31:00     -100.865     -145.677       -3.794       45.392       51.050       23.505     2060.476     2606.062      552.482        1.831        0.261      177.188       23.377        0.017      342.683       18.262      865.230
07/22/2014  04:32:00     -104.817      -84.858        0.716       64.460       50.496       33.018     4155.107     2549.871     1090.204        1.299        0.390      134.861       28.050        0.043      342.623       18.163      865.228
07/22/2014  04:33:00     -107.396      -66.809       -0.848       50.445       38.595       27.960     2544.677     1489.541      781.734        1.041        0.241      126.480       26.421        0.044      342.623       18.160      865.227
07/22/2014  04:34:00      -85.177      -58.522        7.819       67.151       50.526       32.582     4509.289     2552.902     1061.565        0.943        0.406      103.344       26.736        0.067      342.583       18.093      865.229
07/22/2014  04:35:00      -88.067      -48.248        3.573       64.920       38.129       34.635     4214.666     1453.796     1199.584        0.848        0.343      100.418       38.283        0.145      342.573       18.076      865.226
07/22/2014  04:36:00     -105.491      -56.853        1.211       60.976       46.011       20.924     3718.054     2116.994      437.803        1.032        0.314      119.836       24.686        0.042      342.588       18.104      865.221
07/22/2014  04:37:00     -117.072      -54.623        1.254       42.496       36.723       25.292     1805.910     1348.545      639.681        1.024        0.190      129.188       19.917        0.024      342.594       18.111      865.230
07/22/2014  04:38:00      -60.621      -78.421        2.661       47.709       57.806       25.046     2276.167     3341.524      627.293        0.804        0.312       99.119       25.778        0.068      342.607       18.136      865.258
07/22/2014  04:39:00      -59.669      -89.239        4.581       37.201       46.284       27.744     1383.925     2142.204      769.747        0.792        0.215      107.350       25.050        0.054      342.573       18.077      865.274
07/22/2014  04:40:00      -57.768      -77.993        5.215       45.199       49.095       27.376     2042.912     2410.299      749.455        0.732        0.260       97.057       17.057        0.031      342.568       18.069      865.272
07/22/2014  04:41:00      -99.260      -83.204      -10.269       49.976       39.219       32.205     2497.572     1538.158     1037.172        1.098        0.254      129.520       16.502        0.016      342.544       18.029      865.268
07/22/2014  04:42:00     -121.564      -94.319      -11.578       36.586       29.703       20.516     1338.561      882.245      420.895        1.322        0.132      153.863       15.635        0.010      342.516       17.980      865.255
07/22/2014  04:43:00      -88.984      -27.927       -2.000       34.879       38.943       18.867     1216.513     1516.522      355.961        0.589        0.154       93.263       15.838        0.029      342.495       17.945      865.233
07/22/2014  04:44:00      -77.106      -46.102       -0.978       36.134       23.420       24.583     1305.671      548.503      604.328        0.526        0.123       89.837       11.467        0.016      342.551       18.040      865.217
07/22/2014  04:45:00      -36.800      -50.817      -12.025       24.975       29.310       15.566      623.740      859.084      242.292        0.290        0.086       62.742       11.823        0.036      342.583       18.096      865.199
07/22/2014  04:46:00      -32.964      -11.605       -4.588       15.652       15.058       13.551      244.983      226.743      183.622        0.095        0.033       34.948        8.269        0.056      342.580       18.091      865.178
07/22/2014  04:47:00      -45.717      -19.736       -1.014       21.514       21.849       11.943      462.863      477.399      142.624        0.178        0.054       49.795       11.491        0.053      342.589       18.104      865.138
07/22/2014  04:48:00      -66.938       -1.409        1.044       41.043       12.153       16.778     1684.550      147.706      281.513        0.330        0.106       66.953       19.784        0.087      342.511       17.969      865.086
07/22/2014  04:49:00      -71.580      -12.352       -3.901       22.508       21.526       12.501      506.594      463.351      156.273        0.321        0.056       72.638        9.869        0.018      342.499       17.949      865.049
07/22/2014  04:50:00      -49.943        4.969       -5.520       17.069       17.222       10.260      291.340      296.597      105.271        0.162        0.035       50.189        4.410        0.008      342.513       17.976      865.052
07/22/2014  04:51:00      -67.343      -17.975       -4.623       26.674       14.855       10.654      711.511      220.672      113.509        0.296        0.052       69.700        5.328        0.006      342.482       17.926      865.055
07/22/2014  04:52:00      -75.564      -21.491      -10.353       21.293       16.008        8.245      453.382      256.241       67.985        0.353        0.039       78.561        6.649        0.007      342.461       17.888      865.061
07/22/2014  04:53:00      -88.480      -25.689      -13.365       18.994       16.344       12.197      360.765      267.136      148.761        0.472        0.039       92.134        8.398        0.008      342.450       17.870      865.072
07/22/2014  04:54:00      -77.112      -32.897       -2.791       20.287       14.126       13.991      411.564      199.551      195.754        0.392        0.040       83.836       12.828        0.023      342.457       17.881      865.091
07/22/2014  04:55:00      -72.518      -45.413       -0.858       35.143       29.994       19.518     1235.000      899.617      380.946        0.492        0.126       85.564       22.403        0.069      342.488       17.932      865.099
07/22/2014  04:56:00      -47.878      -54.683        7.766       40.251       42.291       23.909     1620.181     1788.538      571.647        0.466        0.199       72.681       26.465        0.133      342.538       18.016      865.108
07/22/2014  04:57:00      -80.416      -78.120       -8.691       26.776       20.929       13.804      716.981      438.014      190.544        0.700        0.067      112.114       13.252        0.014      342.511       17.970      865.103
07/22/2014  04:58:00      -80.833      -60.311       -1.047       31.043       31.196       15.488      963.650      973.183      239.878        0.617        0.109      100.853       14.079        0.019      342.492       17.940      865.082
07/22/2014  04:59:00      -58.459      -49.670       -4.444       34.059       38.471       22.639     1159.988     1480.010      512.528        0.453        0.158       76.711       17.589        0.053      342.477       17.912      865.053
07/22/2014  05:00:00      -57.920      -63.934       -6.859       35.379       24.608       15.839     1251.705      605.548      250.859        0.480        0.105       86.268       11.789        0.019      342.494       17.941      865.034
07/22/2014  05:01:00      -31.396      -54.443       -0.526       28.328       35.208       22.269      802.501     1239.619      495.905        0.324        0.127       62.847       20.568        0.107      342.504       17.960      865.033
07/22/2014  05:02:00       -0.094      -78.485      -11.792       28.256       47.697       19.296      798.398     2275.016      372.345        0.487        0.172       78.485        6.878        0.008      342.484       17.925      865.036
07/22/2014  05:03:00      -37.762      -72.563       -6.454       36.869       41.425       23.441     1359.304     1716.003      549.465        0.518        0.181       81.801       21.556        0.069      342.474       17.909      865.041
07/22/2014  05:04:00      -23.402      -61.816       -9.336       31.921       48.752       24.883     1018.928     2376.739      619.183        0.423        0.201       66.097       21.833        0.109      342.468       17.900      865.035
07/22/2014  05:05:00      -54.661      -45.239      -11.304       40.383       28.219       17.725     1630.805      796.335      314.185        0.395        0.137       70.953       14.963        0.044      342.467       17.896      865.023
07/22/2014  05:06:00      -92.961      -48.327        1.014       38.144       39.113       22.015     1454.961     1529.849      484.676        0.722        0.173      104.773       13.118        0.016      342.401       17.785      865.018
07/22/2014  05:07:00     -127.998      -85.427       -9.095       31.579       36.586       17.645      997.220     1338.507      311.362        1.321        0.132      153.887       13.113        0.007      342.394       17.772      865.029
07/22/2014  05:08:00     -110.612      -72.519        3.007       44.002       41.410       23.955     1936.219     1714.793      573.821        1.086        0.211      132.265       19.925        0.023      342.404       17.789      865.061
07/22/2014  05:09:00     -131.994     -119.611       -5.025       37.854       37.164       23.484     1432.911     1381.127      551.501        1.756        0.168      178.127       19.934        0.013      342.380       17.748      865.090
07/22/2014  05:10:00     -138.846     -120.623       -8.996       57.490       72.777       31.054     3305.118     5296.477      964.337        2.174        0.478      183.925       31.155        0.029      342.368       17.726      865.114
07/22/2014  05:11:00     -165.009     -144.547      -14.658       47.034       41.338       35.608     2212.208     1708.865     1267.926        2.676        0.259      219.367       33.582        0.023      342.327       17.655      865.120
07/22/2014  05:12:00     -113.488      -77.501       -1.342       67.054       44.444       25.884     4496.255     1975.247      669.989        1.301        0.357      137.426       21.127        0.024      342.311       17.629      865.109
07/22/2014  05:13:00     -109.493      -87.960       -3.837       50.481       48.129       25.057     2548.349     2316.368      627.836        1.262        0.275      140.448       27.758        0.039      342.317       17.642      865.097
07/22/2014  05:14:00      -83.563     -104.060        1.278       49.568       61.575       27.651     2456.975     3791.473      764.576        1.241        0.351      133.459       35.749        0.072      342.302       17.615      865.091
07/22/2014  05:15:00     -114.925     -100.207        4.710       53.615       48.424       36.492     2874.561     2344.855     1331.636        1.491        0.328      152.477       28.847        0.036      342.248       17.524      865.097
07/22/2014  05:16:00     -101.983      -99.038       -1.152       53.030       56.579       25.835     2812.218     3201.148      667.470        1.344        0.334      142.159       14.867        0.011      342.211       17.462      865.107
07/22/2014  05:17:00     -150.352     -102.340       -5.289       68.625       51.977       39.154     4709.449     2701.645     1533.037        2.102        0.447      181.877       34.463        0.036      342.214       17.464      865.134
07/22/2014  05:18:00     -112.444      -86.288       -4.152       60.479       54.914       28.047     3657.764     3015.558      786.652        1.378        0.373      141.736       19.429        0.019      342.167       17.387      865.161
07/22/2014  05:19:00     -116.484     -101.962       -3.074       42.462       37.510       22.394     1803.009     1406.995      501.513        1.384        0.186      154.805       21.399        0.019      342.141       17.343      865.189
07/22/2014  05:20:00      -75.751      -83.654        4.926       63.684       59.857       38.101     4055.630     3582.836     1451.671        1.092        0.455      112.855       41.128        0.133      342.139       17.341      865.210
07/22/2014  05:21:00     -113.936     -112.436        3.537       61.913       49.601       38.754     3833.193     2460.279     1501.897        1.671        0.390      160.073       31.108        0.038      342.098       17.269      865.245
07/22/2014  05:22:00     -138.089     -115.491       -6.702       41.951       45.661       24.768     1759.849     2084.940      613.439        1.845        0.223      180.018       20.276        0.013      342.080       17.238      865.251
07/22/2014  05:23:00     -117.855      -47.832       -3.699       46.541       34.737       24.823     2166.027     1206.677      616.166        1.009        0.199      127.192       22.603        0.032      342.085       17.247      865.240
07/22/2014  05:24:00     -104.062     -135.948       -8.483       41.489       52.804       26.004     1721.310     2788.288      676.224        1.728        0.259      171.204       25.439        0.022      342.084       17.245      865.222
07/22/2014  05:25:00      -95.391      -83.603       -5.912       41.756       54.374       21.996     1743.568     2956.546      483.813        1.065        0.259      126.842       22.914        0.033      342.094       17.263      865.202
07/22/2014  05:26:00      -84.553      -86.760        3.321       49.716       38.855       27.219     2471.705     1509.696      740.852        0.970        0.236      121.147       24.031        0.039      342.065       17.214      865.180
07/22/2014  05:27:00     -103.368     -109.454      -10.455       41.860       36.612       20.598     1752.245     1340.470      424.279        1.314        0.176      150.549       17.539        0.014      342.078       17.236      865.161
07/22/2014  05:28:00      -93.781      -93.633       -6.817       44.040       56.906       27.736     1939.526     3238.240      769.283        1.178        0.297      132.522       17.787        0.018      342.073       17.228      865.137
07/22/2014  05:29:00     -100.315      -92.532        1.933       36.084       49.488       26.115     1302.085     2449.067      681.996        1.153        0.222      136.474       25.110        0.034      342.017       17.132      865.120
07/22/2014  05:30:00     -111.091      -91.204      -11.098       37.780       51.066       20.205     1427.321     2607.696      408.228        1.261        0.222      143.734       19.768        0.019      342.019       17.134      865.114
07/22/2014  05:31:00     -102.925     -105.544       -0.104       45.217       45.557       29.073     2044.586     2075.479      845.241        1.335        0.248      147.421       24.086        0.027      342.035       17.162      865.132
07/22/2014  05:32:00     -129.659      -76.304      -13.119       36.130       34.528       25.044     1305.363     1192.162      627.201        1.296        0.156      150.445       15.595        0.011      342.045       17.178      865.138
07/22/2014  05:33:00      -53.829      -40.909        6.086       38.545       29.312       21.911     1485.739      859.189      480.083        0.372        0.141       67.610       14.724        0.047      342.022       17.142      865.126
07/22/2014  05:34:00      -68.716     -102.403       -4.969       39.695       25.803       21.959     1575.693      665.815      482.186        0.898        0.136      123.322       20.679        0.028      342.066       17.216      865.120
07/22/2014  05:35:00      -92.082      -84.118      -11.992       31.646       25.945       14.846     1001.444      673.136      220.416        0.880        0.095      124.720       12.440        0.010      342.060       17.205      865.112
07/22/2014  05:36:00      -71.554      -71.621       -2.823       20.805       23.094       17.318      432.847      533.325      299.926        0.576        0.063      101.240       11.892        0.014      342.092       17.259      865.099
07/22/2014  05:37:00      -98.603      -56.357       -6.452       16.989       16.451       12.518      288.633      270.644      156.699        0.683        0.036      113.572        8.617        0.006      342.094       17.263      865.090
07/22/2014  05:38:00      -62.424      -49.283       -0.819       28.605       18.349       16.174      818.265      336.684      261.595        0.387        0.071       79.533       16.877        0.045      342.122       17.309      865.087
07/22/2014  05:39:00      -19.786      -32.742       10.089       32.417       18.790       17.939     1050.832      353.068      321.818        0.165        0.086       38.256       17.441        0.208      342.115       17.299      865.100
07/22/2014  05:40:00      -63.319      -29.367       -3.316       38.499       28.784       15.750     1482.177      828.522      248.071        0.372        0.128       69.797       19.490        0.078      342.069       17.221      865.105
07/22/2014  05:41:00      -77.912      -37.977       -5.743       25.420       18.525       15.446      646.165      343.189      238.568        0.439        0.061       86.675       12.550        0.021      342.072       17.225      865.102
07/22/2014  05:42:00      -70.695      -12.303        2.727       32.258       20.381       16.318     1040.577      415.404      266.282        0.344        0.086       71.757       17.754        0.061      342.019       17.136      865.091
07/22/2014  05:43:00      -76.851       -6.287       -2.296       35.011       29.536       18.485     1225.794      872.373      341.710        0.419        0.122       77.107       18.040        0.055      341.972       17.057      865.073
07/22/2014  05:44:00     -103.495      -23.077        0.247       30.636       22.676       15.170      938.567      514.206      230.117        0.646        0.084      106.037       13.237        0.016      342.017       17.134      865.075
07/22/2014  05:45:00     -108.211      -31.025       -8.342       39.006       33.943       18.051     1521.464     1152.122      325.840        0.787        0.150      112.571        8.861        0.006      342.015       17.129      865.077
07/22/2014  05:46:00      -83.599      -29.578        2.878       35.407       24.833       21.060     1253.633      616.672      443.525        0.509        0.116       88.677       19.906        0.050      342.044       17.179      865.099
07/22/2014  05:47:00      -76.848      -14.083        1.747       23.860       26.640       16.325      569.293      709.665      266.520        0.383        0.077       78.127       15.287        0.038      342.012       17.122      865.126
07/22/2014  05:48:00     -101.241      -19.179        3.020       32.530       33.883       21.807     1058.215     1148.038      475.527        0.665        0.134      103.041       15.062        0.021      342.041       17.173      865.148
07/22/2014  05:49:00      -84.910      -37.316       -1.405       31.572       17.861       14.425      996.803      319.003      208.083        0.506        0.076       92.748       14.792        0.025      342.066       17.216      865.162
07/22/2014  05:50:00      -72.146      -39.862        1.772       38.463       31.527       19.660     1479.431      993.965      386.499        0.483        0.143       82.425       21.373        0.067      342.115       17.300      865.169
07/22/2014  05:51:00      -82.829      -84.280       -7.222       32.049       32.769       21.899     1027.159     1073.836      479.583        0.830        0.129      118.169       17.971        0.023      342.121       17.309      865.180
07/22/2014  05:52:00     -102.123      -78.236       -3.193       39.507       36.776       21.759     1560.773     1352.484      473.441        0.997        0.169      128.646       17.449        0.018      342.083       17.243      865.187
07/22/2014  05:53:00      -75.574      -77.388        9.540       60.671       37.889       30.003     3681.007     1435.540      900.181        0.890        0.301      108.167       31.803        0.086      342.052       17.192      865.191
07/22/2014  05:54:00     -137.074      -97.393       -5.854       65.162       24.412       24.088     4246.135      595.926      580.218        1.686        0.271      168.150       25.735        0.023      341.979       17.068      865.194
07/22/2014  05:55:00     -145.950      -88.908       -5.147       60.019       37.272       29.032     3602.248     1389.217      842.854        1.753        0.292      170.898       27.519        0.026      341.937       16.996      865.186
07/22/2014  05:56:00     -133.584      -91.213      -11.203       42.910       31.040       21.855     1841.233      963.462      477.655        1.479        0.164      161.754       15.726        0.009      341.978       17.065      865.186
07/22/2014  05:57:00     -111.667      -66.654       -1.777       59.852       52.259       30.521     3582.255     2731.005      931.508        1.208        0.362      130.047       17.905        0.019      341.916       16.959      865.187
07/22/2014  05:58:00     -116.856      -61.685       -0.393       48.918       43.114       30.176     2393.019     1858.820      910.593        1.131        0.258      132.138       29.251        0.049      341.916       16.961      865.206
07/22/2014  05:59:00      -55.127      -83.281       -3.249       36.753       40.834       27.496     1350.752     1667.402      756.047        0.688        0.189       99.874       24.258        0.059      341.906       16.944      865.225
07/22/2014  06:00:00      -64.210      -82.500       -4.222       44.893       38.954       23.929     2015.382     1517.437      572.579        0.753        0.205      104.543       16.147        0.024      341.912       16.953      865.252
07/22/2014  06:01:00      -76.409      -96.686       -3.810       38.746       44.398       29.475     1501.278     1971.159      868.765        0.977        0.217      123.233       22.544        0.033      341.905       16.943      865.274
07/22/2014  06:02:00      -86.571      -56.378       -7.497       43.903       27.303       22.937     1927.442      745.469      526.088        0.696        0.160      103.311       16.791        0.026      341.910       16.949      865.290
07/22/2014  06:03:00     -115.698      -90.946       -5.269       51.059       34.859       30.403     2607.065     1215.124      924.367        1.321        0.237      147.164       23.178        0.025      341.861       16.868      865.304
07/22/2014  06:04:00      -91.154      -83.204        2.632       63.180       41.739       30.292     3991.743     1742.147      917.634        1.094        0.333      123.418       22.783        0.034      341.855       16.857      865.309
07/22/2014  06:05:00     -117.154      -56.008        7.124       68.619       35.407       32.937     4708.509     1253.653     1084.837        1.198        0.352      129.854       37.942        0.085      341.877       16.895      865.306
07/22/2014  06:06:00     -102.247      -71.446       -4.180       38.953       38.156       24.753     1517.318     1455.911      612.688        0.958        0.179      124.736       11.574        0.009      341.862       16.871      865.313
07/22/2014  06:07:00     -103.950      -93.485       -9.199       46.365       64.549       24.824     2149.728     4166.553      616.213        1.328        0.347      139.804       26.764        0.037      341.903       16.938      865.330
07/22/2014  06:08:00      -70.661      -48.478       -4.868       38.262       43.492       17.235     1463.993     1891.586      297.036        0.551        0.183       85.692       16.081        0.035      341.913       16.955      865.329
07/22/2014  06:09:00      -98.159      -55.325        0.201       50.279       37.904       24.362     2528.009     1436.707      593.518        0.863        0.228      112.677       18.079        0.026      341.871       16.885      865.322
07/22/2014  06:10:00     -103.378      -70.222        0.168       69.067       35.181       30.576     4770.292     1237.710      934.920        1.128        0.347      124.972       31.707        0.064      341.891       16.918      865.310
07/22/2014  06:11:00      -90.677      -75.607       -4.425       48.439       36.530       22.716     2346.358     1334.406      516.023        0.908        0.210      118.063       24.608        0.043      341.898       16.930      865.291
07/22/2014  06:12:00      -73.638      -32.589       -4.643       31.700       18.695       10.759     1004.874      349.490      115.749        0.399        0.074       80.527        3.130        0.002      342.010       17.120      865.263
07/22/2014  06:13:00      -55.979      -19.601       -3.928       26.001       18.090       14.172      676.053      327.241      200.842        0.237        0.060       59.312       14.870        0.063      342.013       17.127      865.225
07/22/2014  06:14:00      -22.670      -17.191        5.188       14.446       16.021        9.922      208.680      256.683       98.447        0.070        0.028       28.451        5.624        0.039      342.079       17.237      865.201
07/22/2014  06:15:00      -62.775      -17.677       -4.275       20.954       22.172       13.995      439.060      491.606      195.855        0.270        0.056       65.216       16.632        0.065      342.101       17.273      865.188
07/22/2014  06:16:00      -36.174      -13.050       -1.277       24.568       23.753       14.650      603.607      564.220      214.611        0.143        0.069       38.456       10.770        0.078      342.057       17.200      865.189
07/22/2014  06:17:00      -37.318      -10.486       -3.309       10.374       11.513        8.751      107.611      132.560       76.579        0.092        0.016       38.763        5.790        0.022      342.054       17.194      865.196
07/22/2014  06:18:00      -63.403      -12.593       -8.439       16.445       13.510        9.254      270.427      182.524       85.636        0.239        0.027       64.641        5.294        0.007      342.051       17.191      865.200
07/22/2014  06:19:00      -54.123       -7.401       -1.745       15.984       11.749       10.105      255.494      138.030      102.113        0.174        0.025       54.627        7.535        0.019      342.047       17.184      865.206
07/22/2014  06:20:00      -50.670       -6.310       -3.532       24.375       12.524       10.518      594.142      156.843      110.633        0.174        0.043       51.061        9.965        0.038      342.055       17.196      865.206
07/22/2014  06:21:00      -78.287      -31.490       -5.473       19.033       16.469        8.943      362.240      271.232       79.978        0.393        0.036       84.383        7.552        0.008      342.037       17.168      865.207
07/22/2014  06:22:00      -70.431      -59.004        1.217       28.802       29.598       14.982      829.569      876.044      224.469        0.519        0.097       91.880       10.550        0.013      342.078       17.237      865.211
07/22/2014  06:23:00      -55.714      -56.475       -3.811       17.785       24.506       15.406      316.315      600.557      237.350        0.373        0.058       79.331       10.342        0.017      342.065       17.216      865.215
07/22/2014  06:24:00      -51.617      -38.048      -10.008       27.877       23.012       19.433      777.138      529.566      377.644        0.295        0.084       64.124       12.218        0.036      342.176       17.403      865.209
07/22/2014  06:25:00      -22.110      -41.588        5.445       23.314       18.338       17.532      543.559      336.286      307.381        0.172        0.059       47.100       12.461        0.070      342.193       17.431      865.209
07/22/2014  06:26:00      -31.792      -42.014        6.973       45.592       27.892       21.669     2078.660      777.958      469.527        0.307        0.166       52.687       24.771        0.221      342.209       17.459      865.221
07/22/2014  06:27:00      -49.335      -42.508       -0.540       39.454       28.666       22.532     1556.609      821.754      507.669        0.356        0.144       65.122       14.737        0.051      342.131       17.326      865.229
07/22/2014  06:28:00      -80.041      -89.093      -11.046       42.262       22.615       19.424     1786.074      511.432      377.290        0.857        0.134      119.767       18.600        0.024      342.037       17.170      865.236
07/22/2014  06:29:00      -71.569      -87.910      -13.934       25.336       28.404       14.311      641.916      806.769      204.808        0.735        0.083      113.359        6.623        0.003      342.034       17.160      865.248
07/22/2014  06:30:00      -67.071      -75.472       -4.212       35.085       16.150       18.440     1230.934      260.812      340.042        0.602        0.092      100.968       11.900        0.014      342.073       17.225      865.254
07/22/2014  06:31:00      -92.415      -87.128       -6.607       34.867       28.502       25.318     1215.690      812.350      641.018        0.942        0.133      127.011       22.447        0.031      342.079       17.236      865.270
07/22/2014  06:32:00      -92.357      -97.899        1.178       33.393       36.749       17.966     1115.098     1350.460      322.790        1.045        0.139      134.589       15.880        0.014      342.110       17.289      865.305
07/22/2014  06:33:00      -93.749     -100.440        2.737       58.261       41.845       29.255     3394.323     1750.967      855.880        1.244        0.300      137.393       29.980        0.048      342.047       17.182      865.351
07/22/2014  06:34:00     -127.123      -98.602      -10.860       40.840       34.029       24.882     1667.890     1157.957      619.106        1.472        0.172      160.881       26.200        0.027      342.011       17.122      865.383
07/22/2014  06:35:00     -131.768      -69.665       -7.017       46.703       36.503       22.185     2181.125     1332.445      492.181        1.313        0.200      149.050       15.444        0.011      342.072       17.226      865.409
07/22/2014  06:36:00     -107.572      -61.591        4.816       37.576       33.015       23.380     1411.938     1090.023      546.639        0.922        0.152      123.957       18.573        0.022      342.094       17.261      865.424
07/22/2014  06:37:00     -109.332      -61.232       -2.053       69.283       35.940       21.381     4800.104     1291.704      457.163        1.113        0.327      125.311       21.470        0.029      342.099       17.272      865.435
07/22/2014  06:38:00     -124.459      -29.626        7.950       50.032       40.737       24.225     2503.235     1659.500      586.856        1.059        0.237      127.937       23.564        0.034      342.069       17.221      865.411
07/22/2014  06:39:00     -110.267      -50.173       -3.947       49.242       43.757       26.482     2424.823     1914.647      701.298        0.987        0.252      121.145       28.704        0.056      342.082       17.244      865.396
07/22/2014  06:40:00     -135.373      -67.896       -6.371       50.390       22.268       21.708     2539.183      495.852      471.245        1.324        0.175      151.445       20.632        0.019      342.041       17.174      865.389
07/22/2014  06:41:00     -121.874      -87.371      -10.061       21.094       27.850       16.072      444.954      775.608      258.294        1.203        0.074      149.956       13.097        0.008      342.036       17.166      865.375
07/22/2014  06:42:00     -109.818      -47.021        0.811       27.108       31.840       16.522      734.859     1013.783      272.983        0.815        0.101      119.461       15.939        0.018      342.047       17.182      865.363
07/22/2014  06:43:00      -85.517      -45.454        1.615       42.926       32.837       21.537     1842.637     1078.282      463.855        0.638        0.169       96.846       12.761        0.017      342.097       17.267      865.364
07/22/2014  06:44:00      -54.734      -41.436       17.455       44.718       34.134       22.051     1999.726     1165.099      486.258        0.433        0.183       68.650       24.135        0.124      342.201       17.445      865.363
07/22/2014  06:45:00      -85.071      -36.438        9.304       37.971       34.454       22.249     1441.827     1187.045      495.008        0.589        0.156       92.546       18.746        0.041      342.110       17.290      865.370
07/22/2014  06:46:00      -88.432      -72.761       -8.715       30.743       26.398       16.130      945.133      696.828      260.161        0.755        0.095      114.518       13.250        0.013      342.235       17.502      865.388
07/22/2014  06:47:00      -68.282      -94.812       -5.251       42.253       43.265       22.370     1785.354     1871.853      500.421        0.892        0.208      116.841       22.248        0.036      342.244       17.518      865.403
07/22/2014  06:48:00      -83.768      -99.552      -10.006       41.277       32.477       21.744     1703.754     1054.750      472.790        1.013        0.162      130.106       17.983        0.019      342.202       17.447      865.417
07/22/2014  06:49:00      -92.424      -80.324       -7.471       34.174       30.994       18.198     1167.890      960.602      331.176        0.875        0.123      122.451       17.455        0.020      342.230       17.494      865.430
07/22/2014  06:50:00      -42.248      -52.806       -3.848       44.294       26.581       24.132     1961.971      706.557      582.354        0.392        0.163       67.627       13.203        0.038      342.354       17.703      865.454
07/22/2014  06:51:00      -50.121      -88.269       -2.039       46.714       37.494       24.955     2182.223     1405.778      622.762        0.726        0.211      101.506       16.008        0.025      342.343       17.686      865.480
07/22/2014  06:52:00      -72.987      -75.336      -12.099       31.522       34.062       18.875      993.649     1160.201      356.278        0.683        0.126      104.893       15.979        0.023      342.294       17.602      865.484
07/22/2014  06:53:00      -63.954      -74.739       -3.963       29.433       39.054       22.224      866.318     1525.238      493.917        0.629        0.144       98.367       15.879        0.026      342.313       17.635      865.479
07/22/2014  06:54:00     -102.238      -88.450      -17.096       31.995       21.248       20.635     1023.675      451.486      425.786        1.023        0.095      135.189       11.556        0.007      342.328       17.660      865.458
07/22/2014  06:55:00      -39.224      -42.679        7.910       35.210       30.562       17.274     1239.724      934.052      298.399        0.295        0.124       57.966       14.260        0.061      342.388       17.762      865.439
07/22/2014  06:56:00      -15.792      -65.816       -4.065       26.184       29.888       21.009      685.583      893.293      441.390        0.331        0.101       67.684        7.808        0.013      342.399       17.782      865.430
07/22/2014  06:57:00      -26.698      -43.557        9.753       38.494       28.311       20.312     1481.766      801.506      412.597        0.270        0.135       51.088       12.489        0.060      342.488       17.933      865.422
07/22/2014  06:58:00       -6.742      -74.497       10.533       26.417       23.029       19.107      697.882      530.353      365.093        0.365        0.080       74.802       15.617        0.044      342.453       17.873      865.433
07/22/2014  06:59:00      -24.234      -59.104        2.687       23.273       32.215       14.926      541.634     1037.776      222.778        0.294        0.090       63.880       16.759        0.069      342.482       17.923      865.447
07/22/2014  07:00:00      -40.632      -64.552        2.149       32.827       30.611       20.114     1077.591      937.010      404.563        0.412        0.121       76.276       17.596        0.053      342.420       17.817      865.479
07/22/2014  07:01:00      -74.621      -75.063      -16.208       19.319       22.966       15.436      373.216      527.436      238.282        0.630        0.057      105.843       13.058        0.015      342.433       17.837      865.508
07/22/2014  07:02:00      -62.068      -68.326       -4.793       26.500       23.172       24.597      702.274      536.948      605.010        0.519        0.092       92.308       19.260        0.044      342.506       17.964      865.543
07/22/2014  07:03:00      -81.537      -48.061       -8.077       28.483       18.712       17.114      811.273      350.136      292.901        0.524        0.073       94.647        8.238        0.008      342.563       18.060      865.563
07/22/2014  07:04:00      -56.658      -73.934       -3.966       20.531       17.644       17.709      421.511      311.325      313.596        0.487        0.052       93.147       14.726        0.025      342.602       18.126      865.578
07/22/2014  07:05:00      -66.914      -66.714       -4.553       24.817       22.196       14.964      615.893      492.652      223.918        0.514        0.067       94.489       10.500        0.012      342.693       18.282      865.571
07/22/2014  07:06:00      -54.058      -41.872       -1.815       24.474       19.507       15.498      598.988      380.538      240.188        0.295        0.061       68.378       11.759        0.030      342.750       18.379      865.563
07/22/2014  07:07:00      -39.525      -34.283       -3.723       24.575       18.119       16.180      603.918      328.284      261.806        0.197        0.060       52.322       14.120        0.073      342.790       18.446      865.570
07/22/2014  07:08:00      -32.793      -24.161       -3.851       14.734        8.840        7.331      217.094       78.146       53.743        0.101        0.017       40.732        4.436        0.012      342.827       18.510      865.573
07/22/2014  07:09:00      -15.034      -23.239       -5.621       14.817       12.019       10.009      219.551      144.457      100.189        0.063        0.023       27.678        4.874        0.031      342.819       18.496      865.585
07/22/2014  07:10:00      -14.683        5.043        3.931       17.569        6.858        8.556      308.661       47.026       73.197        0.034        0.021       15.525        9.156        0.348      343.029       18.853      865.600
07/22/2014  07:11:00      -22.141       14.380        1.180       19.204       10.330       11.928      368.790      106.710      142.285        0.066        0.031       26.401        9.941        0.142      342.977       18.762      865.597
07/22/2014  07:12:00       -7.231       12.138        7.301       10.714       13.982        8.131      114.784      195.496       66.115        0.031        0.019       14.129        5.355        0.144      343.155       19.067      865.559
07/22/2014  07:13:00       76.020       53.208       23.564       28.877       23.886       24.640      833.870      570.552      607.109        0.559        0.101       92.790       11.799        0.016      342.992       18.790      865.484
07/22/2014  07:14:00      109.290       72.008        5.887       24.602       29.796       17.249      605.263      887.807      297.517        0.948        0.090      130.880       16.704        0.016      342.898       18.630      865.430
07/22/2014  07:15:00      107.099       64.737        9.119       35.890       28.525       25.856     1288.102      813.657      668.531        0.926        0.139      125.144       21.434        0.029      343.011       18.822      865.420
07/22/2014  07:16:00       85.926       49.985        8.385       41.577       30.244       22.782     1728.621      914.707      519.035        0.656        0.158       99.407       11.711        0.014      342.983       18.775      865.459
07/22/2014  07:17:00       35.063       54.970        5.941       32.980       31.766       20.395     1087.650     1009.047      415.940        0.340        0.126       65.201       19.535        0.090      343.027       18.850      865.499
07/22/2014  07:18:00       93.607       64.452        3.865       41.482       22.035       25.499     1720.750      485.537      650.209        0.789        0.143      113.650       11.815        0.011      342.985       18.780      865.522
07/22/2014  07:19:00       79.919       46.476       -1.209       20.454       14.069       17.826      418.363      197.940      317.754        0.474        0.047       92.451       10.197        0.012      342.922       18.671      865.554
07/22/2014  07:20:00       81.320       50.956       -2.079       17.357       14.413       14.911      301.253      207.731      222.347        0.497        0.037       95.965        9.422        0.010      342.902       18.638      865.590
07/22/2014  07:21:00       54.102       50.279       21.337       18.606       11.869       16.747      346.190      140.865      280.476        0.334        0.038       73.858        9.144        0.015      342.928       18.681      865.627
07/22/2014  07:22:00       49.482       33.056       21.712       12.466       10.098       14.420      155.406      101.960      207.932        0.224        0.023       59.508        6.756        0.013      342.907       18.645      865.650
07/22/2014  07:23:00       41.471       36.750       20.762       16.699       15.086       20.819      278.841      227.581      433.424        0.222        0.047       55.411        8.243        0.022      343.056       18.899      865.653
07/22/2014  07:24:00       20.300       33.911       32.488       29.609       29.198       18.821      876.688      852.508      354.230        0.235        0.104       39.523        7.108        0.032      343.227       19.189      865.667
07/22/2014  07:25:00       11.029       39.248       33.757       25.812       20.460       24.064      666.238      418.604      579.093        0.223        0.083       40.768       12.979        0.101      343.184       19.118      865.682
07/22/2014  07:26:00        8.471       23.383       41.237       19.550       20.863       14.337      382.207      435.263      205.536        0.167        0.051       24.870       11.759        0.224      343.271       19.264      865.713
07/22/2014  07:27:00       -5.357       12.957       17.424       14.230       12.270       10.734      202.496      150.543      115.214        0.048        0.023       14.021        8.349        0.355      343.307       19.326      865.737
07/22/2014  07:28:00       24.421       22.998       11.523       16.384       13.163       21.467      268.437      173.267      460.848        0.108        0.045       33.545       10.163        0.092      343.240       19.212      865.747
07/22/2014  07:29:00       42.545       27.351       23.570       23.525       12.639       14.554      553.432      159.746      211.815        0.202        0.046       50.578       11.135        0.048      343.184       19.116      865.760
07/22/2014  07:30:00       33.725       15.639       -3.324       12.767       10.065       13.520      163.001      101.296      182.799        0.092        0.022       37.175        3.340        0.008      343.071       18.925      865.753
07/22/2014  07:31:00       39.151       12.491        8.608       15.545       10.800       12.520      241.662      116.639      156.739        0.114        0.026       41.095        5.197        0.016      343.145       19.050      865.757
07/22/2014  07:32:00       60.290       40.119        2.875       14.599        9.264        9.796      213.139       85.819       95.964        0.282        0.020       72.418        5.282        0.005      343.087       18.951      865.758
07/22/2014  07:33:00       82.756       61.823       13.240       12.544       14.346       14.734      157.359      205.816      217.082        0.571        0.029      103.299       10.563        0.010      343.048       18.886      865.748
07/22/2014  07:34:00       66.200       49.258        4.990       18.439       21.544       17.123      340.000      464.137      293.199        0.397        0.055       82.516       15.182        0.034      343.070       18.922      865.725
07/22/2014  07:35:00       62.575       59.112       23.380       25.848       26.149       29.253      668.127      683.785      855.720        0.508        0.110       86.081       15.623        0.033      343.191       19.129      865.702
07/22/2014  07:36:00       85.199       61.140       24.678       21.505       17.815       19.994      462.446      317.376      399.778        0.639        0.059      104.867        3.446        0.001      343.089       18.956      865.681
07/22/2014  07:37:00      111.581       79.081       22.816       30.330       23.450       33.578      919.921      549.880     1127.478        1.091        0.130      136.763       23.055        0.028      343.160       19.077      865.657
07/22/2014  07:38:00      118.311       83.131        1.243       19.743       17.350       15.183      389.773      301.025      230.519        1.092        0.046      144.597        9.828        0.005      343.087       18.951      865.631
07/22/2014  07:39:00       62.553       59.935       43.786       47.624       34.699       32.915     2268.068     1204.038     1083.388        0.699        0.228       86.632       26.905        0.096      343.278       19.276      865.607
07/22/2014  07:40:00       68.789       63.751       21.423       31.222       27.541       31.330      974.824      758.524      981.549        0.598        0.136       93.788        9.755        0.011      343.243       19.218      865.590
07/22/2014  07:41:00       65.045       57.609       35.956       24.811       23.490       23.801      615.603      551.763      566.499        0.529        0.087       86.888       11.463        0.017      343.152       19.063      865.587
07/22/2014  07:42:00       20.875       34.119       21.320       23.280       33.725       13.481      541.937     1137.370      181.741        0.196        0.093       39.998        8.588        0.046      343.304       19.322      865.599
07/22/2014  07:43:00       87.185       61.643       21.578       31.376       19.192       25.224      984.443      368.350      636.262        0.693        0.099      106.776        7.037        0.004      343.132       19.030      865.615
07/22/2014  07:44:00       49.317       39.026        8.502       24.179       22.804       22.234      584.628      520.036      494.336        0.281        0.080       62.890       13.670        0.047      343.194       19.134      865.628
07/22/2014  07:45:00       44.777       38.805       11.068       35.173       22.472       17.495     1237.155      505.006      306.082        0.284        0.102       59.252       10.547        0.032      343.201       19.143      865.640
07/22/2014  07:46:00       50.837       45.397       -0.827       22.394       18.159       13.902      501.475      329.746      193.264        0.283        0.051       68.156        5.463        0.006      343.167       19.089      865.645
07/22/2014  07:47:00       49.344       27.273        5.816       23.035       20.547       19.452      530.613      422.165      378.390        0.227        0.067       56.380       14.447        0.066      343.202       19.148      865.662
07/22/2014  07:48:00       41.294       35.902       16.415       21.284       18.135       19.182      452.994      328.887      367.961        0.221        0.057       54.719       14.187        0.067      343.251       19.232      865.684
07/22/2014  07:49:00       26.094       36.310       38.648       14.686       22.224       14.998      215.691      493.926      224.942        0.221        0.047       44.713       12.784        0.082      343.270       19.264      865.708
07/22/2014  07:50:00      -22.452      -21.875       -1.753       21.547       29.994       17.812      464.260      899.650      317.273        0.133        0.084       31.347       16.536        0.278      343.341       19.386      865.712
07/22/2014  07:51:00      -12.400      -48.348       -0.621       14.129        8.338       21.943      199.617       69.521      481.485        0.162        0.038       49.913       13.545        0.074      343.258       19.244      865.735
07/22/2014  07:52:00        0.967      -33.323       -6.983        7.514       10.760       12.856       56.459      115.775      165.288        0.075        0.017       33.337        9.189        0.076      343.274       19.271      865.756
07/22/2014  07:53:00      -12.313       -2.480       -4.880       17.128       15.374       10.097      293.366      236.363      101.950        0.041        0.032       12.560        4.065        0.105      343.423       19.524      865.762
07/22/2014  07:54:00      -39.605       28.275       -3.671       14.046        8.599        6.690      197.298       73.948       44.758        0.135        0.016       48.662        4.084        0.007      343.291       19.297      865.756
07/22/2014  07:55:00      -32.713       20.706       -2.612       10.932        9.431        6.247      119.504       88.948       39.024        0.088        0.012       38.715        2.616        0.005      343.303       19.315      865.764
07/22/2014  07:56:00      -25.292        4.777        6.723        8.980        8.887        7.384       80.646       78.978       54.527        0.046        0.011       25.739        6.103        0.056      343.374       19.441      865.771
07/22/2014  07:57:00      -20.703       10.140        3.002        9.351        6.081        6.001       87.444       36.984       36.013        0.035        0.008       23.053        5.527        0.057      343.393       19.477      865.760
07/22/2014  07:58:00      -37.562        3.221       -1.759       10.620        7.118        6.020      112.784       50.661       36.240        0.081        0.010       37.700        2.326        0.004      343.362       19.419      865.767
07/22/2014  07:59:00      -30.811       -9.425       -3.875        7.227       11.422        5.328       52.231      130.461       28.388        0.063        0.011       32.220        3.522        0.012      343.385       19.457      865.782
07/22/2014  08:00:00      -31.287      -26.018       -2.400       14.997       16.386        9.974      224.919      268.499       99.475        0.113        0.030       40.691        7.838        0.037      343.416       19.512      865.790
07/22/2014  08:01:00      -10.190      -22.345       -0.697       14.067        7.548       14.271      197.872       56.969      203.651        0.053        0.023       24.558       10.877        0.196      343.469       19.604      865.806
07/22/2014  08:02:00      -17.587      -15.876        0.938        7.995        6.911        6.733       63.922       47.764       45.329        0.036        0.008       23.693        4.727        0.040      343.483       19.627      865.821
07/22/2014  08:03:00      -11.659       -1.100        3.630        7.735        8.494        9.110       59.832       72.148       82.988        0.018        0.011       11.711        6.406        0.299      343.635       19.886      865.816
07/22/2014  08:04:00      -31.461       13.799        7.368       10.194       16.645        9.961      103.919      277.042       99.217        0.086        0.024       34.354        7.856        0.052      343.463       19.591      865.819
07/22/2014  08:05:00      -34.460      -16.756        2.599       13.991       21.300       16.698      195.746      453.699      278.822        0.120        0.046       38.318       12.247        0.102      343.501       19.657      865.824
07/22/2014  08:06:00      -42.733        5.775       -0.562        8.237       12.937        8.939       67.848      167.364       79.906        0.109        0.016       43.121        5.471        0.016      343.485       19.631      865.827
07/22/2014  08:07:00      -26.698        7.148        1.860       19.952        6.655       12.116      398.067       44.289      146.800        0.068        0.029       27.639        7.032        0.065      343.599       19.824      865.832
07/22/2014  08:08:00      -18.497       15.123        8.663       17.387       11.285        8.930      302.295      127.347       79.738        0.058        0.025       23.892        6.822        0.082      343.697       19.990      865.825
07/22/2014  08:09:00       -3.379      -13.327       11.715       19.183       25.192       13.320      367.976      634.628      177.433        0.075        0.059       13.749       16.407        1.424      343.683       19.966      865.815
07/22/2014  08:10:00      -16.886      -25.514       -0.031        9.685       13.384        7.728       93.792      179.123       59.716        0.063        0.017       30.596        4.795        0.025      343.536       19.718      865.803
07/22/2014  08:11:00       -4.710        1.341        5.802        5.871        6.403        8.101       34.463       41.004       65.622        0.010        0.007        4.897        3.065        0.392      343.925       20.380      865.791
07/22/2014  08:12:00      -24.780       13.710        5.290       10.328        7.837        7.689      106.675       61.423       59.119        0.053        0.011       28.320        5.337        0.036      343.616       19.853      865.806
07/22/2014  08:13:00        0.354        2.794       13.099       16.755       10.386        7.098      280.745      107.875       50.380        0.031        0.022        2.817        6.752        5.746      344.076       20.639      865.817
07/22/2014  08:14:00       -8.874       -1.616       13.787       17.920       15.894       13.788      321.131      252.615      190.116        0.052        0.038        9.020        6.255        0.481      343.994       20.499      865.840
07/22/2014  08:15:00      -14.159        6.006       13.902       14.902       23.236       23.292      222.075      539.916      542.538        0.087        0.065       15.381       10.687        0.483      343.975       20.466      865.846
07/22/2014  08:16:00       11.844       28.995       41.317       25.041       24.467       14.648      627.076      598.634      214.564        0.206        0.072       31.321       13.018        0.173      344.075       20.636      865.858
07/22/2014  08:17:00       10.020      -40.521       -1.585       24.827       29.080       21.174      616.377      845.627      448.333        0.183        0.096       41.742       16.855        0.163      343.695       19.989      865.840
07/22/2014  08:18:00       19.492      -43.049        5.263       23.093       26.741       19.494      533.304      715.060      380.020        0.194        0.081       47.256       14.345        0.092      343.840       20.235      865.827
07/22/2014  08:19:00       -2.372       38.179       43.372       16.759       28.958       13.157      280.880      838.561      173.109        0.232        0.065       38.252        8.572        0.050      344.029       20.558      865.827
07/22/2014  08:20:00        6.523       15.449       32.782       17.611       38.018       18.138      310.149     1445.341      329.004        0.172        0.104       16.769       12.385        0.545      343.991       20.493      865.825
07/22/2014  08:21:00       58.278       53.940       43.752       52.425       34.622       27.930     2748.401     1198.669      780.063        0.647        0.236       79.409       15.897        0.040      343.855       20.260      865.818
07/22/2014  08:22:00      104.296       63.291       30.650       25.497       23.242       25.075      650.093      540.203      628.780        0.882        0.091      121.998       13.440        0.012      343.673       19.951      865.804
07/22/2014  08:23:00       15.120       33.238       64.911       31.185       43.138       21.243      972.476     1860.887      451.252        0.442        0.164       36.515       20.152        0.305      344.070       20.628      865.803
07/22/2014  08:24:00       44.123       47.962       47.434       37.778       25.258       24.623     1427.163      637.975      606.310        0.458        0.134       65.170       21.672        0.111      343.890       20.322      865.793
07/22/2014  08:25:00       66.334       50.657       19.290       18.593       13.288       21.964      345.689      176.576      482.431        0.417        0.050       83.465        9.433        0.013      343.699       19.993      865.805
07/22/2014  08:26:00       77.573       39.850       19.204       38.649       19.136       32.695     1493.765      366.189     1068.983        0.545        0.146       87.210       25.159        0.083      343.683       19.966      865.814
07/22/2014  08:27:00       74.637       47.838       26.237       24.384       23.000       24.616      594.575      528.983      605.950        0.514        0.086       88.652       19.569        0.049      343.742       20.068      865.809
07/22/2014  08:28:00       33.226       58.145       56.508       29.969       32.581       24.772      898.153     1061.489      613.628        0.513        0.129       66.969       17.897        0.071      344.015       20.533      865.798
07/22/2014  08:29:00       86.971       67.069       24.907       46.779       31.242       35.398     2188.239      976.061     1252.997        0.855        0.221      109.828       21.110        0.037      343.978       20.470      865.775
07/22/2014  08:30:00       21.416       43.617       47.196       39.841       38.901       35.103     1587.304     1513.327     1232.216        0.446        0.217       48.592       17.915        0.136      344.202       20.855      865.771
07/22/2014  08:31:00      105.119       59.781       12.984       40.007       37.007       29.923     1600.558     1369.531      895.392        0.933        0.193      120.929       18.924        0.024      343.823       20.206      865.778
07/22/2014  08:32:00       82.370       53.465       29.932       40.536       38.754       38.374     1643.152     1501.882     1472.547        0.758        0.231       98.201       32.580        0.110      343.851       20.254      865.786
07/22/2014  08:33:00       92.724       49.977       15.652       27.161       25.826       22.845      737.741      666.960      521.884        0.663        0.096      105.334       14.103        0.018      343.808       20.181      865.801
07/22/2014  08:34:00      104.276       58.123       25.233       41.956       28.677       28.348     1760.347      822.348      803.604        0.914        0.169      119.381       18.008        0.023      343.936       20.398      865.811
07/22/2014  08:35:00       88.114       64.343       26.367       35.856       29.536       31.137     1285.673      872.364      969.540        0.786        0.156      109.106       19.807        0.033      343.845       20.244      865.826
07/22/2014  08:36:00       83.873       56.945       -0.456       22.334       22.425       18.588      498.805      502.864      345.496        0.581        0.067      101.377       11.454        0.013      343.761       20.100      865.817
07/22/2014  08:37:00       73.260       55.970        7.474       21.050       14.080       21.623      443.103      198.253      467.543        0.483        0.055       92.194        6.401        0.005      343.895       20.328      865.832
07/22/2014  08:38:00       39.064       43.653       10.722       22.214       14.490       16.748      493.473      209.957      280.498        0.227        0.049       58.580        6.044        0.011      343.906       20.347      865.845
07/22/2014  08:39:00       27.941       16.125       -5.894       13.823       12.052       10.580      191.071      145.260      111.940        0.076        0.022       32.259        7.111        0.049      343.864       20.278      865.871
07/22/2014  08:40:00      -24.614        6.570       -7.769       15.442        6.155       10.774      238.443       37.886      116.090        0.055        0.020       25.475        7.272        0.081      343.973       20.462      865.882
07/22/2014  08:41:00      -31.888       15.932       -6.739       10.845        8.945        8.981      117.620       80.017       80.658        0.080        0.014       35.646        5.862        0.027      343.903       20.342      865.862
07/22/2014  08:42:00      -22.189       32.969      -11.184       15.592       16.713       12.514      243.119      279.319      156.608        0.119        0.034       39.740        7.156        0.032      344.105       20.688      865.827
07/22/2014  08:43:00      -24.285       13.769        6.186       28.788       15.211       14.410      828.727      231.367      207.662        0.104        0.063       27.916       17.687        0.401      344.218       20.881      865.776
07/22/2014  08:44:00       -9.898       11.749       11.665       16.474       21.877       16.405      271.390      478.615      269.109        0.070        0.051       15.363       14.512        0.892      344.385       21.165      865.755
07/22/2014  08:45:00       -3.326       26.845        3.429       12.005       42.603       18.835      144.118     1815.012      354.749        0.153        0.116       27.050       23.627        0.763      344.347       21.101      865.734
07/22/2014  08:46:00      -21.249       24.734        7.507       14.589       18.467       21.889      212.844      341.027      479.134        0.108        0.052       32.608       15.017        0.212      344.391       21.177      865.751
07/22/2014  08:47:00      -34.381       16.603       -5.123       23.997       28.151       14.100      575.877      792.506      198.818        0.153        0.078       38.180        6.129        0.026      344.158       20.776      865.757
07/22/2014  08:48:00      -77.877      -42.773        0.560       42.794       21.244       21.182     1831.317      451.315      448.667        0.531        0.137       88.851       23.641        0.071      344.178       20.812      865.794
07/22/2014  08:49:00     -107.978      -71.092        1.954       55.110       33.177       22.446     3037.091     1100.742      503.834        1.068        0.232      129.280       21.445        0.028      344.126       20.724      865.823
07/22/2014  08:50:00      -94.020      -58.175       -1.251       29.687       25.137       14.991      881.289      631.860      224.738        0.698        0.087      110.562       13.607        0.015      344.088       20.658      865.842
07/22/2014  08:51:00      -77.554      -36.954       -0.679       29.615       24.071       14.909      877.051      579.417      222.269        0.453        0.084       85.908       10.230        0.014      344.158       20.779      865.820
07/22/2014  08:52:00      -14.962      -27.146        8.246       35.048       22.707       17.896     1228.392      515.614      320.279        0.155        0.103       30.996       16.140        0.271      344.465       21.302      865.811
07/22/2014  08:53:00      -52.779      -30.654        8.473       25.958       22.338       16.943      673.799      499.007      287.052        0.263        0.073       61.035       15.604        0.065      344.244       20.926      865.798
07/22/2014  08:54:00      -53.904      -44.042       -0.622       37.816       26.162       20.255     1430.046      684.437      410.278        0.368        0.126       69.608       15.120        0.047      344.393       21.181      865.800
07/22/2014  08:55:00      -33.233      -50.390        2.762       27.353       32.949       19.398      748.198     1085.668      376.299        0.293        0.111       60.362       20.298        0.113      344.422       21.229      865.810
07/22/2014  08:56:00      -26.033      -41.078       11.138       36.562       36.990       23.499     1336.765     1368.265      552.186        0.287        0.163       48.633       27.781        0.326      344.622       21.570      865.809
07/22/2014  08:57:00      -32.901      -36.052        5.814       28.480       35.759       23.585      811.135     1278.728      556.229        0.253        0.132       48.808       21.116        0.187      344.452       21.283      865.820
07/22/2014  08:58:00      -50.617      -30.382        6.704       34.209       32.339       22.593     1170.241     1045.805      510.444        0.313        0.136       59.035       18.913        0.103      344.498       21.359      865.826
07/22/2014  08:59:00      -51.279      -56.292        2.272       28.624       12.078       16.510      819.352      145.885      272.571        0.352        0.062       76.147       15.278        0.040      344.303       21.025      865.840
07/22/2014  09:00:00      -13.590      -91.945      -12.092       19.864       26.397       20.761      394.591      696.824      431.002        0.515        0.076       92.944        3.473        0.001      344.248       20.932      865.842
07/22/2014  09:01:00      -22.558      -51.757        5.158       49.868       26.355       20.703     2486.789      694.576      428.602        0.341        0.180       56.459       14.247        0.064      344.518       21.393      865.831
07/22/2014  09:02:00      -53.010      -17.345       -1.168       27.266       23.287       14.176      743.458      542.295      200.971        0.230        0.074       55.775       14.733        0.070      344.460       21.296      865.828
07/22/2014  09:03:00      -44.512      -16.595       -2.419       12.385       24.383       13.142      153.395      594.547      172.717        0.159        0.046       47.505        5.208        0.012      344.455       21.286      865.816
07/22/2014  09:04:00      -29.006      -11.906       -1.098       12.140        6.987        8.167      147.381       48.817       66.705        0.062        0.013       31.354        7.388        0.056      344.427       21.236      865.814
07/22/2014  09:05:00       -9.753       -3.242      -11.033        8.899        8.302        8.671       79.197       68.916       75.192        0.023        0.011       10.278        5.094        0.246      344.779       21.840      865.812
07/22/2014  09:06:00      -21.447        1.562       -0.499       13.401        9.547       10.453      179.578       91.146      109.275        0.042        0.019       21.504        7.148        0.110      344.575       21.492      865.817
07/22/2014  09:07:00      -11.624       -1.190        1.090        7.851       12.951        8.552       61.637      167.739       73.129        0.022        0.015       11.685        6.654        0.324      344.659       21.636      865.831
07/22/2014  09:08:00       -7.745        2.185        3.822       16.844       29.034       17.009      283.722      842.992      289.315        0.075        0.071        8.048       10.913        1.839      345.072       22.343      865.842
07/22/2014  09:09:00      -10.178      -59.068       -0.085       18.716       21.854       14.197      350.279      477.587      201.547        0.231        0.051       59.939       11.034        0.034      344.503       21.369      865.861
07/22/2014  09:10:00        2.855      -20.469       11.701       22.845       30.803       25.984      521.891      948.822      675.148        0.135        0.107       20.667       19.355        0.877      345.080       22.356      865.865
07/22/2014  09:11:00      -36.405       36.213       30.015       42.844       22.827       25.262     1835.623      521.095      638.144        0.327        0.150       51.349       28.347        0.305      345.197       22.557      865.888
07/22/2014  09:12:00      -90.260        4.679      -10.596       24.127       22.540       14.248      582.111      508.038      203.004        0.479        0.065       90.381       12.859        0.020      344.604       21.541      865.918
07/22/2014  09:13:00      -80.977       22.539        3.342       16.898       23.557       18.631      285.543      554.945      347.110        0.413        0.059       84.055        8.007        0.009      344.624       21.574      865.935
07/22/2014  09:14:00      -38.912      -32.084       -3.686       18.470       13.567       12.323      341.138      184.057      151.859        0.162        0.034       50.433       11.122        0.049      344.701       21.708      865.949
07/22/2014  09:15:00      -20.588      -12.681       -6.892       13.902       19.743        8.564      193.277      389.773       73.339        0.064        0.033       24.180       10.078        0.174      344.855       21.970      865.948
07/22/2014  09:16:00      -47.279      -17.512        7.347       46.287       44.645       24.064     2142.497     1993.162      579.056        0.365        0.236       50.418       24.759        0.241      345.067       22.333      865.959
07/22/2014  09:17:00      -46.213      -29.243        5.038       44.369       37.959       23.863     1968.620     1440.876      569.432        0.350        0.199       54.688       20.866        0.146      344.995       22.210      865.970
07/22/2014  09:18:00      -16.179      -92.326       -0.282       20.976       32.269       13.284      440.010     1041.312      176.468        0.522        0.083       93.733       10.598        0.013      344.661       21.637      865.970
07/22/2014  09:19:00      -33.442      -86.931       -2.084       26.835       17.320       14.869      720.138      299.980      221.077        0.496        0.062       93.142        9.027        0.009      344.601       21.535      865.964
07/22/2014  09:20:00      -15.146     -123.646        2.542       33.644       40.785       18.209     1131.901     1663.380      331.562        0.932        0.156      124.570       13.675        0.012      344.699       21.703      865.940
07/22/2014  09:21:00      -31.374      -55.727       11.491       44.522       55.317       30.302     1982.196     3060.006      918.230        0.509        0.298       63.951       29.170        0.208      345.106       22.400      865.912
07/22/2014  09:22:00      -43.207      -45.262        3.958       33.910       29.720       25.359     1149.880      883.266      643.080        0.330        0.134       62.574       24.507        0.153      344.877       22.006      865.893
07/22/2014  09:23:00      -57.291       -9.647      -10.081       26.137       10.120       15.053      683.150      102.423      226.589        0.224        0.051       58.098       16.259        0.078      344.826       21.920      865.866
07/22/2014  09:24:00      -42.803       17.764       -0.814       14.094       21.043       14.322      198.644      442.805      205.124        0.150        0.042       46.343        9.354        0.041      344.907       22.059      865.865
07/22/2014  09:25:00      -64.010       -4.951        0.497       27.379       32.157       17.576      749.636     1034.054      308.906        0.311        0.105       64.202       14.572        0.052      344.946       22.125      865.874
07/22/2014  09:26:00     -104.690      -48.442      -18.863       23.829       35.264       15.900      567.807     1243.568      252.801        0.786        0.103      115.354        9.217        0.006      344.906       22.059      865.903
07/22/2014  09:27:00      -86.364        3.572      -10.106       18.681       19.785       12.651      348.978      391.438      160.041        0.424        0.045       86.438        4.191        0.002      344.905       22.058      865.915
07/22/2014  09:28:00      -75.158      -12.687       -1.329       34.827       52.962       25.504     1212.952     2804.955      650.454        0.524        0.233       76.221       30.558        0.161      345.098       22.388      865.914
07/22/2014  09:29:00      -78.923       -4.587        1.378       32.810       32.124       23.936     1076.470     1031.942      572.951        0.447        0.134       79.056       21.415        0.073      345.152       22.478      865.902
07/22/2014  09:30:00      -60.846      -27.791       -2.128       34.031       29.716       23.222     1158.110      883.019      539.277        0.353        0.129       66.892       20.129        0.091      345.260       22.663      865.892
07/22/2014  09:31:00      -66.779      -33.034       -1.405       36.738       44.124       17.472     1349.697     1946.952      305.266        0.458        0.180       74.503       19.407        0.068      345.244       22.635      865.891
07/22/2014  09:32:00      -84.649      -32.667       10.441       57.434       40.978       26.688     3298.698     1679.208      712.239        0.701        0.285       90.734       22.351        0.061      345.318       22.763      865.881
07/22/2014  09:33:00     -112.260     -110.167       -5.737       79.899       64.204       40.742     6383.904     4122.127     1659.915        1.847        0.608      157.287       42.620        0.073      345.125       22.431      865.880
07/22/2014  09:34:00     -125.707     -100.834       -1.158       39.968       49.815       25.200     1597.426     2481.508      635.049        1.534        0.236      161.151       17.698        0.012      345.030       22.270      865.875
07/22/2014  09:35:00     -130.233     -127.938       -4.594       44.261       58.832       30.101     1959.006     3461.205      906.075        1.984        0.316      182.562       25.876        0.020      345.033       22.273      865.875
07/22/2014  09:36:00      -78.548      -89.747        6.446       50.547       44.256       31.097     2555.033     1958.638      967.001        0.987        0.274      119.266       26.531        0.049      345.085       22.364      865.889
07/22/2014  09:37:00     -140.663     -127.758       -5.939       95.429       48.667       40.956     9106.632     2368.450     1677.418        2.465        0.658      190.022       39.603        0.043      345.290       22.714      865.872
07/22/2014  09:38:00     -146.571      -78.711      -11.058       83.242       59.898       32.798     6929.276     3587.785     1075.684        1.969        0.580      166.368       24.499        0.022      345.235       22.618      865.883
07/22/2014  09:39:00     -148.220      -38.305       -8.055       70.299       26.405       21.988     4941.884      697.243      483.475        1.481        0.306      153.089       24.855        0.026      345.253       22.649      865.874
07/22/2014  09:40:00      -91.833      -18.344       -4.884       85.850       68.986       27.165     7370.251     4759.031      737.944        1.083        0.643       93.647       28.794        0.095      345.281       22.699      865.872
07/22/2014  09:41:00      -68.659      -99.948        7.658       82.854       67.422       43.158     6864.755     4545.703     1862.651        1.401        0.664      121.258       44.829        0.137      345.705       23.426      865.847
07/22/2014  09:42:00      -72.679     -180.104      -15.538       48.196       54.881       33.033     2322.885     3011.930     1091.153        2.219        0.321      194.216       23.822        0.015      345.370       22.849      865.839
07/22/2014  09:43:00      -32.455      -93.899      -10.333       48.183       44.749       32.171     2321.641     2002.499     1034.949        0.767        0.268       99.350       26.021        0.069      345.511       23.092      865.828
07/22/2014  09:44:00      -43.455      -57.914        9.392       53.293       47.819       26.878     2840.116     2286.636      722.453        0.559        0.292       72.404       32.267        0.199      345.619       23.278      865.816
07/22/2014  09:45:00      -70.963      -96.414        0.737       58.990       64.692       33.420     3479.875     4185.053     1116.905        1.156        0.439      119.714       27.489        0.053      345.481       23.043      865.798
07/22/2014  09:46:00      -33.786      -79.183        4.914       55.537       51.139       36.639     3084.401     2615.156     1342.438        0.724        0.352       86.090       29.510        0.118      345.562       23.181      865.776
07/22/2014  09:47:00      -99.845     -100.021        6.135       67.477       56.786       37.586     4553.131     3224.623     1412.709        1.460        0.460      141.326       32.686        0.053      345.625       23.289      865.762
07/22/2014  09:48:00      -37.202      -36.221       10.733       36.255       27.329       22.281     1314.419      746.871      496.451        0.268        0.128       51.923       20.866        0.161      345.580       23.213      865.754
07/22/2014  09:49:00      -19.811       60.223       -5.214       47.423       40.523       24.165     2248.899     1642.144      583.923        0.426        0.224       63.398       11.162        0.031      345.557       23.171      865.748
07/22/2014  09:50:00       54.852       68.921        6.991       26.810       45.929       37.676      718.794     2109.468     1419.483        0.603        0.212       88.084       21.655        0.060      345.817       23.619      865.738
07/22/2014  09:51:00       55.594       66.393       -4.682       47.813       39.711       34.720     2286.052     1576.989     1205.454        0.629        0.253       86.595       20.666        0.057      345.917       23.791      865.724
07/22/2014  09:52:00       21.212       26.519       26.560       38.245       30.170       26.812     1462.668      910.217      718.877        0.247        0.155       33.958       14.776        0.189      346.064       24.043      865.723
07/22/2014  09:53:00      -39.868       -5.456        2.959       21.904       21.883       17.662      479.788      478.875      311.947        0.145        0.064       40.240       10.352        0.066      346.331       24.501      865.720
07/22/2014  09:54:00      -93.409      -25.593       -0.796       60.765       60.780       29.855     3692.386     3694.246      891.294        0.883        0.414       96.851       31.531        0.106      346.020       23.969      865.716
07/22/2014  09:55:00      -98.084      -80.777        8.288      114.219       66.286       38.160    13045.953     4393.835     1456.183        1.755        0.945      127.064       39.413        0.096      345.873       23.715      865.718
07/22/2014  09:56:00     -131.388      -98.638       -5.066      123.777      144.294       52.094    15320.729    20820.697     2713.786        3.293        1.943      164.293       43.281        0.069      345.680       23.380      865.720
07/22/2014  09:57:00     -154.641     -154.834       -6.320       96.418       91.188       39.126     9296.402     8315.206     1530.815        3.353        0.957      218.832       35.127        0.026      345.728       23.463      865.719
07/22/2014  09:58:00     -134.792      -94.935        4.902       63.567       63.369       30.555     4040.739     4015.656      933.636        1.810        0.450      164.869       34.353        0.043      345.770       23.537      865.731
07/22/2014  09:59:00     -164.932     -116.909       -5.225       59.381       53.466       34.549     3526.076     2858.630     1193.659        2.424        0.379      202.164       34.285        0.029      345.672       23.366      865.727
07/22/2014  10:00:00     -128.679      -41.782       -7.409       41.556       38.874       25.707     1726.936     1511.218      660.828        1.113        0.195      135.292       18.980        0.020      345.703       23.423      865.719
07/22/2014  10:01:00      -82.898      -48.568        5.089       40.769       44.367       20.537     1662.131     1968.413      421.785        0.665        0.203       96.078       20.407        0.045      345.835       23.650      865.715
07/22/2014  10:02:00     -158.675       -6.041       -1.306       60.804       70.853       36.289     3697.128     5020.079     1316.905        1.762        0.502      158.790       31.276        0.039      345.970       23.882      865.711
07/22/2014  10:03:00     -128.890       10.931      -18.942       46.928       40.145       20.174     2202.263     1611.648      406.994        1.066        0.211      129.353       22.485        0.030      345.717       23.448      865.706
07/22/2014  10:04:00      -81.350      -23.782        0.882       51.618       43.493       38.800     2664.409     1891.615     1505.406        0.662        0.303       84.755       35.909        0.180      346.255       24.372      865.695
07/22/2014  10:05:00      -96.528      -91.040        9.852       63.308       95.998       34.605     4007.907     9215.682     1197.504        1.606        0.721      132.688       30.031        0.051      346.071       24.053      865.701
07/22/2014  10:06:00      -54.180      -44.489       14.705       75.762       41.557       36.346     5739.947     1726.949     1321.013        0.696        0.439       70.105       38.476        0.301      346.178       24.238      865.684
07/22/2014  10:07:00     -111.229      -41.499       -7.515       50.297       63.549       27.293     2529.822     4038.488      744.887        1.073        0.366      118.719       26.594        0.050      346.017       23.963      865.686
07/22/2014  10:08:00      -54.611       70.021        2.384       34.665       34.038       31.936     1201.690     1158.565     1019.896        0.563        0.169       88.799       21.002        0.056      346.346       24.529      865.672
07/22/2014  10:09:00      -20.821       32.870       31.023       34.501       39.578       24.850     1190.317     1566.410      617.509        0.292        0.169       38.909       25.216        0.420      347.437       26.408      865.655
07/22/2014  10:10:00      -24.954      -16.936        7.510       32.961       25.032       20.931     1086.440      626.624      438.118        0.156        0.108       30.158       15.151        0.252      346.670       25.085      865.657
07/22/2014  10:11:00      -70.436      -19.978       -3.637       28.223       43.897       25.618      796.563     1926.977      656.297        0.438        0.169       73.215       21.367        0.085      346.255       24.372      865.650
07/22/2014  10:12:00      -20.545       22.105        8.064       40.314       41.467       28.727     1625.245     1719.553      825.240        0.257        0.209       30.178       26.611        0.778      346.642       25.036      865.640
07/22/2014  10:13:00      -43.917      -41.966       -4.467       36.500       38.282       21.437     1332.257     1465.521      459.551        0.348        0.163       60.744       12.145        0.040      346.228       24.324      865.641
07/22/2014  10:14:00      -74.343      -73.826       -8.487       49.282       62.883       32.132     2428.688     3954.335     1032.449        0.923        0.371      104.772       17.959        0.029      346.062       24.039      865.645
07/22/2014  10:15:00      -62.088      -30.578       -2.955       24.758       32.514       27.833      612.962     1057.165      774.656        0.362        0.122       69.209       16.796        0.059      346.227       24.322      865.657
07/22/2014  10:16:00      -37.628       35.754       18.564       43.182       20.316       22.718     1864.644      412.736      516.103        0.292        0.140       51.906       28.146        0.294      346.533       24.849      865.647
07/22/2014  10:17:00       74.939       94.058       53.953       45.977       47.993       38.575     2113.919     2303.341     1488.064        1.164        0.295      120.261       23.712        0.039      346.623       25.002      865.629
07/22/2014  10:18:00       90.038       99.539       76.516       49.884       34.481       50.841     2488.431     1188.906     2584.792        1.506        0.313      134.220       28.736        0.046      346.277       24.410      865.611
07/22/2014  10:19:00      110.031       54.801       14.015       63.567       49.534       35.742     4040.796     2453.612     1277.501        1.154        0.389      122.923       29.575        0.058      346.495       24.785      865.595
07/22/2014  10:20:00      168.786      100.558       25.515       51.761       44.017       42.642     2679.252     1937.533     1818.319        2.284        0.322      196.471       18.867        0.009      346.314       24.469      865.578
07/22/2014  10:21:00       87.011       86.771       28.875       82.759       52.746       58.747     6848.993     2782.118     3451.267        1.451        0.654      122.883       24.492        0.040      346.793       25.295      865.553
07/22/2014  10:22:00      114.208       38.206       13.165       73.264       55.358       48.988     5367.644     3064.511     2399.821        1.275        0.542      120.429       21.790        0.033      346.750       25.221      865.560
07/22/2014  10:23:00       35.804      -95.184       13.076       54.820       60.344       35.479     3005.207     3641.358     1258.747        0.921        0.395      101.696       35.488        0.122      346.847       25.390      865.579
07/22/2014  10:24:00       15.795     -101.533       -5.591       59.542       90.205       44.210     3545.248     8136.922     1954.544        1.211        0.682      102.754       43.462        0.179      346.436       24.682      865.585
07/22/2014  10:25:00      -39.186      -17.328       33.421       81.885       84.344       50.335     6705.079     7113.842     2533.655        0.965        0.818       42.847       52.194        1.484      346.956       25.578      865.557
07/22/2014  10:26:00       24.053     -103.053       -1.037       78.955       65.206       49.235     6233.941     4251.887     2424.110        1.205        0.645      105.823       36.842        0.121      346.776       25.268      865.566
07/22/2014  10:27:00      -23.192       -8.788       48.937       46.285       53.066       35.657     2142.320     2816.004     1271.407        0.462        0.311       24.801       33.710        1.848      347.368       26.288      865.561
07/22/2014  10:28:00      -63.086      -86.943      -16.005       98.731       61.907       47.563     9747.832     3832.468     2262.227        1.382        0.792      107.420       29.527        0.076      346.721       25.172      865.559
07/22/2014  10:29:00      -97.902      -59.997      -20.041       49.229       75.411       35.259     2423.501     5686.841     1243.190        1.147        0.468      114.823       16.115        0.020      346.168       24.222      865.557
07/22/2014  10:30:00      -63.345      -28.345       17.279       80.051       56.492       38.832     6408.141     3191.390     1507.905        0.811        0.555       69.398       48.035        0.479      346.915       25.507      865.543
07/22/2014  10:31:00      -45.420      -11.379       12.921       52.595       57.078       35.136     2766.262     3257.926     1234.551        0.481        0.363       46.824       19.899        0.181      346.652       25.053      865.521
07/22/2014  10:32:00      -80.169      -12.315      -24.834       49.471       43.921       40.596     2447.342     1929.075     1648.027        0.661        0.301       81.110       26.105        0.104      346.547       24.874      865.525
07/22/2014  10:33:00       68.109     -110.809       23.733       62.117      116.398       54.689     3858.572    13548.389     2990.834        1.894        1.020      130.067       60.733        0.218      346.897       25.474      865.485
07/22/2014  10:34:00       17.179       34.998       87.623       81.867      110.159       89.568     6702.143    12134.971     8022.446        1.802        1.343       38.987       91.432        5.500      347.012       25.672      865.472
07/22/2014  10:35:00      -35.028      -60.155       12.125       48.332       56.948       42.361     2336.016     3243.129     1794.415        0.618        0.369       69.610       34.012        0.239      346.894       25.469      865.502
07/22/2014  10:36:00      -51.105      -34.495       12.546       52.017       54.385       26.485     2705.754     2957.757      701.466        0.516        0.318       61.658       34.024        0.305      347.166       25.940      865.516
07/22/2014  10:37:00       17.670      -53.713        9.578      104.259       82.397       63.224    10870.032     6789.346     3997.281        1.247        1.083       56.544       66.787        1.395      347.256       26.092      865.521
07/22/2014  10:38:00      148.009     -245.017      -50.438       87.589       75.083       48.642     7671.776     5637.499     2366.086        5.008        0.784      286.252       43.734        0.023      346.396       24.609      865.514
07/22/2014  10:39:00        1.797      -97.710      -13.531       55.717       64.873       52.081     3104.410     4208.507     2712.382        0.988        0.501       97.726       34.791        0.127      346.859       25.411      865.520
07/22/2014  10:40:00       -6.208      -70.612       -3.665       33.669       62.950       37.966     1133.619     3962.749     1441.452        0.579        0.327       70.885       34.416        0.236      347.107       25.838      865.503
07/22/2014  10:41:00      -35.917       -0.795       11.210       37.162       26.390       28.997     1380.993      696.415      840.837        0.217        0.146       35.926       26.232        0.533      347.534       26.575      865.485
07/22/2014  10:42:00       31.894      -53.870       15.038       38.039       60.856       43.185     1446.931     3703.488     1864.970        0.558        0.351       62.603       40.737        0.423      347.175       25.955      865.451
07/22/2014  10:43:00      113.829       61.418       42.130       45.398       41.882       40.414     2060.975     1754.118     1633.261        1.198        0.272      129.341       28.968        0.050      346.542       24.866      865.437
07/22/2014  10:44:00       34.614       38.261       56.063       42.389       51.241       39.580     1796.832     2625.669     1566.581        0.590        0.299       51.594       19.856        0.148      346.835       25.369      865.404
07/22/2014  10:45:00       71.840       81.393       93.107       51.402       60.010       42.090     2642.201     3601.190     1771.566        1.423        0.401      108.562       37.404        0.119      346.575       24.922      865.412
07/22/2014  10:46:00       59.059       19.400       42.657       58.297       36.967       33.431     3398.589     1366.575     1117.654        0.578        0.294       62.164       28.373        0.208      346.737       25.199      865.421
07/22/2014  10:47:00       31.383       15.049       75.354       46.076       59.737       43.667     2123.035     3568.507     1906.797        0.724        0.380       34.804       32.300        0.861      346.968       25.598      865.428
07/22/2014  10:48:00       24.248       25.742       76.856       45.736       57.839       41.960     2091.795     3345.307     1760.613        0.718        0.360       35.364       33.321        0.888      347.107       25.836      865.448
07/22/2014  10:49:00       62.640       59.232       41.558       43.972       21.751       25.524     1933.509      473.101      651.486        0.611        0.153       86.210       18.387        0.045      346.443       24.694      865.462
07/22/2014  10:50:00       34.983       88.482       -1.638       34.425       47.154       28.658     1185.046     2223.519      821.254        0.664        0.211       95.146       25.013        0.069      346.321       24.485      865.467
07/22/2014  10:51:00      -67.903       52.910      -18.813       34.590       42.926       15.213     1196.497     1842.613      231.446        0.552        0.164       86.083       15.403        0.032      346.185       24.251      865.458
07/22/2014  10:52:00      -47.145      -49.281        5.215       56.300       48.573       31.125     3169.678     2359.353      968.761        0.559        0.325       68.200       26.057        0.146      346.568       24.910      865.434
07/22/2014  10:53:00       17.466      -78.136        7.283       55.377       65.176       38.625     3066.621     4247.856     1491.915        0.763        0.440       80.065       33.749        0.178      346.908       25.494      865.438
07/22/2014  10:54:00        4.248      -83.612        4.677       50.323       49.050       41.107     2532.362     2405.925     1689.762        0.683        0.331       83.720       31.367        0.140      346.776       25.268      865.440
07/22/2014  10:55:00       57.895       45.890       61.015       53.885       74.463       50.627     2903.581     5544.725     2563.086        1.009        0.551       73.877       47.568        0.415      346.976       25.612      865.423
07/22/2014  10:56:00      126.966       83.481       24.297       78.296       58.972       50.942     6130.237     3477.753     2595.062        1.794        0.610      151.952       39.849        0.069      346.967       25.595      865.419
07/22/2014  10:57:00      101.829       84.990       30.742       98.725       54.326       52.021     9746.627     2951.340     2706.135        1.697        0.770      132.637       48.337        0.133      347.012       25.673      865.424
07/22/2014  10:58:00       31.391       28.556        5.851       68.093       54.225       36.423     4636.659     2940.344     1326.657        0.537        0.445       42.437       28.339        0.446      347.247       26.078      865.403
07/22/2014  10:59:00      129.504       93.838       15.076       40.135       45.727       43.045     1610.853     2090.916     1852.830        1.568        0.278      159.927       23.359        0.021      347.242       26.070      865.394
07/22/2014  11:00:00      124.613       85.411       19.127       68.544       46.865       45.836     4698.234     2196.348     2100.983        1.609        0.450      151.074       23.997        0.025      346.846       25.386      865.388
07/22/2014  11:01:00      149.488       99.768       60.877      118.847       81.986       44.999    14124.519     6721.775     2024.867        2.943        1.144      179.723       28.913        0.026      346.763       25.243      865.381
07/22/2014  11:02:00       49.956       58.355        6.327       59.278       48.016       40.587     3513.881     2305.503     1647.270        0.670        0.373       76.817       17.927        0.054      347.133       25.882      865.387
07/22/2014  11:03:00       49.464       49.647       10.114       46.550       35.721       32.940     2166.937     1275.972     1085.052        0.477        0.226       70.082       15.967        0.052      347.056       25.749      865.384
07/22/2014  11:04:00       81.743        9.142       -4.155      102.084       60.733       46.350    10421.197     3688.512     2148.280        1.152        0.813       82.253       34.504        0.176      346.964       25.588      865.375
07/22/2014  11:05:00      178.105      106.485       18.676       86.509       76.009       60.708     7483.860     5777.389     3685.418        3.017        0.847      207.510       25.518        0.015      346.728       25.180      865.370
07/22/2014  11:06:00       57.456       77.953       67.074       69.802       56.667       73.629     4872.301     3211.096     5421.295        1.369        0.675       96.840       58.217        0.361      346.959       25.582      865.358
07/22/2014  11:07:00       48.476       -1.062       51.858       77.880      116.314       69.061     6065.247    13528.986     4769.375        1.470        1.218       48.488       66.775        1.897      346.908       25.494      865.352
07/22/2014  11:08:00       59.517       48.635       55.342       64.586       81.331       52.274     4171.366     6614.723     2732.538        1.124        0.676       76.861       46.094        0.360      347.189       25.977      865.341
07/22/2014  11:09:00       73.197       67.549       83.944       76.096       60.279       58.777     5790.537     3633.608     3454.775        1.492        0.644       99.603       38.032        0.146      346.975       25.609      865.341
07/22/2014  11:10:00      165.429      106.288        6.163       44.623       45.535       43.590     1991.219     2073.462     1900.076        2.233        0.298      196.631       21.983        0.012      346.667       25.078      865.336
07/22/2014  11:11:00      145.823       43.704       23.659       66.478       67.328       53.377     4419.384     4533.003     2849.147        1.777        0.590      152.232       35.126        0.053      346.883       25.450      865.318
07/22/2014  11:12:00       82.023       42.496       25.595       44.435       42.223       42.095     1974.450     1782.758     1771.969        0.736        0.276       92.378       28.957        0.098      347.173       25.952      865.312
07/22/2014  11:13:00      118.164       65.288       38.182       63.210       49.611       48.058     3995.476     2461.299     2309.567        1.422        0.438      135.001       41.485        0.094      347.530       26.565      865.308
07/22/2014  11:14:00      112.554       89.839       29.440       79.605       56.933       52.326     6336.995     3241.357     2737.995        1.696        0.616      144.012       46.721        0.105      347.273       26.123      865.289
07/22/2014  11:15:00       74.473       53.437       30.349       47.242       34.631       39.354     2231.845     1199.279     1548.738        0.715        0.249       91.661       22.835        0.062      347.154       25.918      865.285
07/22/2014  11:16:00       77.252       57.673       10.135       39.679       31.959       31.794     1574.460     1021.394     1010.857        0.650        0.180       96.406       21.521        0.050      347.145       25.901      865.285
07/22/2014  11:17:00      154.434      105.308       20.901      113.021       79.509       41.215    12773.781     6321.650     1698.652        2.808        1.040      186.921       21.248        0.013      347.244       26.071      865.283
07/22/2014  11:18:00      180.162      138.124       10.452      119.227       75.326       53.394    14215.063     5673.946     2850.948        3.719        1.137      227.017       24.485        0.012      346.901       25.480      865.270
07/22/2014  11:19:00       44.874      116.903       13.417       93.272       94.855       42.641     8699.588     8997.436     1818.230        1.768        0.976      125.219       37.454        0.089      347.249       26.081      865.257
07/22/2014  11:20:00      192.359      123.126       16.215       53.641       53.956       39.245     2877.410     2911.283     1540.187        2.988        0.366      228.390       21.142        0.009      346.854       25.397      865.241
07/22/2014  11:21:00      185.417      115.499       40.071      125.569       95.438       58.336    15767.577     9108.361     3403.142        3.880        1.414      218.448       57.890        0.070      346.955       25.573      865.237
07/22/2014  11:22:00       84.267       80.151      108.014       85.852       87.630       71.213     7370.611     7679.026     5071.313        2.265        1.006      116.297       59.946        0.266      347.266       26.110      865.222
07/22/2014  11:23:00        6.635       24.189       83.639       40.786       77.066       31.233     1663.493     5939.118      975.487        0.810        0.429       25.083       34.829        1.928      347.532       26.570      865.215
07/22/2014  11:24:00       78.362      -28.678       40.820       73.809       92.335       53.446     5447.833     8525.820     2856.507        1.273        0.842       83.445       53.803        0.416      347.484       26.487      865.200
07/22/2014  11:25:00       54.534       56.778       85.535       62.376       77.148       46.027     3890.725     5951.889     2118.456        1.274        0.598       78.726       44.054        0.313      347.682       26.828      865.195
07/22/2014  11:26:00      125.640       78.470       20.271       75.969       67.601       44.035     5771.291     4569.902     1939.088        1.731        0.614      148.132       26.502        0.032      347.103       25.827      865.194
07/22/2014  11:27:00      145.957      109.057       45.884       92.751       64.724       53.535     8602.825     4189.162     2865.970        2.548        0.783      182.200       33.540        0.034      347.185       25.970      865.178
07/22/2014  11:28:00       31.446      -31.503       68.259       64.025       96.342       59.556     4099.220     9281.740     3546.861        1.178        0.846       44.512       54.293        1.488      347.726       26.903      865.160
07/22/2014  11:29:00       81.873       89.168       94.787       74.738       61.137       53.728     5585.815     3737.774     2886.751        1.792        0.611      121.054       40.573        0.112      347.626       26.732      865.167
07/22/2014  11:30:00      161.803       88.006       21.801       99.184       71.188       72.198     9837.510     5067.788     5212.541        2.726        1.006      184.188       64.393        0.122      347.081       25.790      865.157
07/22/2014  11:31:00      103.024       83.679       20.033       66.101       41.143       43.383     4369.351     1692.722     1882.081        1.298        0.397      132.725       25.986        0.038      346.991       25.636      865.150
07/22/2014  11:32:00      127.630      100.619       49.690       70.866       46.133       45.259     5021.943     2128.213     2048.372        1.904        0.460      162.523       33.367        0.042      347.047       25.733      865.125
07/22/2014  11:33:00       61.845       58.359       65.427       71.519       47.533       46.382     5114.998     2259.403     2151.270        1.052        0.476       85.033       36.817        0.187      347.219       26.030      865.107
07/22/2014  11:34:00       17.829      -40.262       19.008       58.703       83.792       33.679     3446.100     7021.062     1134.276        0.695        0.580       44.033       31.051        0.497      347.214       26.023      865.090
07/22/2014  11:35:00       16.038      -22.667       34.375       27.574       57.560       35.724      760.307     3313.101     1276.183        0.365        0.267       27.768       42.854        2.382      347.326       26.215      865.086
07/22/2014  11:36:00      128.518       67.480       22.553       76.944       60.277       47.109     5920.426     3633.328     2219.249        1.667        0.589      145.157       36.675        0.064      347.421       26.376      865.074
07/22/2014  11:37:00      116.895      105.869      131.368       96.144       99.524      103.279     9243.612     9904.969    10666.567        3.597        1.491      157.711       74.176        0.221      347.296       26.161      865.075
07/22/2014  11:38:00      139.062       91.679       83.747      104.212      108.757       73.931    10860.092    11828.177     5465.785        3.145        1.408      166.563       68.024        0.167      347.038       25.716      865.087
07/22/2014  11:39:00       97.358      143.573      124.545       85.098       61.917       57.189     7241.714     3833.679     3270.540        2.997        0.717      173.470       52.254        0.091      347.232       26.049      865.093
07/22/2014  11:40:00       84.787       -8.120       41.851       90.747       53.959       40.060     8234.955     2911.589     1604.796        1.088        0.638       85.175       40.877        0.230      347.200       25.997      865.105
07/22/2014  11:41:00       33.214      129.882      120.304       55.876       54.762       37.721     3122.144     2998.866     1422.866        1.999        0.377      134.061       32.395        0.058      347.188       25.975      865.096
07/22/2014  11:42:00       39.975       48.976       89.110       83.523      108.167       71.497     6976.122    11700.121     5111.776        1.786        1.189       63.219       73.998        1.370      347.502       26.516      865.089
07/22/2014  11:43:00       72.168       43.690      122.224       80.100      106.110       72.094     6415.945    11259.339     5197.515        2.246        1.144       84.362       76.494        0.822      347.507       26.525      865.096
07/22/2014  11:44:00      131.867       49.746       65.146      120.426      105.780       53.719    14502.455    11189.419     2885.760        2.634        1.429      140.939       54.292        0.148      347.386       26.315      865.092
07/22/2014  11:45:00       54.063       36.141       48.658       92.808       55.899       54.457     8613.232     3124.709     2965.557        1.065        0.735       65.031       47.665        0.537      347.509       26.528      865.083
07/22/2014  11:46:00       98.588       44.126       28.683       75.122       56.861       37.531     5643.251     3233.151     1408.598        1.139        0.514      108.012       31.343        0.084      347.318       26.201      865.079
07/22/2014  11:47:00       28.371       62.500       78.345       52.621       51.356       39.728     2768.952     2637.423     1578.292        0.892        0.349       68.638       34.963        0.259      347.747       26.940      865.060
07/22/2014  11:48:00       39.788       39.627       53.202       51.221       40.697       42.851     2623.568     1656.240     1836.245        0.605        0.306       56.155       25.335        0.204      347.613       26.710      865.047
07/22/2014  11:49:00      117.217      102.585       82.474       74.428       71.060       68.827     5539.540     5049.578     4737.216        2.319        0.766      155.767       54.144        0.121      347.534       26.571      865.040
07/22/2014  11:50:00       89.517      -18.599       37.704       61.374      128.174       57.959     3766.708    16428.647     3359.300        1.666        1.178       91.429       64.978        0.505      347.345       26.245      865.035
07/22/2014  11:51:00       49.851      -11.620       22.744       45.033       58.187       31.684     2027.940     3385.744     1003.848        0.478        0.321       51.187       28.582        0.312      347.443       26.416      865.047
07/22/2014  11:52:00       10.245       -6.722       28.965       45.482       41.650       22.160     2068.597     1734.694      491.044        0.264        0.215       12.253       20.540        2.810      347.847       27.114      865.034
07/22/2014  11:53:00       93.369       48.968       36.394       77.939       70.785       44.614     6074.480     5010.509     1990.434        1.276        0.654      105.431       26.915        0.065      347.679       26.821      865.036
07/22/2014  11:54:00      131.462       73.802       52.038       77.423       45.251       51.833     5994.287     2047.696     2686.676        1.808        0.536      150.762       45.139        0.090      347.392       26.327      865.038
07/22/2014  11:55:00       91.390       59.466       39.260       88.920       67.919       57.786     7906.735     4613.037     3339.227        1.464        0.793      109.034       54.808        0.253      347.557       26.612      865.038
07/22/2014  11:56:00       73.363        9.363       32.049       68.943       72.518       40.850     4753.146     5258.901     1668.714        0.909        0.584       73.958       28.102        0.144      347.858       27.131      865.032
07/22/2014  11:57:00       83.886       57.803       42.619       63.497       69.462       48.661     4031.845     4825.028     2367.896        1.171        0.561      101.873       45.328        0.198      347.792       27.019      865.029
07/22/2014  11:58:00       37.571       71.279       79.507       62.971       55.554       65.428     3965.359     3086.247     4280.885        1.207        0.567       80.575       53.517        0.441      347.949       27.290      865.027
07/22/2014  11:59:00      182.659     -144.000      -29.672      101.452      117.296       89.838    10292.550    13758.441     8070.883        4.354        1.606      232.595       94.236        0.164      347.408       26.353      865.001
07/22/2014  12:00:00       76.811      -95.142       44.973       72.070      110.301       71.585     5194.016    12166.323     5124.472        1.973        1.124      122.278       77.210        0.399      347.353       26.260      864.994
07/22/2014  12:01:00       51.427       37.960       92.918       98.085      122.240       89.654     9620.574    14942.685     8037.772        2.265        1.630       63.919       98.871        2.393      347.637       26.749      864.974
07/22/2014  12:02:00      191.001     -217.572      -48.556       49.565       84.332       29.282     2456.660     7111.936      857.437        4.830        0.521      289.515       25.308        0.008      347.045       25.727      864.961
07/22/2014  12:03:00       55.222       19.451       72.766       73.347      117.618       76.392     5379.754    13834.082     5835.755        1.688        1.252       58.547       82.017        1.962      347.638       26.753      864.957
07/22/2014  12:04:00      117.341     -129.262      -15.599       87.829      109.515       75.768     7714.001    11993.615     5740.833        2.808        1.272      174.578       72.584        0.173      347.405       26.349      864.935
07/22/2014  12:05:00       77.375      -89.535       13.762       86.081      129.978       78.515     7410.010    16894.347     6164.535        2.232        1.523      118.336       74.460        0.396      347.507       26.524      864.926
07/22/2014  12:06:00       18.095       14.642       78.146       56.171       86.357       53.948     3155.151     7457.598     2910.333        1.008        0.676       23.277       57.439        6.089      347.877       27.166      864.939
07/22/2014  12:07:00      -24.537      -54.090       28.208       49.137       70.724       54.126     2414.482     5001.925     2929.592        0.733        0.517       59.395       34.968        0.347      347.959       27.308      864.923
07/22/2014  12:08:00       46.494      -88.287        7.687       75.601      109.421       63.634     5715.570    11973.028     4049.253        1.587        1.087       99.781       73.377        0.541      347.674       26.813      864.893
07/22/2014  12:09:00       -9.633     -107.773      -10.670       53.867       71.657       47.327     2901.645     5134.778     2239.845        1.105        0.514      108.203       41.966        0.150      347.683       26.830      864.879
07/22/2014  12:10:00       52.605        7.408       17.109       56.621      103.121       48.485     3205.954    10633.971     2350.814        0.965        0.810       53.124       18.994        0.128      347.773       26.985      864.857
07/22/2014  12:11:00       22.908       83.632        3.110       34.918       34.828       36.998     1219.241     1212.958     1368.859        0.566        0.190       86.712       23.191        0.072      347.794       27.022      864.842
07/22/2014  12:12:00       39.737       17.074       16.171       35.725       44.512       30.415     1276.290     1981.303      925.092        0.316        0.209       43.250       18.531        0.184      348.031       27.432      864.808
07/22/2014  12:13:00       -0.438       16.961       27.368       24.637       23.240       13.681      606.982      540.103      187.170        0.119        0.067       16.967        5.308        0.098      348.640       28.485      864.798
07/22/2014  12:14:00       15.775      -39.495        9.853       40.672       25.544       28.777     1654.227      652.503      828.129        0.252        0.157       42.529       26.256        0.381      347.918       27.236      864.796
07/22/2014  12:15:00        7.062      -78.804        9.859       49.714       34.891       37.730     2471.481     1217.400     1423.531        0.573        0.256       79.120       21.626        0.075      347.751       26.947      864.799
07/22/2014  12:16:00      -51.206     -173.427      -16.087       63.948       66.211       38.504     4089.395     4383.939     1482.552        2.145        0.498      180.829       33.688        0.035      347.329       26.217      864.800
07/22/2014  12:17:00     -113.388      -86.332        4.602       70.117       54.208       35.754     4916.450     2938.550     1278.339        1.473        0.457      142.513       30.597        0.046      347.356       26.265      864.786
07/22/2014  12:18:00     -167.942      -97.934       12.932       91.659       65.947       44.098     8401.326     4348.960     1944.611        2.633        0.735      194.411       36.958        0.036      347.415       26.366      864.748
07/22/2014  12:19:00     -241.494     -188.014      -12.996       84.335       65.452       43.237     7112.435     4283.908     1869.433        5.355        0.663      306.053       44.142        0.021      347.084       25.794      864.741
07/22/2014  12:20:00     -187.564      -87.066      -13.147       45.723       74.634       31.140     2090.572     5570.303      969.721        2.578        0.432      206.786       22.202        0.012      347.147       25.902      864.748
07/22/2014  12:21:00      -96.154       39.429       -3.705       49.450       53.385       25.114     2445.273     2850.005      630.725        0.837        0.296      103.924       17.028        0.027      347.692       26.846      864.741
07/22/2014  12:22:00     -117.056       -3.970       -5.291       41.928       41.242       30.903     1757.965     1700.896      954.969        0.908        0.221      117.123       21.270        0.033      347.563       26.622      864.753
07/22/2014  12:23:00     -100.449      -18.007       -6.360       67.514       39.665       22.753     4558.127     1573.326      517.698        0.855        0.332      102.050       24.106        0.056      347.353       26.260      864.760
07/22/2014  12:24:00      -92.801       37.719       -4.645       56.724       50.628       33.740     3217.614     2563.168     1138.360        0.849        0.346      100.173       39.264        0.154      347.782       27.002      864.745
07/22/2014  12:25:00      -70.026       40.525       -8.398       40.230       25.796       20.198     1618.468      665.414      407.978        0.465        0.135       80.907       23.187        0.082      347.339       26.238      864.723
07/22/2014  12:26:00      -22.015      101.204       16.370       58.811      111.244       43.490     3458.740    12375.158     1891.400        1.436        0.886      103.571       44.876        0.188      347.996       27.371      864.694
07/22/2014  12:27:00       41.180       82.456       10.982       50.221       57.972       50.936     2522.101     3360.789     2594.509        0.854        0.424       92.167       45.366        0.242      347.604       26.696      864.671
07/22/2014  12:28:00       12.375       47.319       16.101       39.168       54.919       32.842     1534.160     3016.043     1078.598        0.414        0.281       48.911       31.534        0.416      348.060       27.481      864.661
07/22/2014  12:29:00       26.636       55.286       23.918       38.495       36.480       36.567     1481.902     1330.754     1337.180        0.424        0.207       61.368       25.358        0.171      348.171       27.673      864.669
07/22/2014  12:30:00       20.968       40.653       24.510       44.384       49.774       39.324     1969.901     2477.470     1546.413        0.434        0.300       45.741       31.242        0.467      348.332       27.951      864.684
07/22/2014  12:31:00       32.474       17.210       20.406       25.522       30.745       32.885      651.397      945.229     1081.412        0.222        0.134       36.752       26.833        0.533      348.347       27.976      864.678
07/22/2014  12:32:00       57.171       38.633       14.840       31.190       26.285       36.589      972.846      690.907     1338.742        0.399        0.150       69.001       11.794        0.029      347.944       27.282      864.684
07/22/2014  12:33:00       26.896      -58.163       12.049       68.219       94.301       54.457     4653.764     8892.680     2965.544        1.038        0.826       64.080       53.789        0.705      347.849       27.115      864.667
07/22/2014  12:34:00       42.650      -72.325       -3.875       63.649       86.345       44.005     4051.179     7455.455     1936.463        1.025        0.672       83.964       49.323        0.345      347.899       27.204      864.649
07/22/2014  12:35:00       71.797     -101.319       26.301       57.008       71.517       48.948     3249.920     5114.690     2395.860        1.343        0.538      124.179       50.003        0.162      348.100       27.549      864.637
07/22/2014  12:36:00       64.374      -88.047        1.396       69.188      104.578       73.598     4786.937    10936.519     5416.685        1.652        1.057      109.071       49.732        0.208      348.409       28.082      864.628
07/22/2014  12:37:00       72.615        7.929       64.801       75.137      144.537      113.906     5645.508    20890.824    12974.613        2.452        1.976       73.046      113.384        2.409      348.180       27.686      864.639
07/22/2014  12:38:00      104.875       68.405       76.923      105.533       96.501       60.299    11137.310     9312.488     3636.024        2.284        1.204      125.212       58.702        0.220      347.821       27.067      864.637
07/22/2014  12:39:00      170.332      104.738      103.129       92.572       89.831       75.275     8569.583     8069.569     5666.295        3.646        1.115      199.958       64.214        0.103      347.672       26.807      864.630
07/22/2014  12:40:00      110.885      144.212      145.180       90.763       56.219       57.416     8237.938     3160.533     3296.625        3.443        0.735      181.914       40.184        0.049      347.914       27.225      864.610
07/22/2014  12:41:00       57.447       -8.017       43.775       83.226      106.757       63.102     6926.637    11396.996     3981.872        1.379        1.115       58.004       65.468        1.274      348.004       27.383      864.615
07/22/2014  12:42:00       36.826      -78.055        5.987      105.833       91.452       57.138    11200.720     8363.382     3264.771        1.515        1.141       86.306       62.756        0.529      348.521       28.278      864.621
07/22/2014  12:43:00      159.652     -187.068      -17.302       97.145       91.271       65.557     9437.071     8330.438     4297.700        4.142        1.103      245.933       49.056        0.040      347.804       27.035      864.620
07/22/2014  12:44:00      134.457     -141.273        5.817       77.380      115.371       62.376     5987.628    13310.533     3890.813        3.063        1.159      195.030       75.825        0.151      347.932       27.258      864.612
07/22/2014  12:45:00       44.963        7.443       32.720       53.351       45.683       41.768     2846.369     2086.901     1744.531        0.491        0.334       45.575       21.813        0.229      348.199       27.722      864.596
07/22/2014  12:46:00       -4.124      -14.990       26.024       27.520       44.237       33.948      757.327     1956.884     1152.488        0.239        0.193       15.547       18.497        1.415      348.660       28.519      864.577
07/22/2014  12:47:00       91.357      -20.114       48.920       79.059       72.829       52.830     6250.377     5304.128     2791.050        1.274        0.717       93.545       45.490        0.236      348.273       27.850      864.552
07/22/2014  12:48:00       49.552        6.162       39.774       60.859       38.279       40.996     3703.772     1465.315     1680.645        0.546        0.342       49.934       31.234        0.391      348.440       28.138      864.543
07/22/2014  12:49:00       28.705      -26.235       34.590       44.775       52.552       40.077     2004.790     2761.753     1606.143        0.454        0.319       38.887       34.833        0.802      348.143       27.623      864.518
07/22/2014  12:50:00       54.478       86.190       77.466       59.505       69.166       47.848     3540.870     4783.971     2289.386        1.350        0.531      101.964       41.627        0.167      348.151       27.639      864.483
07/22/2014  12:51:00      181.029      112.359       51.197       93.971       54.781       52.967     8830.555     3000.998     2805.513        3.132        0.732      213.063       27.635        0.017      347.611       26.704      864.496
07/22/2014  12:52:00       73.697      -60.670       18.978       69.332       55.417       38.975     4806.980     3071.086     1519.018        0.943        0.470       95.457       41.354        0.188      347.966       27.319      864.513
07/22/2014  12:53:00       59.276      -33.470       38.504       64.036       98.924       53.909     4100.650     9786.047     2906.226        1.145        0.840       68.072       62.382        0.840      348.167       27.666      864.523
07/22/2014  12:54:00       37.444       15.237       69.149       66.966       76.570       65.585     4484.460     5863.025     4301.368        1.053        0.732       40.426       52.838        1.708      348.507       28.253      864.510
07/22/2014  12:55:00       74.581      -33.043       65.423       81.103      133.283       97.014     6577.693    17764.387     9411.799        2.234        1.688       81.573      103.872        1.621      348.264       27.833      864.482
07/22/2014  12:56:00      -12.008       80.780      131.137       24.276       70.687       38.529      589.335     4996.603     1484.508        1.547        0.354       81.667       43.699        0.286      348.244       27.798      864.468
07/22/2014  12:57:00      -36.788      -31.271       20.845       29.961       41.810       39.118      897.670     1748.090     1530.197        0.347        0.209       48.283       36.858        0.583      348.303       27.903      864.460
07/22/2014  12:58:00      -24.066       19.802       10.190       26.615       29.138       25.588      708.347      849.045      654.761        0.164        0.111       31.165        8.920        0.082      348.544       28.318      864.413
07/22/2014  12:59:00      -13.165       43.306        0.814       35.094       37.656       30.137     1231.572     1417.982      908.217        0.280        0.178       45.263       11.367        0.063      348.855       28.856      864.382
07/22/2014  13:00:00       17.064        2.744       15.999       41.407       28.828       26.260     1714.537      831.050      689.563        0.189        0.162       17.283       15.706        0.826      348.322       27.935      864.368
07/22/2014  13:01:00        3.148      -30.087       19.471       37.156       51.662       27.087     1380.601     2668.955      733.721        0.304        0.239       30.252       21.932        0.526      348.597       28.409      864.362
07/22/2014  13:02:00      162.754     -207.396      -60.384      110.398      115.464       55.554    12187.820    13331.832     3086.229        5.087        1.430      263.632       56.232        0.045      347.986       27.351      864.337
07/22/2014  13:03:00       92.582     -156.611      -27.992       64.201       83.755       47.039     4121.771     7014.913     2212.646        2.361        0.667      181.930       34.412        0.036      347.883       27.171      864.340
07/22/2014  13:04:00       47.355      -14.427       51.318       66.421       95.951       70.370     4411.790     9206.630     4951.913        1.182        0.929       49.503       80.276        2.630      348.371       28.018      864.331
07/22/2014  13:05:00       65.588      -73.606       23.781       64.277      105.080       67.125     4131.584    11041.714     4505.740        1.498        0.984       98.588       71.915        0.532      348.473       28.195      864.318
07/22/2014  13:06:00       17.851      -85.606        2.083       77.817       76.439       58.092     6055.416     5842.960     3374.729        1.146        0.764       87.448       50.163        0.329      348.570       28.362      864.306
07/22/2014  13:07:00        3.475     -117.474      -11.292       56.475       67.926       39.825     3189.463     4613.926     1586.044        1.166        0.469      117.525       38.940        0.110      348.541       28.311      864.301
07/22/2014  13:08:00       43.043      -85.263       20.321       48.411       99.073       62.980     2343.603     9815.468     3966.466        1.283        0.806       95.512       68.835        0.519      348.193       27.709      864.295
07/22/2014  13:09:00       46.506      -78.050       32.555       63.348       75.653       41.114     4012.932     5723.364     1690.334        1.037        0.571       90.855       48.914        0.290      348.429       28.119      864.294
07/22/2014  13:10:00       21.940      -60.875       25.406       69.224       98.615       59.393     4792.012     9725.005     3527.576        1.143        0.902       64.708       67.701        1.095      348.404       28.076      864.293
07/22/2014  13:11:00     -105.142      -92.594       15.363      127.080       77.189       44.657    16149.332     5958.170     1994.216        2.198        1.205      140.102       48.896        0.122      348.433       28.124      864.304
07/22/2014  13:12:00     -155.812     -142.580        1.510      111.220       82.055       50.253    12369.826     6732.959     2525.344        3.311        1.081      211.203       58.743        0.077      348.099       27.545      864.302
07/22/2014  13:13:00     -102.870      -80.974       -3.049       69.982       76.724       31.509     4897.528     5886.568      992.794        1.446        0.589      130.916       35.997        0.076      347.960       27.306      864.308
07/22/2014  13:14:00      -85.065     -154.539      -17.381       91.571      123.415       47.245     8385.189    15231.285     2232.046        2.863        1.292      176.404       32.719        0.034      347.997       27.370      864.298
07/22/2014  13:15:00       55.226      -81.670       23.390       74.131       98.928       52.602     5495.406     9786.671     2766.969        1.415        0.902       98.590       41.949        0.181      348.310       27.912      864.291
07/22/2014  13:16:00      -23.404      -19.678       26.595       54.349       59.069       41.758     2953.785     3489.133     1743.771        0.491        0.409       30.577       25.181        0.678      348.632       28.470      864.258
07/22/2014  13:17:00      -57.848      -57.967      -15.918       60.971       50.818       29.848     3717.422     2582.443      890.910        0.707        0.360       81.893       16.374        0.040      348.511       28.260      864.248
07/22/2014  13:18:00      -80.974      -35.553        3.895       71.209       77.490       45.491     5070.702     6004.628     2069.427        1.049        0.657       88.435       39.986        0.204      348.076       27.508      864.263
07/22/2014  13:19:00     -107.954      -65.910       -7.564      137.151       66.595       39.678    18810.495     4434.907     1574.319        2.043        1.241      126.484       30.481        0.058      348.141       27.619      864.257
07/22/2014  13:20:00      -89.432      -85.183        9.026       77.306      106.805       39.083     5976.209    11407.237     1527.518        1.712        0.946      123.508       41.612        0.114      348.454       28.161      864.256
07/22/2014  13:21:00     -229.082     -141.765       -2.499       93.347       86.118       51.007     8713.638     7416.241     2601.731        4.565        0.937      269.399       46.218        0.029      348.048       27.458      864.253
07/22/2014  13:22:00     -227.050     -150.452      -10.239      111.083       57.734       36.063    12339.382     3333.158     1300.541        4.563        0.849      272.374       37.219        0.019      347.786       27.004      864.252
07/22/2014  13:23:00     -110.945      -95.779       -2.497       94.864       56.563       43.064     8999.245     3199.406     1854.483        1.777        0.703      146.569       46.174        0.099      348.035       27.437      864.248
07/22/2014  13:24:00     -109.778       19.101        4.190       62.829       58.014       33.708     3947.465     3365.666     1136.248        1.044        0.422      111.427       32.210        0.084      348.231       27.777      864.227
07/22/2014  13:25:00      -79.434      -35.777       -3.146       56.528       40.144       26.052     3195.449     1611.529      678.703        0.654        0.274       87.119       22.912        0.069      348.629       28.465      864.236
07/22/2014  13:26:00      -50.909      -47.277       -1.729       34.891       28.101       23.332     1217.352      789.662      544.370        0.369        0.128       69.475       15.295        0.048      348.310       27.912      864.222
07/22/2014  13:27:00      -15.653      -62.182       -3.665       72.635       78.163       43.508     5275.781     6109.473     1892.915        0.870        0.664       64.122       33.017        0.265      348.146       27.627      864.219
07/22/2014  13:28:00        0.393       42.732       65.571       40.104       44.239       36.443     1608.368     1957.125     1328.102        0.551        0.245       42.733       23.091        0.292      348.901       28.937      864.215
07/22/2014  13:29:00       59.751      -57.985       27.509       55.333       95.475       52.931     3061.691     9115.406     2801.725        1.133        0.749       83.261       47.337        0.323      348.515       28.267      864.192
07/22/2014  13:30:00       -7.527      -79.199       12.041       64.114       83.209       45.475     4110.652     6923.770     2068.019        0.979        0.655       79.556       36.642        0.212      348.954       29.028      864.201
07/22/2014  13:31:00     -112.224     -110.066      -14.039       70.179       70.028       37.457     4925.082     4903.984     1402.995        1.807        0.562      157.190       30.127        0.037      348.208       27.734      864.205
07/22/2014  13:32:00     -203.481     -169.847      -26.672       83.352       63.122       44.588     6947.543     3984.414     1988.052        4.194        0.646      265.052       36.809        0.019      347.991       27.358      864.219
07/22/2014  13:33:00     -112.146      -88.902        9.809       97.678       81.183       37.759     9540.982     6590.676     1425.705        1.906        0.878      143.109       45.050        0.099      348.402       28.069      864.208
07/22/2014  13:34:00     -126.201      -42.576       -6.753       48.198      104.304       34.365     2323.024    10879.260     1180.932        1.608        0.719      133.189       30.614        0.053      347.898       27.201      864.200
07/22/2014  13:35:00      -38.410       23.699        7.999       43.410       35.876       36.738     1884.421     1287.105     1349.654        0.331        0.226       45.133       36.029        0.637      348.816       28.790      864.178
07/22/2014  13:36:00       67.202      -47.774        6.494       84.341      117.840       59.013     7113.352    13886.216     3482.538        1.566        1.224       82.452       68.686        0.694      348.174       27.677      864.179
07/22/2014  13:37:00       34.338      -25.826       22.105       39.054       60.731       38.289     1525.213     3688.303     1466.063        0.451        0.334       42.966       32.334        0.566      348.342       27.969      864.162
07/22/2014  13:38:00       20.819       13.158       59.623       47.582       46.770       30.401     2264.000     2187.403      924.216        0.477        0.269       24.629       31.498        1.636      348.968       29.051      864.153
07/22/2014  13:39:00       -9.974      -24.196       42.942       30.200       61.487       29.623      912.036     3780.650      877.522        0.405        0.279       26.171       29.802        1.297      348.897       28.929      864.127
07/22/2014  13:40:00       23.738      -37.827       14.373       45.913       58.759       32.262     2108.008     3452.674     1040.829        0.440        0.330       44.659       26.266        0.346      348.740       28.658      864.125
07/22/2014  13:41:00      -40.491      -42.162       15.151       72.614       69.956       44.687     5272.862     4893.864     1996.906        0.790        0.608       58.456       26.724        0.209      348.984       29.079      864.118
07/22/2014  13:42:00       -4.442      -99.809        3.436       80.505       73.289       45.415     6481.093     5371.296     2062.492        1.195        0.696       99.908       42.116        0.178      348.672       28.539      864.126
07/22/2014  13:43:00      -96.156      -35.704      -17.760       64.335       76.025       31.295     4139.038     5779.798      979.406        1.087        0.545      102.571       22.010        0.046      347.929       27.255      864.138
07/22/2014  13:44:00       -8.107       52.050       20.505       81.074       37.056       43.409     6572.969     1373.124     1884.311        0.651        0.492       52.678       47.296        0.806      348.656       28.512      864.104
07/22/2014  13:45:00       19.075       64.689       45.954       52.044       53.445       68.846     2708.545     2856.407     4739.747        0.848        0.515       67.443       31.340        0.216      348.512       28.261      864.102
07/22/2014  13:46:00       90.127       65.212       77.441       56.714       58.906       48.597     3216.517     3469.970     2361.702        1.371        0.452      111.245       29.711        0.071      348.271       27.845      864.075
07/22/2014  13:47:00       75.321       82.950       -8.127       67.035       55.097       42.537     4493.758     3035.693     1809.369        1.098        0.467      112.044       31.506        0.079      348.443       28.143      864.044
07/22/2014  13:48:00       72.786       87.600       38.409       70.492       39.879       49.451     4969.164     1590.366     2445.352        1.172        0.450      113.893       29.800        0.068      348.553       28.332      864.052
07/22/2014  13:49:00      112.814      -97.688       12.485      106.627      143.433       81.974    11369.350    20572.977     6719.751        3.054        1.933      149.232       95.758        0.412      348.596       28.405      864.014
07/22/2014  13:50:00       77.576      -91.068       31.548      128.392      145.417       97.943    16484.552    21146.153     9592.887        3.126        2.361      119.630       86.597        0.524      348.742       28.659      864.006
07/22/2014  13:51:00       29.868      -33.929      104.604       86.035      165.134       70.177     7402.090    27269.293     4924.828        2.628        1.980       45.202       98.670        4.765      348.670       28.534      864.031
07/22/2014  13:52:00      175.133     -278.282      -34.922      101.989       90.599       56.327    10401.848     8208.094     3172.778        6.555        1.089      328.804       40.948        0.016      348.158       27.645      864.043
07/22/2014  13:53:00      100.635     -100.114       24.632      108.162      120.047       72.525    11699.053    14411.188     5259.914        2.606        1.569      141.952       83.121        0.343      348.455       28.161      864.034
07/22/2014  13:54:00      117.844     -127.509        0.992      108.408      125.318       94.453    11752.342    15704.538     8921.457        3.326        1.819      173.626       98.532        0.322      348.426       28.110      864.019
07/22/2014  13:55:00      122.575      -99.676       -2.294      101.060      127.715       76.328    10213.107    16311.238     5825.938        2.865        1.618      157.987       96.298        0.372      348.421       28.104      864.025
07/22/2014  13:56:00       84.546      -17.177       50.393      107.279      123.515       93.506    11508.717    15256.002     8743.304        2.274        1.775       86.273      104.810        1.476      348.583       28.384      864.022
07/22/2014  13:57:00       -8.628        0.579       43.675       61.435       83.908       48.144     3774.227     7040.469     2317.815        0.755        0.657        8.648       53.427       38.170      348.656       28.511      864.035
07/22/2014  13:58:00        8.303      -42.735       26.768       45.175       77.447       41.607     2040.743     5998.072     1731.136        0.619        0.488       43.534       46.492        1.140      348.836       28.823      864.033
07/22/2014  13:59:00        8.034     -124.164        9.837       83.578       91.368       41.772     6985.290     8348.107     1744.933        1.632        0.854      124.424       39.406        0.100      348.598       28.411      864.039
07/22/2014  14:00:00       76.478     -118.126       -2.654       85.455      103.891       56.093     7302.605    10793.391     3146.384        2.052        1.062      140.721       59.193        0.177      348.489       28.220      864.043
07/22/2014  14:01:00      -64.724     -134.403       -4.056       66.077       82.707       30.126     4366.232     6840.438      907.569        1.719        0.606      149.176       26.266        0.031      348.148       27.631      864.047
07/22/2014  14:02:00       58.774        5.082       30.956       64.589       47.740       44.963     4171.710     2279.120     2021.652        0.645        0.424       58.993       39.346        0.445      348.331       27.949      864.028
07/22/2014  14:03:00       38.546      -47.689       15.721       41.699       43.402       29.499     1738.843     1883.755      870.182        0.425        0.225       61.319       22.843        0.139      348.381       28.036      863.995
07/22/2014  14:04:00       33.521      -12.583       53.039       66.983       56.996       44.765     4486.657     3248.573     2003.945        0.692        0.487       35.805       35.980        1.010      348.929       28.984      863.970
07/22/2014  14:05:00      113.089      149.055      111.313      102.184       68.856       67.898    10441.662     4741.208     4610.197        3.359        0.990      187.100       62.711        0.112      348.374       28.020      863.953
07/22/2014  14:06:00      111.488      106.180       67.082       66.225       51.322       63.654     4385.751     2633.910     4051.848        1.964        0.554      153.960       47.996        0.097      348.302       27.898      863.965
07/22/2014  14:07:00      128.753      102.546       57.119       37.844       31.017       29.323     1432.177      962.077      859.832        1.680        0.163      164.599       20.957        0.016      348.313       27.917      863.966
07/22/2014  14:08:00       42.761       42.662       45.220       58.279       47.037       41.720     3396.483     2212.434     1740.559        0.652        0.367       60.403       19.229        0.101      348.541       28.313      863.978
07/22/2014  14:09:00       -0.366       33.086       17.217       30.346       35.019       28.007      920.900     1226.355      784.409        0.216        0.147       33.088       21.056        0.405      348.857       28.860      863.964
07/22/2014  14:10:00       18.868        7.989       33.902       22.399       15.782       21.418      501.706      249.084      458.732        0.139        0.060       20.490        7.678        0.140      349.238       29.520      863.937
07/22/2014  14:11:00        8.085       11.008       10.574       21.644       17.947       25.568      468.472      322.106      653.704        0.087        0.072       13.658       15.438        1.278      348.654       28.507      863.912
07/22/2014  14:12:00      -48.661       70.819       -7.546       27.693       50.699       26.095      766.881     2570.419      680.975        0.573        0.201       85.926       14.413        0.028      348.381       28.036      863.898
07/22/2014  14:13:00      -10.949       26.309      -20.934       25.658       46.174       15.240      658.351     2132.067      232.245        0.214        0.151       28.496       17.601        0.381      348.329       27.946      863.887
07/22/2014  14:14:00      -52.603        4.262      -10.456       19.863       20.573       17.858      394.530      423.229      318.920        0.202        0.057       52.775        8.085        0.023      348.419       28.101      863.878
07/22/2014  14:15:00      -70.626       -8.219      -27.589       19.739       21.959       12.953      389.645      482.190      167.786        0.343        0.052       71.102        7.322        0.011      348.131       27.602      863.876
07/22/2014  14:16:00     -102.862      -44.211      -22.650       16.917       30.926       14.471      286.198      956.388      209.402        0.725        0.073      111.961        7.548        0.005      348.065       27.490      863.856
07/22/2014  14:17:00      -71.251       -4.694       -9.814       33.489       28.430       18.940     1121.507      808.270      358.710        0.374        0.114       71.405       12.338        0.030      348.249       27.806      863.835
07/22/2014  14:18:00      -10.500       50.097        2.492       33.201       85.603       28.508     1102.276     7327.850      812.681        0.593        0.462       51.185       35.160        0.472      348.485       28.216      863.821
07/22/2014  14:19:00      -41.538      141.702      -22.202       20.127       36.788       18.219      405.100     1353.380      331.944        1.219        0.105      147.665       13.068        0.008      348.131       27.603      863.806
07/22/2014  14:20:00      -20.367       52.638        1.648       20.272       52.024       25.287      410.967     2706.459      639.452        0.347        0.188       56.441       25.044        0.197      348.783       28.732      863.788
07/22/2014  14:21:00        3.495       87.455       11.293       27.391       69.731       32.526      750.251     4862.358     1057.930        0.723        0.334       87.525       36.606        0.175      348.618       28.445      863.765
07/22/2014  14:22:00      -10.908       68.780        3.647       34.061       62.243       28.721     1160.177     3874.202      824.909        0.536        0.293       69.640       23.764        0.116      348.536       28.305      863.743
07/22/2014  14:23:00      -31.934      105.223        1.857       48.146       62.573       36.356     2318.056     3915.428     1321.795        0.982        0.378      109.962       40.410        0.135      348.625       28.457      863.729
07/22/2014  14:24:00       -8.713       63.241        1.729       34.487       50.354       34.975     1189.352     2535.493     1223.267        0.451        0.247       63.838       32.196        0.254      348.836       28.822      863.697
07/22/2014  14:25:00      -34.511       60.055       -9.618       36.020       36.285       22.919     1297.425     1316.573      525.260        0.401        0.157       69.265       15.295        0.049      348.903       28.938      863.674
07/22/2014  14:26:00     -145.174      158.323      -28.322       67.478      108.409       55.987     4553.319    11752.538     3134.558        3.319        0.972      214.806       53.671        0.062      348.595       28.404      863.667
07/22/2014  14:27:00     -145.057      151.589      -29.547       45.468       69.996       42.094     2067.332     4899.509     1771.945        2.681        0.437      209.812       31.905        0.023      348.661       28.518      863.653
07/22/2014  14:28:00      -38.594       81.693      -12.940       60.133      114.414       37.186     3615.992    13090.465     1382.809        1.321        0.904       90.351       44.581        0.243      348.431       28.121      863.638
07/22/2014  14:29:00      -11.592      103.607       38.994       39.636       77.611       43.624     1571.004     6023.473     1903.064        1.094        0.475      104.253       46.052        0.195      349.011       29.125      863.612
07/22/2014  14:30:00      -72.337      155.785      -18.297       89.938       90.961       43.383     8088.787     8273.862     1882.051        2.404        0.912      171.760       60.470        0.124      348.582       28.382      863.613
07/22/2014  14:31:00      -86.833       92.286      -20.378       64.427       59.536       35.770     4150.786     3544.561     1279.481        1.272        0.449      126.715       45.920        0.131      348.489       28.222      863.605
07/22/2014  14:32:00       12.241       90.408       16.456       45.279       79.553       40.075     2050.156     6328.677     1605.969        0.929        0.499       91.233       39.862        0.191      348.924       28.974      863.589
07/22/2014  14:33:00     -111.881       73.124      -17.264       78.148      125.336       42.881     6107.131    15709.231     1838.757        2.090        1.183      133.659       28.674        0.046      348.841       28.830      863.583
07/22/2014  14:34:00     -123.356       59.820       -5.428       80.788       42.596       38.108     6526.670     1814.459     1452.183        1.431        0.490      137.095       47.580        0.120      348.922       28.972      863.598
07/22/2014  14:35:00      -51.605      111.860        3.770       53.963       92.856       48.019     2912.041     8622.290     2305.867        1.451        0.692      123.190       56.330        0.209      348.976       29.063      863.586
07/22/2014  14:36:00      -44.155      164.710      -14.611       49.694       49.415       35.804     2469.489     2441.853     1281.915        1.774        0.310      170.526       23.450        0.019      348.470       28.189      863.592
07/22/2014  14:37:00      -53.334       56.434      -10.661       62.597      122.943       39.697     3918.412    15114.945     1575.861        1.337        1.030       77.648       27.345        0.124      348.616       28.442      863.579
07/22/2014  14:38:00      -51.777       74.524       12.851       49.424       74.562       39.402     2442.694     5559.441     1552.510        0.898        0.478       90.745       37.309        0.169      349.040       29.177      863.567
07/22/2014  14:39:00      -98.474      -13.313       -3.380       58.279       52.336       29.689     3396.495     2739.052      881.439        0.845        0.351       99.370       26.369        0.070      348.965       29.048      863.552
07/22/2014  14:40:00      -42.145       50.417       10.210       47.206       70.119       36.072     2228.418     4916.642     1301.187        0.643        0.422       65.712       26.695        0.165      349.008       29.121      863.541
07/22/2014  14:41:00      -89.906       88.459       -5.445       99.696       82.011       36.902     9939.312     6725.871     1361.778        1.698        0.901      126.128       20.309        0.026      348.857       28.859      863.521
07/22/2014  14:42:00     -165.826      -46.198       -8.666       75.375       50.749       39.219     5681.397     2575.423     1538.110        1.975        0.490      172.141       25.923        0.023      348.719       28.618      863.512
07/22/2014  14:43:00     -112.453      -14.540        0.416       73.970       69.334       33.182     5471.573     4807.268     1101.058        1.212        0.569      113.389       33.400        0.087      348.816       28.788      863.504
07/22/2014  14:44:00     -106.593      -35.927       15.980       90.411       59.058       47.198     8174.094     3487.833     2227.639        1.340        0.694      112.485       48.424        0.185      348.886       28.908      863.477
07/22/2014  14:45:00      -93.798      -88.330        2.790       85.302       61.530       44.547     7276.490     3785.930     1984.412        1.482        0.652      128.842       43.984        0.117      348.544       28.318      863.468
07/22/2014  14:46:00     -106.630      -43.358       25.091       95.247       93.979       42.504     9072.047     8832.011     1806.584        1.679        0.986      115.108       49.506        0.185      348.761       28.693      863.469
07/22/2014  14:47:00      -61.720      103.139        3.279       59.260       82.241       45.763     3511.756     6763.584     2094.273        1.341        0.618      120.196       41.326        0.118      348.730       28.637      863.489
07/22/2014  14:48:00      -25.677       80.573        3.998       49.914       60.845       35.673     2491.389     3702.071     1272.587        0.732        0.373       84.566       31.093        0.135      348.631       28.469      863.474
07/22/2014  14:49:00      -52.995      108.755       -5.159       65.509       69.474       44.789     4291.424     4826.671     2006.058        1.289        0.556      120.980       50.933        0.177      348.838       28.827      863.445
07/22/2014  14:50:00     -227.358       29.038      -22.086      121.911       99.282       46.069    14862.331     9856.923     2122.365        3.993        1.342      229.205       52.090        0.052      348.820       28.792      863.422
07/22/2014  14:51:00     -192.099       19.435      -25.077       64.794       54.349       32.928     4198.309     2953.856     1084.266        2.307        0.412      193.080       32.383        0.028      348.584       28.385      863.443
07/22/2014  14:52:00     -102.172       -4.337       -7.249       28.740       38.408       23.462      826.005     1475.211      550.459        0.668        0.143      102.264       20.701        0.041      348.602       28.418      863.432
07/22/2014  14:53:00       14.984       34.256       -3.128       37.112       37.002       41.343     1377.327     1369.158     1709.231        0.293        0.223       37.390       23.198        0.385      348.620       28.449      863.402
07/22/2014  14:54:00        3.996       63.674        4.258       28.237       47.675       25.727      797.309     2272.927      661.853        0.391        0.187       63.799       17.192        0.073      348.569       28.361      863.356
07/22/2014  14:55:00       33.893       74.021       -0.167       27.673       53.391       35.058      765.788     2850.609     1229.028        0.574        0.242       81.412       37.069        0.207      348.721       28.624      863.332
07/22/2014  14:56:00      -13.013       12.003       10.352       32.377       20.083       17.585     1048.246      403.315      309.227        0.109        0.088       17.703        8.264        0.218      348.937       28.998      863.303
07/22/2014  14:57:00      -56.480       72.342      -14.902       30.455       44.519       25.260      927.505     1981.909      638.079        0.610        0.177       91.779       19.983        0.047      348.637       28.477      863.276
07/22/2014  14:58:00       21.311        2.537       -0.795       32.375       65.680       27.123     1048.127     4313.817      735.631        0.328        0.305       21.461       17.155        0.639      348.486       28.217      863.248
07/22/2014  14:59:00       64.365       49.965        9.036       51.171       33.018       23.047     2618.421     1090.180      531.152        0.548        0.212       81.482       10.006        0.015      348.543       28.317      863.229
07/22/2014  15:00:00       55.012       34.659        3.043       50.243       37.211       31.651     2524.339     1384.644     1001.782        0.457        0.246       65.020       27.900        0.184      348.741       28.658      863.221
07/22/2014  15:01:00       15.924       20.733       -1.549       32.349       40.445       26.325     1046.431     1635.792      693.030        0.203        0.169       26.142       20.615        0.622      348.989       29.087      863.213
07/22/2014  15:02:00        9.130       20.154       19.085       25.960       21.470       17.049      673.898      460.944      290.676        0.114        0.071       22.126       10.091        0.208      349.257       29.553      863.200
07/22/2014  15:03:00      -10.311       52.100       10.749       29.818       47.226       26.514      889.119     2230.288      702.975        0.338        0.191       53.110       30.508        0.330      348.963       29.044      863.187
07/22/2014  15:04:00      -72.357       96.427      -24.713       58.171       50.172       36.291     3383.913     2517.252     1317.004        1.118        0.361      120.556       28.097        0.054      348.622       28.452      863.168
07/22/2014  15:05:00      -47.765      150.551      -17.912       27.322       42.572       27.563      746.496     1812.352      759.723        1.429        0.166      157.947       20.438        0.017      348.487       28.219      863.141
07/22/2014  15:06:00       18.159       45.499        7.239       41.822       51.658       32.941     1749.082     2668.592     1085.118        0.398        0.275       48.989       10.490        0.046      348.829       28.810      863.121
07/22/2014  15:07:00       57.421       37.999       21.059       62.405       27.860       26.772     3894.345      776.172      716.754        0.528        0.269       68.856       27.617        0.161      348.661       28.520      863.105
07/22/2014  15:08:00      -22.958       61.422        3.519       28.953       31.406       27.201      838.281      986.307      739.915        0.344        0.128       65.572       23.677        0.130      348.830       28.812      863.079
07/22/2014  15:09:00       -1.721      207.412      -32.304       22.096       46.845       20.896      488.240     2194.488      436.638        2.359        0.156      207.419       15.433        0.006      348.497       28.233      863.056
07/22/2014  15:10:00       -0.122      138.423      -17.818       23.757       31.749       19.435      564.419     1007.997      377.726        1.071        0.098      138.423       19.555        0.020      348.522       28.280      863.029
07/22/2014  15:11:00       36.097       78.980       -5.131       46.290       55.305       35.181     2142.738     3058.680     1237.704        0.700        0.322       86.838       31.294        0.130      348.730       28.639      863.009
07/22/2014  15:12:00      -21.452       48.133       -3.072       37.094       42.022       35.605     1376.001     1765.890     1267.704        0.360        0.220       52.697       29.485        0.313      348.882       28.904      863.012
07/22/2014  15:13:00      -30.927       23.533       -5.965       21.065       17.798       23.582      443.752      316.786      556.120        0.143        0.066       38.862       18.181        0.219      348.885       28.907      863.016
07/22/2014  15:14:00      -30.206       -4.880        8.192       22.387       40.316       27.511      501.194     1625.365      756.843        0.194        0.144       30.598       22.696        0.550      349.195       29.445      863.006
07/22/2014  15:15:00      -50.159      -51.414       -0.085       40.995       40.130       23.366     1680.621     1610.442      545.969        0.450        0.192       71.829       18.748        0.068      348.812       28.781      862.995
07/22/2014  15:16:00     -126.000      -55.793       -2.390       61.814       73.029       34.999     3820.937     5333.265     1224.935        1.468        0.519      137.800       33.349        0.059      348.822       28.798      862.988
07/22/2014  15:17:00     -113.520      -42.690        5.232       90.145       77.995       56.143     8126.158     6083.177     3152.077        1.605        0.868      121.281       52.240        0.186      348.967       29.049      862.968
07/22/2014  15:18:00     -146.273       54.982       -1.707       72.443       57.900       32.754     5247.928     3352.439     1072.825        1.705        0.484      156.265       29.644        0.036      348.961       29.040      862.944
07/22/2014  15:19:00     -215.076       51.886       -1.611       90.313       68.994       47.361     8156.402     4760.209     2243.082        3.205        0.758      221.246       46.369        0.044      348.950       29.018      862.929
07/22/2014  15:20:00      -66.591      -43.255        3.294       80.690       68.440       31.812     6510.901     4684.029     1012.004        0.926        0.610       79.406       29.944        0.142      349.132       29.336      862.923
07/22/2014  15:21:00     -131.542      -96.661        5.785       84.269       72.520       51.648     7101.334     5259.080     2667.495        2.085        0.751      163.238       49.173        0.091      349.130       29.330      862.920
07/22/2014  15:22:00     -160.874     -180.301       -1.536      118.735      102.764       60.584    14097.918    10560.493     3670.417        4.335        1.416      241.637       66.744        0.076      348.736       28.647      862.914
07/22/2014  15:23:00     -213.505      -91.286       -4.992      108.528       90.803       48.217    11778.397     8245.233     2324.882        3.814        1.117      232.201       50.132        0.047      348.853       28.848      862.908
07/22/2014  15:24:00     -173.905       -1.306        2.098       92.168       93.033       44.651     8494.896     8655.228     1993.699        2.469        0.957      173.910       45.306        0.068      349.106       29.288      862.933
07/22/2014  15:25:00     -226.580       59.693      -28.850       91.982       48.209       29.854     8460.604     2324.127      891.287        3.370        0.584      234.311       31.090        0.018      348.752       28.675      862.957
07/22/2014  15:26:00     -127.392       -5.753       -1.853       43.765       50.449       21.381     1915.415     2545.141      457.143        1.059        0.246      127.522       17.302        0.018      348.864       28.870      862.956
07/22/2014  15:27:00      -98.030       -6.709       -4.552       56.738       60.716       23.187     3219.233     3686.477      537.615        0.856        0.372       98.260       24.932        0.064      349.146       29.360      862.960
07/22/2014  15:28:00      -64.650     -103.447       11.947       76.154       94.408       41.782     5799.445     8912.820     1745.777        1.574        0.823      121.988       31.576        0.067      349.195       29.443      862.965
07/22/2014  15:29:00      -95.043      -83.245       19.287       99.852       82.826       50.202     9970.366     6860.179     2520.268        1.784        0.968      126.344       55.976        0.196      349.145       29.358      862.957
07/22/2014  15:30:00      -74.116     -164.768        0.970       76.412       84.100       44.053     5838.817     7072.788     1940.695        2.374        0.743      180.670       42.711        0.056      348.913       28.953      862.940
07/22/2014  15:31:00      -68.105      -99.870        0.255       52.358       94.763       34.070     2741.320     8980.104     1160.761        1.374        0.644      120.881       39.879        0.109      348.958       29.034      862.906
07/22/2014  15:32:00      -14.280       17.409        7.618       27.732       24.976       26.950      769.054      623.805      726.310        0.134        0.106       22.516       17.270        0.588      349.306       29.636      862.877
07/22/2014  15:33:00      -25.016       34.238        4.667       46.614       28.294       20.317     2172.878      800.558      412.801        0.260        0.169       42.403       20.281        0.229      349.166       29.394      862.880
07/22/2014  15:34:00        6.697        8.956       42.627       19.801       22.165       12.438      392.064      491.275      154.715        0.149        0.052       11.182        8.437        0.569      349.434       29.860      862.886
07/22/2014  15:35:00       16.858       20.468       19.478       16.943       17.208       22.744      287.077      296.112      517.308        0.109        0.055       26.516       14.920        0.317      348.981       29.075      862.896
07/22/2014  15:36:00       31.288      -16.547        0.127       31.217       19.277       17.913      974.510      371.615      320.892        0.146        0.083       35.394       14.738        0.173      348.676       28.546      862.905
07/22/2014  15:37:00      -45.935      -49.766        9.586       51.048       39.345       29.796     2605.945     1548.040      887.801        0.486        0.252       67.725       19.520        0.083      349.201       29.454      862.913
07/22/2014  15:38:00      -83.656     -124.669       -2.448       84.372       82.069       44.932     7118.618     6735.340     2018.899        1.921        0.794      150.136       45.030        0.090      348.979       29.070      862.905
07/22/2014  15:39:00      -79.386     -155.070       21.222      112.238       99.739       58.772    12597.408     9947.896     3454.093        2.839        1.300      174.209       53.314        0.094      349.102       29.282      862.866
07/22/2014  15:40:00     -123.951       -1.800        0.679      101.994      101.565       41.968    10402.862    10315.485     1761.309        1.892        1.124      123.964       45.512        0.135      349.240       29.522      862.899
07/22/2014  15:41:00     -129.520       18.657       -4.700       78.769       56.955       35.275     6204.552     3243.851     1244.304        1.392        0.535      130.856       35.500        0.074      349.124       29.322      862.901
07/22/2014  15:42:00     -283.927      -30.394       -2.641      152.630      104.494       54.725    23295.922    10918.906     2994.777        5.937        1.860      285.549       57.256        0.040      349.180       29.415      862.883
07/22/2014  15:43:00     -299.710      -63.955      -37.285      140.290      145.858       65.565    19681.355    21274.572     4298.808        7.027        2.263      306.458       50.414        0.027      348.989       29.084      862.879
07/22/2014  15:44:00     -437.809      -50.323      -22.021      113.929      138.167       61.937    12979.769    19090.008     3836.145       11.529        1.795      440.692       56.441        0.016      348.935       28.990      862.870
07/22/2014  15:45:00     -241.566      -88.083       -4.831      120.224      106.383       54.455    14453.741    11317.345     2965.308        4.743        1.437      257.123       44.410        0.030      349.043       29.176      862.877
07/22/2014  15:46:00     -218.097     -103.865       -4.614      147.625      116.988       58.023    21793.053    13686.243     3366.666        4.860        1.942      241.566       69.210        0.082      349.002       29.108      862.882
07/22/2014  15:47:00     -181.141      -37.118        1.204      114.762       77.420       50.668    13170.393     5993.800     2567.256        2.796        1.087      184.905       44.533        0.058      349.062       29.211      862.877
07/22/2014  15:48:00     -355.370     -147.750      -18.998      121.882      103.703       62.326    14855.224    10754.324     3884.588        8.898        1.475      384.861       64.928        0.028      348.804       28.764      862.850
07/22/2014  15:49:00     -282.785      -79.698        2.185      105.362       91.364       53.186    11101.095     8347.437     2828.732        5.430        1.114      293.801       54.948        0.035      348.854       28.851      862.844
07/22/2014  15:50:00     -138.076      -87.053       -5.052       93.975      103.824       45.189     8831.341    10779.370     2042.071        2.416        1.083      163.228       41.315        0.064      348.969       29.051      862.846
07/22/2014  15:51:00     -140.836     -107.868       -7.859       69.436       89.322       43.623     4821.356     7978.350     1902.964        2.311        0.735      177.399       41.375        0.054      348.909       28.946      862.837
07/22/2014  15:52:00      -64.042      -78.423       10.494       68.265       64.982       38.800     4660.155     4222.673     1505.408        1.037        0.519      101.250       45.023        0.198      349.134       29.338      862.821
07/22/2014  15:53:00     -178.709     -105.803        1.741       80.909       71.174       50.750     6546.275     5065.758     2575.581        2.866        0.709      207.681       34.604        0.028      348.885       28.906      862.805
07/22/2014  15:54:00     -172.410      -60.814      -13.359       81.701       73.066       39.947     6675.090     5338.645     1595.737        2.360        0.680      182.821       35.880        0.039      348.875       28.888      862.790
07/22/2014  15:55:00      -86.958      -74.060       10.098       99.054       65.537       37.385     9811.688     4295.123     1397.651        1.432        0.775      114.221       43.124        0.143      349.031       29.161      862.778
07/22/2014  15:56:00      -88.299       17.160       -3.432       45.841       51.073       23.697     2101.434     2608.408      561.554        0.669        0.264       89.951       17.715        0.039      349.004       29.115      862.758
07/22/2014  15:57:00      -50.560      -25.673       -3.659       46.531       40.808       30.757     2165.105     1665.329      946.015        0.400        0.239       56.705       20.304        0.128      349.151       29.369      862.748
07/22/2014  15:58:00       20.381       21.527        2.140       34.247       26.681       29.332     1172.849      711.895      860.395        0.181        0.137       29.644       26.402        0.793      349.211       29.473      862.724
07/22/2014  15:59:00       -7.639      -12.417       10.786       23.582       40.777       19.689      556.091     1662.774      387.675        0.147        0.130       14.578       14.679        1.014      349.274       29.580      862.715
07/22/2014  16:00:00      -42.870      -57.155        7.141       61.921       54.228       21.189     3834.148     2940.667      448.974        0.619        0.361       71.446       23.313        0.106      349.283       29.599      862.704
07/22/2014  16:01:00     -164.734      -59.070      -10.542       48.458       61.658       33.225     2348.135     3801.735     1103.893        1.899        0.363      175.004       31.245        0.032      348.975       29.062      862.700
07/22/2014  16:02:00      -88.706      -28.751       -4.850       54.747       73.263       27.453     2997.191     5367.445      753.654        0.892        0.456       93.249       25.714        0.076      348.967       29.050      862.685
07/22/2014  16:03:00      -84.176      -68.768       -9.305       50.277       63.634       20.229     2527.760     4049.317      409.203        0.944        0.349      108.695       23.752        0.048      348.926       28.979      862.664
07/22/2014  16:04:00      -49.251      -92.941        6.594       72.148       51.367       34.725     5205.393     2638.545     1205.837        1.008        0.452      105.184       26.934        0.066      349.094       29.269      862.658
07/22/2014  16:05:00     -158.953      -30.997       -1.394      120.818       80.683       50.879    14596.872     6509.815     2588.642        2.496        1.185      161.947       63.453        0.154      349.189       29.432      862.651
07/22/2014  16:06:00     -217.201     -140.753        0.058      133.940      102.331       52.266    17939.929    10471.701     2731.736        4.906        1.557      258.820       52.043        0.040      349.111       29.297      862.666
07/22/2014  16:07:00     -199.098     -140.251        4.489      152.939       95.757       72.003    23390.399     9169.454     5184.392        4.853        1.887      243.537       72.291        0.088      349.051       29.191      862.679
07/22/2014  16:08:00     -193.658     -148.269       -1.973      102.596       85.304       45.783    10526.019     7276.784     2096.051        3.969        0.995      243.900       50.151        0.042      348.902       28.935      862.682
07/22/2014  16:09:00     -188.541     -131.585        0.456       60.896       40.884       40.775     3708.289     1671.483     1662.578        2.995        0.352      229.919       33.588        0.021      348.895       28.922      862.681
07/22/2014  16:10:00     -198.273      -95.378        2.766       90.258       89.085       46.785     8146.419     7936.207     2188.839        3.334        0.914      220.021       37.050        0.028      348.967       29.047      862.662
07/22/2014  16:11:00      -98.409       18.278       -2.951       54.931       57.406       34.372     3017.428     3295.486     1181.401        0.876        0.375      100.092       24.517        0.060      349.085       29.254      862.644
07/22/2014  16:12:00      -83.962      -11.294       13.104       81.527       48.525       22.688     6646.729     2354.630      514.744        0.843        0.476       84.718       18.751        0.049      349.486       29.949      862.637
07/22/2014  16:13:00     -134.783     -104.423       -2.160       99.969       80.556       54.980     9993.798     6489.304     3022.837        2.429        0.975      170.501       49.856        0.086      349.342       29.696      862.651
07/22/2014  16:14:00      -81.728     -157.762      -10.130      109.663       49.324       38.400    12026.010     2432.819     1474.523        2.380        0.797      177.675       46.533        0.069      348.891       28.916      862.654
07/22/2014  16:15:00      -20.897     -105.690       19.477       38.790       62.458       29.134     1504.653     3900.966      848.812        0.912        0.313      107.737       17.048        0.025      348.995       29.099      862.636
07/22/2014  16:16:00       -5.506      -28.079        3.681       41.964       41.648       26.207     1760.980     1734.583      686.818        0.251        0.209       28.614       12.977        0.206      349.351       29.717      862.586
07/22/2014  16:17:00      -12.491      -15.414        0.829       44.013       25.912       28.564     1937.122      671.409      815.926        0.191        0.171       19.840       16.167        0.664      349.422       29.838      862.565
07/22/2014  16:18:00     -169.441      -58.323       -8.656       55.862       31.135       19.582     3120.585      969.359      383.439        1.833        0.224      179.197       23.127        0.017      349.155       29.372      862.562
07/22/2014  16:19:00     -161.065      -59.093      -12.479       42.114       54.268       24.137     1773.599     2945.029      582.618        1.744        0.265      171.563       16.097        0.009      348.990       29.089      862.570
07/22/2014  16:20:00     -184.406      -48.198      -10.211       45.251       55.977       31.510     2047.692     3133.382      992.865        2.130        0.309      190.601       23.301        0.015      349.276       29.583      862.587
07/22/2014  16:21:00     -356.291     -136.839      -23.860      153.233      124.250       70.453    23480.416    15438.177     4963.559        9.505        2.194      381.665       78.380        0.042      349.228       29.499      862.592
07/22/2014  16:22:00     -350.490     -199.190        1.627      184.186      153.934       83.702    33924.648    23695.554     7006.033       11.356        3.231      403.138       96.242        0.057      349.151       29.365      862.563
07/22/2014  16:23:00     -328.622     -121.378      -10.085      134.340      118.951       66.367    18047.144    14149.250     4404.587        7.971        1.830      350.321       75.117        0.046      349.116       29.302      862.580
07/22/2014  16:24:00     -215.685      -93.743        4.746      133.111       99.221       59.675    17718.662     9844.768     3561.139        4.322        1.556      235.176       68.733        0.085      349.283       29.594      862.594
07/22/2014  16:25:00     -160.097      -55.201       -6.221      118.107       77.686       45.571    13949.303     6035.184     2076.722        2.538        1.103      169.346       50.160        0.088      349.211       29.470      862.582
07/22/2014  16:26:00     -275.942      -84.222      -27.121       84.512       72.234       40.367     7142.236     5217.728     1629.511        4.898        0.699      288.509       35.656        0.015      349.139       29.342      862.570
07/22/2014  16:27:00     -134.364      -49.750       27.022      106.693       79.753       42.512    11383.345     6360.610     1807.278        2.040        0.978      143.279       50.179        0.123      349.546       30.050      862.592
07/22/2014  16:28:00     -255.467     -190.745        0.689      164.676      118.799       68.665    27118.199    14113.175     4714.950        7.379        2.297      318.821       69.162        0.047      349.376       29.754      862.602
07/22/2014  16:29:00     -328.140     -165.988      -17.470      135.725      112.959       63.008    18421.242    12759.837     3970.030        8.534        1.758      367.733       62.329        0.029      349.385       29.772      862.635
07/22/2014  16:30:00     -292.033      -69.086       -2.865       75.315      116.484       55.428     5672.423    13568.480     3072.256        5.618        1.116      300.093       44.317        0.022      349.323       29.662      862.648
07/22/2014  16:31:00     -207.687      -49.316      -11.707       97.086       79.092       39.544     9425.642     6255.525     1563.730        3.147        0.862      213.462       37.319        0.031      349.361       29.731      862.627
07/22/2014  16:32:00     -248.538      -97.398        0.346      113.191       92.183       54.644    12812.248     8497.633     2986.008        4.777        1.215      266.941       58.856        0.049      349.316       29.652      862.627
07/22/2014  16:33:00     -290.220     -156.929       -3.127      118.874       98.857       46.086    14131.108     9772.615     2123.894        6.744        1.301      329.930       22.958        0.005      349.285       29.597      862.635
07/22/2014  16:34:00     -207.194      -71.994       -4.832      193.659      111.051       51.197    37503.698    12332.422     2621.156        5.029        2.623      219.346       74.526        0.115      349.488       29.951      862.619
07/22/2014  16:35:00     -222.198     -116.061       -4.845      148.655       98.407       68.349    22098.195     9683.967     4671.626        4.965        1.823      250.684       83.806        0.112      349.328       29.672      862.588
07/22/2014  16:36:00     -302.428     -210.871        0.275      155.142       96.335       71.083    24069.174     9280.517     5052.801        8.716        1.920      368.686       84.647        0.053      349.187       29.427      862.581
07/22/2014  16:37:00     -195.262      -51.174       14.562      139.497       99.574       60.092    19459.277     9915.002     3611.022        3.697        1.649      201.856       63.839        0.100      349.573       30.098      862.577
07/22/2014  16:38:00     -167.703      -91.605        7.577      164.400      145.030       79.483    27027.496    21033.666     6317.592        4.547        2.719      191.091       90.163        0.223      349.543       30.045      862.567
07/22/2014  16:39:00     -259.093     -140.491       -6.700      165.450      156.407       80.753    27373.860    24463.241     6521.076        7.262        2.918      294.732       64.711        0.048      349.408       29.810      862.560
07/22/2014  16:40:00     -329.194      -10.367      -17.770      147.463      132.140       75.920    21745.423    17461.022     5763.819        7.687        2.249      329.357       72.492        0.048      349.374       29.753      862.549
07/22/2014  16:41:00     -413.032     -103.357      -14.255      155.359      119.606       65.426    24136.533    14305.587     4280.583       11.209        2.136      425.768       68.152        0.026      349.320       29.658      862.540
07/22/2014  16:42:00     -317.898      -80.528        3.599      155.285      123.719       65.214    24113.416    15306.285     4252.824        7.561        2.184      327.939       73.197        0.050      349.365       29.736      862.538
07/22/2014  16:43:00     -409.065      -66.357       -3.239      172.051      119.934       74.211    29601.602    14384.261     5507.331       11.061        2.475      414.412       74.347        0.032      349.263       29.559      862.523
07/22/2014  16:44:00     -293.701      -55.620       -9.988      127.405      116.636       52.031    16232.027    13603.999     2707.262        6.099        1.627      298.921       56.233        0.035      349.243       29.524      862.521
07/22/2014  16:45:00     -455.046     -127.830       -9.637      183.145      130.388       79.395    33542.072    17001.037     6303.500       14.016        2.842      472.660       90.935        0.037      349.259       29.550      862.507
07/22/2014  16:46:00     -183.556      -43.774        2.929      174.339       97.221       60.808    30394.031     9451.999     3697.650        3.957        2.177      188.704       70.022        0.138      349.278       29.586      862.520
07/22/2014  16:47:00     -230.817     -212.798       -5.574      182.823      138.915       92.143    33424.406    19297.340     8490.364        7.989        3.061      313.942      107.273        0.117      349.246       29.529      862.490
07/22/2014  16:48:00     -278.952     -153.147      -10.616      137.980      115.509       63.554    19038.525    13342.305     4039.137        6.889        1.821      318.226       70.729        0.049      349.142       29.350      862.511
07/22/2014  16:49:00     -121.588      -72.613       -6.582       86.324       69.670       38.981     7451.907     4853.948     1519.513        1.696        0.691      141.620       46.759        0.109      349.242       29.526      862.491
07/22/2014  16:50:00      -58.142      -96.347      -10.332       41.858       32.885       34.700     1752.120     1081.417     1204.082        0.840        0.202      112.531       27.287        0.059      349.175       29.411      862.470
07/22/2014  16:51:00     -111.821      -74.593       -5.027       52.553       40.275       30.395     2761.861     1622.098      923.874        1.170        0.265      134.417       21.064        0.025      349.411       29.821      862.472
07/22/2014  16:52:00     -215.676     -130.589       -3.176      164.773       94.420       64.111    27150.177     8915.180     4110.179        5.187        2.009      252.130       69.675        0.076      349.494       29.960      862.444
07/22/2014  16:53:00     -261.979     -172.369       -7.262      166.577       95.344       64.637    27747.898     9090.434     4177.954        6.970        2.051      313.598       79.996        0.065      349.440       29.866      862.444
07/22/2014  16:54:00     -258.836     -144.517       -4.512      152.164       92.360       52.448    23153.922     8530.441     2750.790        6.116        1.722      296.448       65.625        0.049      349.135       29.337      862.450
07/22/2014  16:55:00     -202.363      -86.637        5.913       91.230      103.379       59.548     8322.934    10687.249     3545.918        3.552        1.128      220.129       48.715        0.049      349.232       29.505      862.412
07/22/2014  16:56:00     -315.751     -125.435        4.072      168.984      132.735       78.293    28555.643    17618.609     6129.827        8.387        2.615      339.754       91.461        0.072      349.352       29.713      862.384
07/22/2014  16:57:00     -344.271       14.517      -17.258      197.033      116.472       63.736    38822.167    13565.757     4062.304        8.773        2.823      344.577       79.064        0.053      349.345       29.701      862.393
07/22/2014  16:58:00     -327.505      -51.374      -22.251      147.053      111.079       62.414    21624.677    12338.571     3895.474        7.412        1.893      331.510       54.725        0.027      349.401       29.799      862.395
07/22/2014  16:59:00     -218.331     -120.089       -3.297      155.040       87.218       56.008    24037.468     7607.059     3136.906        4.843        1.739      249.178       78.339        0.099      349.455       29.892      862.399
07/22/2014  17:00:00     -211.508      -61.171       -7.976      103.139       78.328       54.631    10637.667     6135.296     2984.571        3.415        0.988      220.176       54.197        0.061      349.400       29.796      862.403
07/22/2014  17:01:00      -28.562       60.890        2.964       52.252       76.400       39.606     2730.252     5836.968     1568.652        0.733        0.507       67.256       23.573        0.123      349.317       29.656      862.388
07/22/2014  17:02:00     -120.156      254.537      -26.941       76.509      108.312       54.913     5853.558    11731.466     3015.432        5.027        1.030      281.472       50.120        0.032      349.185       29.424      862.352
07/22/2014  17:03:00     -302.799        4.351      -15.353      187.905      126.262       67.590    35308.107    15942.059     4568.470        7.387        2.791      302.830       86.844        0.082      349.561       30.078      862.336
07/22/2014  17:04:00     -355.717      -58.672      -22.362      183.312      141.802       72.038    33603.323    20107.831     5189.481        9.468        2.945      360.523       76.217        0.045      349.485       29.942      862.320
07/22/2014  17:05:00     -317.360     -153.431       -3.674      138.825      106.019       75.552    19272.404    11240.004     5708.087        8.024        1.811      352.503       81.147        0.053      349.381       29.764      862.371
07/22/2014  17:06:00     -358.560     -220.642       -9.626      129.613       99.573       63.883    16799.469     9914.747     4081.038       10.406        1.540      421.009       65.089        0.024      349.021       29.140      862.400
07/22/2014  17:07:00     -192.959     -154.957      -15.362       99.376       58.194       34.402     9875.527     3386.531     1183.511        3.796        0.722      247.477       25.523        0.011      349.095       29.267      862.417
07/22/2014  17:08:00     -179.679     -141.799        0.090       91.621       68.480       42.353     8394.365     4689.461     1793.784        3.363        0.744      228.892       39.920        0.030      349.110       29.295      862.387
07/22/2014  17:09:00     -111.864     -112.957        9.778       93.960       69.351       48.313     8828.460     4809.524     2334.146        2.067        0.799      158.974       39.220        0.061      349.224       29.493      862.354
07/22/2014  17:10:00      -30.546     -150.189        1.396       33.467       47.798       28.040     1120.046     2284.665      786.217        1.384        0.210      153.264       16.796        0.012      349.008       29.121      862.318
07/22/2014  17:11:00      -91.841      -18.527      -14.985       32.902       42.683       15.691     1082.523     1821.867      246.217        0.608        0.158       93.691       11.209        0.014      348.958       29.035      862.294
07/22/2014  17:12:00      -44.066       29.461        3.664       35.299       25.264       27.472     1245.989      638.245      754.710        0.273        0.132       53.007       23.356        0.194      349.266       29.567      862.283
07/22/2014  17:13:00      -47.520       37.176      -14.173       32.606       30.493       23.281     1063.149      929.802      542.007        0.319        0.127       60.335       19.138        0.101      349.272       29.580      862.276
07/22/2014  17:14:00      -66.436       75.447       -8.494       46.827       49.959       30.223     2192.739     2495.881      913.436        0.789        0.280      100.528       31.553        0.099      349.211       29.473      862.259
07/22/2014  17:15:00     -116.253       94.873      -11.742       76.910       55.163       41.504     5915.157     3042.975     1722.580        1.666        0.534      150.052       36.026        0.058      349.235       29.512      862.247
07/22/2014  17:16:00     -109.965      263.599      -21.040       60.477       84.516       53.663     3657.410     7142.972     2879.701        4.785        0.684      285.617       45.999        0.026      349.188       29.428      862.206
07/22/2014  17:17:00     -176.458       24.727        7.739      173.149      132.600       85.351    29980.628    17582.701     7284.817        4.332        2.742      178.182       97.769        0.301      349.451       29.887      862.207
07/22/2014  17:18:00     -338.542     -125.311      -20.536      119.993      130.720       73.138    14398.393    17087.770     5349.159        8.378        1.842      360.990       68.974        0.037      349.363       29.731      862.209
07/22/2014  17:19:00     -452.242      -85.918      -36.424      167.700      108.612       69.659    28123.247    11796.526     4852.401       12.899        2.239      460.331       81.329        0.031      349.206       29.459      862.196
07/22/2014  17:20:00     -246.619      -59.519       -7.150      133.885       90.789       59.428    17925.210     8242.619     3531.721        4.705        1.485      253.699       63.089        0.062      349.485       29.944      862.227
07/22/2014  17:21:00     -210.829        4.087       -3.411      133.202      112.195       52.745    17742.863    12587.627     2782.009        3.879        1.656      210.869       59.164        0.079      349.483       29.941      862.225
07/22/2014  17:22:00     -200.374     -166.305       -5.808      131.491      141.220       69.933    17289.786    19943.050     4890.577        5.497        2.106      260.397       68.718        0.070      349.491       29.955      862.212
07/22/2014  17:23:00     -227.141     -171.769       12.277      131.709       88.712       64.113    17347.213     7869.860     4110.435        5.528        1.466      284.777       65.321        0.053      349.217       29.479      862.191
07/22/2014  17:24:00     -233.414     -189.293      -14.994      150.437       95.974       56.187    22631.439     9211.085     3156.927        6.276        1.750      300.523       57.479        0.037      349.298       29.620      862.131
07/22/2014  17:25:00     -250.361      -53.860        1.432      164.559      124.036       63.314    27079.501    15384.852     4008.652        5.602        2.324      256.089       74.423        0.084      349.638       30.211      862.143
07/22/2014  17:26:00     -178.318      -82.049        3.673      117.547       76.759       61.162    13817.277     5891.949     3740.770        3.099        1.172      196.289       60.842        0.096      349.712       30.338      862.124
07/22/2014  17:27:00     -254.513     -225.630       16.946      210.902      159.682       96.368    44479.476    25498.207     9286.714        9.760        3.963      340.127      107.444        0.100      349.354       29.717      862.112
07/22/2014  17:28:00     -254.437     -229.513       -2.011      140.437      121.606       78.315    19722.584    14787.907     6133.272        7.902        2.032      342.658       80.938        0.056      348.999       29.101      862.099
07/22/2014  17:29:00     -194.707     -125.755        5.786      126.747       81.914       57.922    16064.820     6709.852     3355.015        3.994        1.306      231.786       71.986        0.096      349.232       29.506      862.076
07/22/2014  17:30:00     -232.953     -117.992       -1.921      131.453      104.792       57.712    17279.925    10981.403     3330.691        4.989        1.580      261.130       61.170        0.055      349.384       29.770      862.087
07/22/2014  17:31:00     -331.462      -25.048      -17.518      163.894      116.786       75.339    26861.211    13638.961     5675.920        7.848        2.309      332.408       78.595        0.056      349.425       29.841      862.087
07/22/2014  17:32:00     -398.844      -57.627      -36.113      119.602      124.668       58.641    14304.615    15541.986     3438.794        9.849        1.664      402.985       53.857        0.018      349.188       29.428      862.060
07/22/2014  17:33:00     -249.719      -56.813       -1.763      108.983       84.241       62.206    11877.254     7096.545     3869.612        4.421        1.142      256.100       63.350        0.061      349.586       30.118      862.080
07/22/2014  17:34:00     -307.356     -199.933      -12.186      137.017      123.893       66.433    18773.709    15349.566     4413.305        8.656        1.927      366.662       67.859        0.034      349.275       29.581      862.114
07/22/2014  17:35:00     -198.184      -44.540        8.526      111.516      112.775       53.726    12435.863    12718.264     2886.474        3.468        1.402      203.127       53.261        0.069      349.463       29.908      862.107
07/22/2014  17:36:00     -174.375      -75.963      -10.347      106.914       69.499       40.277    11430.517     4830.049     1622.240        2.708        0.894      190.202       25.172        0.018      349.477       29.931      862.125
07/22/2014  17:37:00     -142.096      -78.709       18.815      114.928       84.208       55.820    13208.378     7090.959     3115.870        2.507        1.171      162.439       51.718        0.101      349.501       29.973      862.117
07/22/2014  17:38:00     -268.989     -150.053        4.394      115.961       81.158       48.911    13447.004     6586.598     2392.298        5.865        1.121      308.011       55.247        0.032      349.002       29.107      862.093
07/22/2014  17:39:00     -154.724      -91.964       -0.148      100.779       74.907       43.133    10156.472     5611.074     1860.465        2.501        0.881      179.991       48.730        0.073      349.148       29.360      862.058
07/22/2014  17:40:00     -157.721      -64.129        7.885       94.580       55.229       41.094     8945.317     3050.225     1688.758        2.136        0.684      170.260       36.344        0.046      349.304       29.632      862.056
07/22/2014  17:41:00     -370.826      -33.664      -23.998      181.342      145.422       74.882    32884.992    21147.473     5607.313        9.942        2.982      372.351       84.765        0.052      349.287       29.601      862.052
07/22/2014  17:42:00     -310.821       -7.106       -1.152      182.791      134.519       71.539    33412.529    18095.250     5117.835        7.663        2.831      310.903       80.932        0.068      349.412       29.816      862.072
07/22/2014  17:43:00     -415.681     -120.700      -12.289      174.314      154.219       82.701    30385.519    23783.451     6839.382       12.425        3.050      432.850       81.026        0.035      349.227       29.496      862.082
07/22/2014  17:44:00     -255.636     -123.426       -0.255      176.557      114.556       67.601    31172.261    13123.044     4569.845        6.471        2.443      283.873       81.688        0.083      349.193       29.439      862.085
07/22/2014  17:45:00     -177.361      -69.425        1.910      130.685      104.750       52.494    17078.491    10972.462     2755.670        3.354        1.540      190.464       53.354        0.078      349.249       29.538      862.070
07/22/2014  17:46:00     -159.618      -46.007        8.427      121.550       86.613       50.692    14774.431     7501.761     2569.721        2.625        1.242      166.116       58.609        0.124      349.560       30.074      862.048
07/22/2014  17:47:00     -325.558     -173.185        0.935      192.113      127.201       73.877    36907.452    16180.208     5457.801        9.725        2.927      368.756       76.928        0.044      349.411       29.815      862.015
07/22/2014  17:48:00     -299.385      -74.317      -11.707      209.544      139.017       72.151    43908.584    19325.675     5205.699        8.185        3.422      308.471       87.304        0.080      349.279       29.588      861.960
07/22/2014  17:49:00     -168.153      -71.911        6.112      162.782       83.595       65.215    26497.895     6988.132     4253.047        3.560        1.887      182.884       87.509        0.229      349.158       29.377      861.920
07/22/2014  17:50:00     -153.649       29.230        1.076      133.521       63.717       45.672    17827.791     4059.917     2085.929        2.421        1.199      156.405       65.463        0.175      349.321       29.662      861.903
07/22/2014  17:51:00      -83.565      -46.910       -8.533       70.467       75.458       42.019     4965.664     5693.917     1765.606        1.084        0.621       95.831       42.408        0.196      349.362       29.734      861.928
07/22/2014  17:52:00     -106.310     -115.294        3.829      105.752       89.613       41.266    11183.417     8030.481     1702.878        2.276        1.046      156.827       42.963        0.075      349.410       29.815      862.047
07/22/2014  17:53:00     -250.662     -138.964       -4.130      181.456      135.200       65.999    32926.238    18279.168     4355.810        6.885        2.778      286.605       63.730        0.049      349.292       29.610      862.092
07/22/2014  17:54:00     -513.176     -167.091      -31.676      203.792      169.692       91.919    41531.135    28795.470     8449.024       18.551        3.939      539.693      101.077        0.035      349.072       29.230      862.037
07/22/2014  17:55:00     -340.706      -93.989        1.171      189.778      160.078       85.235    36015.773    25625.079     7264.991        9.690        3.445      353.433       97.847        0.077      349.299       29.622      861.998
07/22/2014  17:56:00     -239.074     -233.456       -1.098      180.362      131.849       85.333    32530.495    17384.180     7281.643        8.442        2.860      334.153       67.962        0.041      349.340       29.692      861.971
07/22/2014  17:57:00     -191.857     -118.556       12.106      142.383      109.909       64.760    20272.932    12079.885     4193.879        4.377        1.827      225.532       66.358        0.087      349.562       30.076      861.949
07/22/2014  17:58:00     -169.787     -125.452        6.728      164.771      124.743       68.130    27149.377    15560.896     4641.645        4.597        2.368      211.106       81.121        0.148      349.514       29.995      861.948
07/22/2014  17:59:00     -307.056     -152.565        3.712      194.771      184.225       79.302    37935.555    33938.672     6288.729        9.785        3.908      342.869       87.894        0.066      349.324       29.666      861.939
07/22/2014  18:00:00     -240.446     -218.254       -3.981      162.926      148.326       84.420    26544.788    22000.693     7126.727        8.056        2.784      324.729       87.569        0.073      349.152       29.366      861.946
07/22/2014  18:01:00     -382.879     -190.985       11.741      204.495      172.313      102.821    41818.062    29691.656    10572.224       13.263        4.104      427.869      106.461        0.062      349.191       29.434      861.924
07/22/2014  18:02:00     -236.943     -190.235        7.579      190.796      145.664       93.124    36403.176    21218.136     8672.114        7.933        3.315      303.861      118.999        0.153      349.173       29.404      861.934
07/22/2014  18:03:00     -369.641      -81.658       -4.403      205.872      159.565       85.247    42383.240    25461.133     7267.076       10.920        3.756      378.554       90.095        0.057      349.245       29.528      861.913
07/22/2014  18:04:00     -402.534      -96.206       -8.703      207.518      133.835       72.893    43063.546    17911.868     5313.361       11.881        3.314      413.871       89.785        0.047      349.334       29.684      861.870
07/22/2014  18:05:00     -293.573      -70.127      -13.836      131.225      119.431       68.664    17219.907    14263.721     4714.744        6.374        1.810      301.832       74.599        0.061      349.384       29.770      861.856
07/22/2014  18:06:00     -137.262     -100.686        8.542      167.791      113.871       61.378    28153.981    12966.626     3767.284        3.696        2.244      170.231       85.108        0.250      349.398       29.797      861.827
07/22/2014  18:07:00      -87.954       32.950        0.420       73.836       96.593       42.424     5451.781     9330.155     1799.833        1.270        0.829       93.924       28.335        0.091      349.559       30.075      861.797
07/22/2014  18:08:00     -256.288      -64.850        0.324      177.368      170.397       77.738    31459.337    29034.972     6043.185        6.820        3.327      264.365       94.990        0.129      349.640       30.213      861.784
07/22/2014  18:09:00      -97.038     -248.688        9.652       79.817      126.687       56.547     6370.702    16049.619     3197.536        4.848        1.281      266.950       55.868        0.044      349.430       29.849      861.819
07/22/2014  18:10:00     -147.666      -95.145        3.229      116.050      148.280       53.946    13467.524    21986.899     2910.170        3.461        1.918      175.664       56.872        0.105      349.557       30.069      861.833
07/22/2014  18:11:00     -242.813     -176.279       -9.559      149.531      112.382       63.727    22359.665    12629.605     4061.167        6.458        1.953      300.054       59.336        0.039      349.454       29.891      861.851
07/22/2014  18:12:00     -267.278     -304.553      -11.339      177.300      199.246       86.930    31435.128    39699.117     7556.770       12.149        3.935      405.204       76.638        0.036      349.331       29.677      861.840
07/22/2014  18:13:00     -172.920     -331.121       -7.975      121.611      126.669       60.001    14789.140    16045.135     3600.065        8.701        1.722      373.554       59.558        0.025      349.206       29.459      861.858
07/22/2014  18:14:00     -252.941     -295.796       -9.862      170.744      131.506       70.489    29153.412    17293.781     4968.680       10.148        2.571      389.197       74.045        0.036      349.115       29.303      861.851
07/22/2014  18:15:00      -93.645     -151.494      -12.772      137.947      125.785       59.360    19029.464    15821.856     3523.621        3.512        1.919      178.101       59.879        0.113      349.393       29.785      861.861
07/22/2014  18:16:00     -202.670     -130.104        1.019       98.081       77.112       48.750     9619.882     5946.297     2376.590        3.797        0.897      240.836       36.582        0.023      349.379       29.763      861.909
07/22/2014  18:17:00     -108.036     -187.215       -9.104      102.762       86.783       43.371    10560.096     7531.231     1881.004        3.338        0.999      216.151       38.262        0.031      349.314       29.647      861.945
07/22/2014  18:18:00      -39.614     -286.624       -8.621       60.100       95.275       43.230     3612.056     9077.395     1868.840        4.917        0.728      289.349       16.114        0.003      349.233       29.508      861.978
07/22/2014  18:19:00      -76.112     -121.300       -4.016      120.623      120.395       65.630    14550.007    14494.952     4307.282        2.693        1.668      143.202       59.469        0.172      349.360       29.728      861.956
07/22/2014  18:20:00     -154.609     -147.416       15.082      123.994      134.167       61.127    15374.572    18000.863     3736.499        4.148        1.856      213.625       63.456        0.088      349.388       29.777      861.960
07/22/2014  18:21:00     -127.099     -115.683       -1.154      156.475       97.299       62.422    24484.521     9467.014     3896.479        3.369        1.892      171.863       28.380        0.027      349.261       29.557      861.940
07/22/2014  18:22:00      -53.628     -127.972      -12.435       90.435       93.352       51.987     8178.496     8714.507     2702.671        1.950        0.980      138.754       48.706        0.123      349.268       29.570      861.967
07/22/2014  18:23:00      -36.168     -140.644       -3.853       66.026       68.381       51.116     4359.461     4676.010     2612.870        1.637        0.582      145.220       46.594        0.103      349.503       29.978      861.968
07/22/2014  18:24:00      -38.444      -38.754       13.978       45.724       60.181       40.062     2090.654     3621.787     1604.981        0.524        0.366       54.588       39.233        0.517      349.597       30.141      861.961
07/22/2014  18:25:00      -29.867      -21.345        7.816       64.365       53.466       34.563     4142.808     2858.572     1194.593        0.480        0.410       36.710       14.563        0.157      349.575       30.102      861.967
07/22/2014  18:26:00      -20.373     -101.881        8.354      100.281       77.518       54.310    10056.329     6009.004     2949.545        1.494        0.951      103.898       43.434        0.175      349.464       29.910      861.953
07/22/2014  18:27:00       93.260     -144.403      -15.466       90.976      109.758       61.267     8276.653    12046.782     3753.647        2.693        1.204      171.901       56.188        0.107      349.106       29.289      861.958
07/22/2014  18:28:00       86.535     -209.305       -7.347      145.144      127.088       86.284    21066.726    16151.267     7445.009        4.800        2.233      226.488       78.208        0.119      349.148       29.358      861.929
07/22/2014  18:29:00       10.799     -126.815        0.575       95.764       73.977       52.419     9170.665     5472.624     2747.791        1.679        0.870      127.274       48.692        0.146      349.154       29.374      861.991
07/22/2014  18:30:00      104.961     -195.282       -7.570      122.203      149.941       80.035    14933.649    22482.258     6405.540        4.651        2.191      221.702       69.971        0.100      349.072       29.230      861.969
07/22/2014  18:31:00        3.147     -127.857      -24.869       77.110       96.225       49.298     5945.932     9259.180     2430.286        1.730        0.882      127.896       48.361        0.143      349.313       29.648      861.983
07/22/2014  18:32:00      -17.200     -136.774       34.676       75.523      123.416       55.259     5703.733    15231.522     3053.568        2.209        1.199      137.851       40.890        0.088      349.398       29.795      862.011
07/22/2014  18:33:00      -61.677      -42.994       19.586       72.236       49.345       33.150     5217.975     2434.977     1098.927        0.739        0.438       75.183       28.503        0.144      349.565       30.086      862.022
07/22/2014  18:34:00     -129.739     -231.022      -29.713      120.484      118.093       59.613    14516.293    13945.917     3553.738        5.154        1.601      264.959       53.696        0.041      349.361       29.729      862.058
07/22/2014  18:35:00     -150.779     -146.751        3.239      121.016       98.251       67.971    14644.806     9653.291     4620.094        3.659        1.446      210.405       53.388        0.064      349.330       29.676      862.073
07/22/2014  18:36:00     -102.559      -76.954       -5.568      135.726       78.703       51.004    18421.518     6194.198     2601.379        2.184        1.361      128.220       55.678        0.189      349.280       29.591      862.088
07/22/2014  18:37:00       31.194     -211.619       -6.941       90.474      122.336       52.260     8185.474    14965.998     2731.082        3.584        1.294      213.906       36.619        0.029      349.224       29.495      862.124
07/22/2014  18:38:00      -13.987      -88.911      -11.052       99.300       72.448       35.903     9860.453     5248.640     1289.007        1.231        0.820       90.004       20.287        0.051      349.280       29.591      862.131
07/22/2014  18:39:00     -103.951      -56.755        9.459       97.287       78.187       43.937     9464.753     6113.226     1930.482        1.581        0.875      118.435       44.372        0.140      349.362       29.733      862.130
07/22/2014  18:40:00     -106.533     -110.846       12.383       95.272       79.514       44.447     9076.731     6322.470     1975.558        2.058        0.869      153.740       38.907        0.064      349.398       29.796      862.147
07/22/2014  18:41:00     -195.223     -127.318        6.326      129.038       87.310       50.783    16650.925     7623.053     2578.870        4.060        1.343      233.070       29.515        0.016      349.302       29.628      862.159
07/22/2014  18:42:00     -188.996     -105.561        0.272       98.496       75.731       55.478     9701.421     5735.186     3077.827        3.268        0.926      216.477       45.521        0.044      349.365       29.738      862.162
07/22/2014  18:43:00     -154.043     -135.195        7.051      115.422      110.870       55.594    13322.138    12292.116     3090.729        3.537        1.435      204.956       52.470        0.066      349.298       29.620      862.165
07/22/2014  18:44:00     -151.257     -141.254       -6.804      145.491      129.939       54.428    21167.731    16884.209     2962.415        4.194        2.051      206.957       54.028        0.068      349.280       29.591      862.170
07/22/2014  18:45:00     -281.717     -134.728        3.899      125.647      113.764       71.118    15787.049    12942.213     5057.731        6.565        1.689      312.276       76.578        0.060      349.084       29.248      862.197
07/22/2014  18:46:00     -357.334     -240.093       -2.056      165.601      150.074       68.069    27423.847    22522.324     4633.448       11.995        2.729      430.502       73.302        0.029      348.914       28.954      862.172
07/22/2014  18:47:00     -417.059     -261.713       -5.742      193.799      142.636       73.494    37558.079    20345.069     5401.299       15.287        3.165      492.373       74.677        0.023      348.829       28.808      862.184
07/22/2014  18:48:00     -283.628     -194.045       13.498      183.569      143.793       83.551    33697.619    20676.510     6980.803        8.981        3.068      343.655       92.183        0.072      348.791       28.740      862.187
07/22/2014  18:49:00     -338.178     -226.293      -15.785      160.903      138.686       72.784    25889.702    19233.934     5297.487       10.811        2.521      406.906       75.904        0.035      348.732       28.639      862.182
07/22/2014  18:50:00     -245.540     -173.062        1.907      133.826      111.212       67.301    17909.453    12368.009     4529.401        6.252        1.740      300.400       71.110        0.056      348.783       28.727      862.183
07/22/2014  18:51:00     -170.273     -135.294        1.085      105.728      122.162       49.697    11178.311    14923.546     2469.779        3.793        1.429      217.480       44.745        0.042      348.855       28.853      862.185
07/22/2014  18:52:00     -100.496     -148.809       -4.807       77.975      100.702       40.933     6080.089    10140.852     1675.518        2.508        0.895      179.565       21.000        0.014      348.898       28.927      862.160
07/22/2014  18:53:00     -251.160     -184.341       -0.820      140.780      106.206       54.784    19818.921    11279.649     3001.323        6.558        1.705      311.549       50.915        0.027      348.927       28.977      862.169
07/22/2014  18:54:00     -279.144     -126.478       -2.018      126.645      100.832       59.954    16038.942    10167.131     3594.467        6.186        1.490      306.461       64.165        0.044      348.943       29.003      862.173
07/22/2014  18:55:00     -296.840     -203.655       -8.513      155.153      121.140       80.904    24072.440    14675.018     6545.381        8.747        2.265      359.986       86.753        0.058      348.776       28.716      862.168
07/22/2014  18:56:00     -218.431     -104.626        0.691      163.941      156.325       68.971    26876.800    24437.360     4757.050        5.735        2.804      242.196       79.593        0.108      348.861       28.863      862.149
07/22/2014  18:57:00     -242.730     -187.738        4.951      159.647      167.721       78.319    25487.054    28130.453     6133.844        7.696        2.988      306.861       79.214        0.067      348.852       28.847      862.149
07/22/2014  18:58:00     -458.946     -293.198      -17.026      233.196      187.885      105.139    54380.186    35300.959    11054.237       19.879        5.037      544.607      125.719        0.053      348.744       28.660      862.153
07/22/2014  18:59:00     -278.002     -162.700        5.859      171.308      157.829       80.321    29346.570    24909.935     6451.389        8.224        3.035      322.113       82.594        0.066      348.787       28.734      862.223
07/22/2014  19:00:00     -299.954     -108.046       10.150      153.542      140.132       63.081    23575.146    19637.044     3979.237        7.446        2.360      318.821       63.018        0.039      348.798       28.754      862.242
07/22/2014  19:01:00     -236.044      -55.407      -16.504       99.288       94.655       51.148     9858.197     8959.583     2616.085        4.024        1.072      242.459       47.371        0.038      348.818       28.789      862.228
07/22/2014  19:02:00     -277.489     -183.439       -3.723      157.027      156.429       70.886    24657.584    24470.186     5024.896        8.240        2.708      332.640       65.675        0.039      348.811       28.778      862.223
07/22/2014  19:03:00     -446.117     -325.589      -44.549      120.839      157.444       73.818    14601.981    24788.493     5449.162       17.592        2.242      552.294       74.157        0.018      348.697       28.579      862.211
07/22/2014  19:04:00     -204.265     -131.064       11.839      158.451      112.884       70.725    25106.634    12742.899     5001.984        5.094        2.143      242.697       79.034        0.106      348.750       28.672      862.262
07/22/2014  19:05:00     -226.207     -266.109       -5.665      170.184      160.815       68.769    28962.697    25861.546     4729.143        9.077        2.978      349.261       76.241        0.048      348.643       28.485      862.296
07/22/2014  19:06:00     -266.323     -194.258       11.200      173.182      110.495       65.968    29991.834    12209.217     4351.803        7.766        2.328      329.643       61.668        0.035      348.502       28.240      862.266
07/22/2014  19:07:00     -228.730     -179.243       -4.094      173.237      146.405       71.702    30010.923    21434.418     5141.194        7.051        2.829      290.595       73.922        0.065      348.530       28.289      862.303
07/22/2014  19:08:00     -381.314     -252.518       -7.002      190.293      135.222       81.041    36211.254    18284.923     6567.724       13.513        3.053      457.346       88.109        0.037      348.473       28.191      862.298
07/22/2014  19:09:00     -156.294     -112.037       19.356      143.089      151.318       72.533    20474.486    22897.092     5260.974        4.298        2.432      192.303       78.793        0.168      348.484       28.212      862.298
07/22/2014  19:10:00     -297.013      -83.542      -13.415      182.102      150.167       75.003    33161.157    22550.223     5625.451        7.834        3.067      308.538       71.246        0.053      348.446       28.144      862.270
07/22/2014  19:11:00     -458.605     -266.459      -34.707      168.037      187.296       91.987    28236.563    35079.776     8461.517       17.714        3.589      530.395       82.849        0.024      348.260       27.825      862.273
07/22/2014  19:12:00     -391.444     -187.768      -23.244      210.502      161.615       89.527    44311.143    26119.339     8015.129       13.372        3.922      434.149       79.729        0.034      348.250       27.807      862.240
07/22/2014  19:13:00     -415.447     -179.856      -24.007      248.240      170.953       89.459    61622.963    29225.059     8002.893       15.217        4.943      452.708      107.050        0.056      348.220       27.753      862.259
07/22/2014  19:14:00     -377.205     -273.005        0.873      236.571      195.282      124.203    55965.616    38135.133    15426.406       16.315        5.476      465.634      131.067        0.079      348.148       27.630      862.264
07/22/2014  19:15:00     -517.890     -355.714       -4.778      240.467      186.680      112.256    57824.281    34849.553    12601.439       25.000        5.264      628.285      125.441        0.040      348.054       27.468      862.238
07/22/2014  19:16:00     -364.039      -89.123        8.431      205.637      171.011       90.241    42286.608    29244.774     8143.409       11.009        3.984      374.789       96.595        0.066      348.129       27.596      862.307
07/22/2014  19:17:00     -360.349     -148.290       -3.620      189.557      199.838       89.702    35931.933    39935.394     8046.382       11.787        4.196      389.668       98.286        0.064      348.083       27.516      862.355
07/22/2014  19:18:00     -433.057      -93.943      -10.115      248.611      182.334       89.566    61807.291    33245.592     8022.077       14.975        5.154      443.130      120.274        0.074      348.026       27.419      862.366
07/22/2014  19:19:00     -516.428     -206.337      -27.044      251.710      207.920       98.301    63357.855    43230.716     9663.167       21.310        5.813      556.123      114.383        0.042      347.960       27.304      862.353
07/22/2014  19:20:00     -422.946     -151.928      -20.540      156.456      160.183       79.470    24478.586    25658.496     6315.543       12.941        2.823      449.406       87.655        0.038      347.975       27.331      862.371
07/22/2014  19:21:00     -318.269     -201.057       -4.406      183.523      173.906       88.866    33680.824    30243.225     7897.157       10.677        3.591      376.456       88.117        0.055      347.979       27.337      862.361
07/22/2014  19:22:00     -353.938     -289.789       -1.157      244.604      205.141      117.084    59830.997    42082.886    13708.742       16.241        5.781      457.438      138.305        0.091      347.947       27.280      862.326
07/22/2014  19:23:00     -289.316     -163.081       -4.002      222.016      200.803      103.102    49290.897    40321.743    10629.986       10.526        5.012      332.113      119.886        0.130      347.954       27.295      862.331
07/22/2014  19:24:00     -369.640     -208.180      -18.301      227.077      204.450      120.350    51563.782    41799.890    14484.026       14.406        5.392      424.232      125.428        0.087      347.872       27.152      862.341
07/22/2014  19:25:00     -273.553      -97.196        9.172      234.592      195.754      101.023    55033.370    38319.609    10205.671        9.394        5.178      290.307      114.809        0.156      347.904       27.208      862.339
07/22/2014  19:26:00     -410.440     -171.874       -6.440      201.193      156.464       88.690    40478.723    24481.040     7866.003       13.542        3.641      444.973       81.936        0.034      347.890       27.184      862.376
07/22/2014  19:27:00     -428.035     -236.397       -7.977      204.088      178.426       98.339    41651.801    31835.968     9670.552       16.114        4.158      488.976       90.682        0.034      347.794       27.018      862.407
07/22/2014  19:28:00     -383.954     -175.080       -5.936      229.316      185.913       94.039    52585.943    34563.621     8843.322       13.703        4.800      421.988      105.123        0.062      347.764       26.966      862.394
07/22/2014  19:29:00     -435.126     -242.297       -1.644      282.506      228.731      112.263    79809.465    52317.886    12603.065       19.636        7.237      498.039      131.787        0.070      347.722       26.892      862.377
07/22/2014  19:30:00     -484.681     -230.916      -14.656      232.235      168.922       87.077    53932.885    28534.493     7582.435       18.923        4.502      536.878      104.777        0.038      347.703       26.862      862.394
07/22/2014  19:31:00     -428.689     -305.692      -19.635      228.269      195.999      101.125    52106.899    38415.752    10226.279       18.916        5.037      526.519       94.940        0.033      347.714       26.881      862.416
07/22/2014  19:32:00     -485.045     -253.840      -23.551      166.513      146.944       85.265    27726.681    21592.595     7270.145       17.841        2.829      547.452       88.435        0.026      347.707       26.868      862.443
07/22/2014  19:33:00     -411.860     -171.530       -9.879      185.953      117.746       74.620    34578.638    13864.154     5568.085       12.657        2.701      446.152       76.314        0.029      347.729       26.905      862.507
07/22/2014  19:34:00     -413.141     -185.333       -6.225      207.738      143.113       89.177    43154.892    20481.256     7952.536       13.832        3.579      452.807       92.589        0.042      347.706       26.867      862.499
07/22/2014  19:35:00     -344.937     -109.289        0.398      201.017      169.955       87.272    40407.846    28884.542     7616.477       10.390        3.845      361.837       94.702        0.069      347.653       26.776      862.510
07/22/2014  19:36:00     -363.674     -271.782      -23.738      161.397      143.919       85.842    26048.920    20712.725     7368.764       13.040        2.707      454.009       91.282        0.040      347.629       26.733      862.534
07/22/2014  19:37:00     -387.252     -134.705      -11.999      146.084      109.593       63.643    21340.542    12010.691     4050.433       10.282        1.870      410.012       56.103        0.019      347.638       26.748      862.543
07/22/2014  19:38:00     -276.778     -195.530       -5.954      161.973      132.674       85.522    26235.103    17602.374     7313.939        8.300        2.558      338.877       84.982        0.063      347.643       26.758      862.560
07/22/2014  19:39:00     -417.368     -106.485      -29.747      152.512      207.630       88.198    23259.888    43110.077     7778.885       13.027        3.707      430.738       73.882        0.029      347.641       26.753      862.571
07/22/2014  19:40:00     -340.814      -68.260       -3.065      184.630      135.269       80.057    34088.258    18297.719     6409.165        8.980        2.940      347.583      102.189        0.086      347.627       26.731      862.570
07/22/2014  19:41:00     -254.000     -102.223       -1.748       92.980      112.594       57.514     8645.194    12677.297     3307.859        4.979        1.232      273.798       54.175        0.039      347.643       26.757      862.589
07/22/2014  19:42:00     -270.415      -96.441       -3.548      167.039      109.283       69.266    27901.989    11942.685     4797.822        6.353        2.232      287.098       82.081        0.082      347.622       26.722      862.610
07/22/2014  19:43:00     -262.414     -107.796       -8.418      206.015      144.801       89.388    42442.173    20967.384     7990.186        7.596        3.570      283.692      104.478        0.136      347.574       26.639      862.612
07/22/2014  19:44:00     -255.856      -74.674       -1.204      166.851       89.052       65.432    27839.201     7930.190     4281.288        5.554        2.003      266.530       76.732        0.083      347.613       26.708      862.624
07/22/2014  19:45:00     -347.462     -183.415      -13.854      136.252      180.691       82.855    18564.678    32649.289     6864.996       10.631        2.904      392.901       70.854        0.033      347.528       26.558      862.630
07/22/2014  19:46:00     -344.033     -175.925      -26.576      158.693      107.286       72.623    25183.427    11510.242     5274.110        9.598        2.098      386.404       72.469        0.035      347.531       26.564      862.645
07/22/2014  19:47:00     -361.568      -84.559      -19.159      167.225      113.209       72.515    27964.179    12816.352     5258.357        9.213        2.302      371.324       67.488        0.033      347.506       26.520      862.675
07/22/2014  19:48:00     -117.899      -44.294        3.507      100.645       92.700       74.553    10129.381     8593.293     5558.204        2.007        1.214      125.945       66.521        0.279      347.545       26.591      862.674
07/22/2014  19:49:00     -283.905     -113.822      -23.021      136.974      139.967       65.096    18761.765    19590.894     4237.461        6.833        2.130      305.872       64.819        0.045      347.529       26.561      862.692
07/22/2014  19:50:00     -439.915      -80.884      -21.543      185.357      128.660       82.754    34357.331    16553.350     6848.143       12.913        2.888      447.289       93.541        0.044      347.465       26.449      862.695
07/22/2014  19:51:00     -407.208     -136.758      -24.053      127.270      145.490       78.377    16197.604    21167.223     6142.911       11.429        2.175      429.559       57.292        0.018      347.456       26.434      862.720
07/22/2014  19:52:00     -297.085      -36.632        1.506      164.884      101.855       73.130    27186.746    10374.495     5348.062        6.625        2.145      299.334       78.051        0.068      347.439       26.404      862.742
07/22/2014  19:53:00     -367.233     -101.602      -16.078      181.456      111.506       74.552    32926.446    12433.662     5557.985        9.817        2.546      381.029       93.494        0.060      347.419       26.371      862.763
07/22/2014  19:54:00     -289.559       -3.061      -11.096      197.515      113.898       78.498    39012.272    12972.675     6162.007        7.105        2.907      289.575      104.379        0.130      347.405       26.348      862.779
07/22/2014  19:55:00     -464.085      -34.475      -30.200      157.988      127.191       78.757    24960.320    16177.537     6202.731       13.240        2.367      465.363       78.720        0.029      347.406       26.348      862.800
07/22/2014  19:56:00     -402.478      -11.874      -30.194      162.817      127.055       69.680    26509.371    16143.044     4855.310       10.526        2.375      402.653       81.929        0.041      347.375       26.295      862.838
07/22/2014  19:57:00     -323.960     -104.956      -11.298      131.832      122.476       57.864    17379.652    15000.277     3348.227        7.590        1.786      340.538       46.265        0.018      347.377       26.298      862.861
07/22/2014  19:58:00     -399.235      -91.787      -14.772      179.788      122.903       78.116    32323.616    15105.092     6102.090       11.077        2.677      409.650       82.578        0.041      347.341       26.238      862.885
07/22/2014  19:59:00     -433.024     -120.844       -9.970      145.094       98.584       67.178    21052.167     9718.819     4512.918       11.874        1.764      449.570       65.511        0.021      347.334       26.224      862.910
07/22/2014  20:00:00     -369.165      -97.957      -11.382      121.628      106.690       58.445    14793.379    11382.849     3415.813        8.779        1.480      381.940       59.895        0.025      347.313       26.187      862.933
07/22/2014  20:01:00     -249.083      -62.420      -14.760      138.023       92.180       63.701    19050.470     8497.178     4057.795        4.887        1.580      256.785       74.077        0.083      347.309       26.181      862.944
07/22/2014  20:02:00     -310.969     -117.144      -22.791      108.819       90.855       57.424    11841.550     8254.703     3297.551        6.716        1.170      332.302       52.490        0.025      347.311       26.184      862.955
07/22/2014  20:03:00     -181.496      -32.611      -15.865       74.254       76.997       38.579     5513.634     5928.550     1488.312        2.359        0.647      184.402       38.030        0.043      347.307       26.180      862.979
07/22/2014  20:04:00     -103.470      -10.300       -1.084       60.966       66.402       43.984     3716.859     4409.172     1934.615        1.043        0.503      103.981       33.867        0.106      347.334       26.226      862.992
07/22/2014  20:05:00     -165.113      -61.017       -5.146       86.860       66.600       39.010     7544.734     4435.524     1521.816        2.225        0.675      176.027       40.872        0.054      347.298       26.164      863.010
07/22/2014  20:06:00     -151.731      -93.558       -8.788       59.902       45.696       30.213     3588.295     2088.105      912.850        1.922        0.329      178.257       28.013        0.025      347.264       26.106      863.025
07/22/2014  20:07:00     -244.814      -33.181      -16.778       89.663       58.824       40.250     8039.421     3460.267     1620.033        3.722        0.656      247.053       26.164        0.011      347.289       26.149      863.044
07/22/2014  20:08:00     -282.974      -39.957      -24.463       83.395       67.537       45.430     6954.744     4561.303     2063.877        4.792        0.679      285.781       47.582        0.028      347.260       26.096      863.048
07/22/2014  20:09:00     -123.365      -23.840       -0.499       97.253       96.532       31.530     9458.098     9318.491      994.132        1.778        0.989      125.647       19.445        0.024      347.232       26.049      863.053
07/22/2014  20:10:00     -343.210       85.505      -31.386      181.588      116.440       59.667    32974.192    13558.331     3560.191        8.808        2.505      353.700       60.884        0.030      347.235       26.054      863.070
07/22/2014  20:11:00     -243.208      -81.039      -20.035       57.302       73.761       38.953     3283.575     5440.616     1517.336        3.818        0.512      256.354       10.243        0.002      347.246       26.071      863.063
07/22/2014  20:12:00      -69.627       -0.747       -1.575       66.398       45.131       34.848     4408.665     2036.818     1214.379        0.625        0.383       69.631       16.263        0.055      347.224       26.039      863.104
07/22/2014  20:13:00      -90.095       34.364      -16.005       88.253       65.404       38.958     7788.658     4277.687     1517.705        1.157        0.679       96.426       43.425        0.203      347.192       25.983      863.114
07/22/2014  20:14:00      -96.304       89.769      -14.039       54.779       78.592       38.924     3000.717     6176.764     1515.086        1.411        0.535      131.654       26.151        0.039      347.161       25.928      863.122
07/22/2014  20:15:00     -127.518      -51.839       -8.558       92.967       70.283       43.208     8642.956     4939.672     1866.948        1.723        0.772      137.652       49.003        0.127      347.173       25.949      863.136
07/22/2014  20:16:00     -161.861      -52.564       -6.201       87.618       69.617       36.582     7676.979     4846.547     1338.216        2.143        0.693      170.182       40.197        0.056      347.156       25.917      863.163
07/22/2014  20:17:00     -177.009       19.707      -20.987      102.124       81.708       38.259    10429.354     6676.174     1463.767        2.536        0.928      178.103       46.616        0.069      347.147       25.903      863.184
07/22/2014  20:18:00     -186.193       30.070      -19.473       61.899       88.003       33.605     3831.470     7744.506     1129.304        2.433        0.635      188.605       26.899        0.020      347.161       25.926      863.167
07/22/2014  20:19:00     -165.878       84.102      -20.297       46.039       51.654       30.445     2119.600     2668.152      926.906        2.036        0.286      185.980        6.739        0.001      347.129       25.875      863.179
07/22/2014  20:20:00      -84.002      105.039      -15.290       64.601       35.397       30.686     4173.310     1252.966      941.606        1.234        0.318      134.497       34.811        0.067      347.096       25.819      863.194
07/22/2014  20:21:00      -99.525       64.388      -15.230       29.163       39.921       20.386      850.462     1593.672      415.582        0.857        0.143      118.538       11.564        0.010      347.158       25.922      863.211
07/22/2014  20:22:00      -95.498       43.686      -11.151       30.158       47.667       28.922      909.525     2272.145      836.494        0.758        0.201      105.016       24.103        0.053      347.172       25.949      863.231
07/22/2014  20:23:00      -99.415       17.518       -5.114       69.278       43.097       25.445     4799.385     1857.337      647.471        0.876        0.365      100.947       28.427        0.079      347.149       25.910      863.264
07/22/2014  20:24:00     -109.105      -33.265       -2.546       53.162       56.154       34.775     2826.247     3153.247     1209.301        1.010        0.359      114.063       28.545        0.063      347.109       25.841      863.287
07/22/2014  20:25:00      -65.172      -37.594        2.947       50.436       28.554       25.039     2543.788      815.311      626.956        0.483        0.199       75.237       20.220        0.072      347.065       25.765      863.310
07/22/2014  20:26:00      -25.161       41.351       -3.415       59.969       41.324       28.969     3596.281     1707.677      839.217        0.425        0.307       48.405       30.258        0.391      347.087       25.801      863.320
07/22/2014  20:27:00       12.782       58.117        3.320       40.146       36.810       20.368     1611.726     1354.950      414.857        0.347        0.169       59.506       23.649        0.158      347.030       25.705      863.313
07/22/2014  20:28:00      -51.448      148.014       -6.185       52.306       68.408       39.373     2735.963     4679.674     1550.208        1.678        0.448      156.701       40.896        0.068      347.025       25.694      863.302
07/22/2014  20:29:00      -87.925       65.900      -18.223       44.069       55.606       34.112     1942.085     3091.989     1163.642        0.930        0.310      109.880       24.293        0.049      346.965       25.592      863.299
07/22/2014  20:30:00      -88.453       38.745      -15.270       32.535       45.277       22.966     1058.498     2049.987      527.419        0.660        0.182       96.567       15.899        0.027      346.991       25.638      863.296
07/22/2014  20:31:00     -138.091      -63.641      -10.055      117.708       71.004       29.054    13855.126     5041.560      844.134        2.148        0.987      152.050       22.120        0.021      347.075       25.781      863.277
07/22/2014  20:32:00     -277.511       -8.344      -31.649      110.716       79.855       42.657    12258.071     6376.797     1819.631        4.926        1.023      277.636       28.772        0.011      347.066       25.762      863.243
07/22/2014  20:33:00     -154.067      -47.407        7.448       90.526       83.005       41.921     8194.990     6889.832     1757.337        2.144        0.842      161.195       29.813        0.034      347.011       25.668      863.223
07/22/2014  20:34:00     -204.766      -82.484       -2.440       66.348       61.550       34.479     4402.026     3788.427     1188.784        2.906        0.469      220.755       33.004        0.022      346.996       25.642      863.224
07/22/2014  20:35:00     -180.668      -97.860       -9.805      104.027       64.383       42.436    10821.623     4145.136     1800.814        2.954        0.838      205.469       48.143        0.055      346.948       25.561      863.225
07/22/2014  20:36:00     -217.277      -99.461        0.908       77.076       53.393       37.999     5940.762     2850.865     1443.896        3.367        0.512      238.959       30.774        0.017      346.867       25.420      863.224
07/22/2014  20:37:00     -216.105      -41.889      -16.137       57.378       66.664       27.139     3292.206     4444.082      736.514        2.859        0.424      220.128       27.546        0.016      346.952       25.567      863.204
07/22/2014  20:38:00     -180.800      -54.267      -13.402       74.723       51.297       34.152     5583.485     2631.338     1166.387        2.260        0.469      188.768       32.091        0.029      346.925       25.523      863.191
07/22/2014  20:39:00     -198.881       -6.606      -12.817       91.573       69.031       44.950     8385.567     4765.267     2020.505        2.746        0.759      198.991       51.423        0.067      346.884       25.449      863.195
07/22/2014  20:40:00     -239.234      -99.382       -3.387       80.838       55.436       41.125     6534.733     3073.144     1691.243        3.921        0.565      259.055       39.705        0.023      346.861       25.409      863.223
07/22/2014  20:41:00     -231.988      -41.968      -11.446       76.589       67.823       43.640     5865.950     4599.966     1904.487        3.404        0.619      235.754       39.396        0.028      346.926       25.520      863.240
07/22/2014  20:42:00     -175.761       12.552      -24.883       42.694       37.229       27.184     1822.784     1386.006      738.953        1.781        0.197      176.208       19.057        0.012      346.941       25.548      863.222
07/22/2014  20:43:00      -75.583       16.899       -3.645       39.074       37.719       18.684     1526.785     1422.730      349.090        0.465        0.165       77.449       20.205        0.068      346.886       25.456      863.222
07/22/2014  20:44:00      -53.496       97.663       -8.468       38.408       69.325       25.535     1475.143     4805.984      652.047        0.970        0.347      111.355       13.394        0.014      346.860       25.412      863.229
07/22/2014  20:45:00      -74.073      104.905       -9.862       37.842       47.660       26.791     1431.994     2271.457      717.731        1.050        0.221      128.421       19.416        0.023      346.854       25.401      863.230
07/22/2014  20:46:00     -117.793      100.601      -23.630       44.997       47.205       24.386     2024.689     2228.351      594.658        1.470        0.242      154.906       19.523        0.016      346.859       25.409      863.224
07/22/2014  20:47:00     -103.027       30.856      -13.621       52.270       44.587       23.239     2732.122     1988.017      540.051        0.851        0.263      107.549       15.971        0.022      346.919       25.513      863.251
07/22/2014  20:48:00      -69.848       53.258       -0.293       28.097       40.408       19.580      789.447     1632.785      383.383        0.526        0.140       87.836       18.794        0.046      346.971       25.603      863.258
07/22/2014  20:49:00      -10.629       92.548      -14.192       44.921       40.281       22.818     2017.908     1622.546      520.654        0.652        0.208       93.157       24.478        0.069      346.829       25.357      863.269
07/22/2014  20:50:00     -104.654       89.459      -12.916       58.493       40.752       36.171     3421.402     1660.690     1308.341        1.276        0.320      137.678       22.812        0.027      346.831       25.360      863.319
07/22/2014  20:51:00     -107.393      142.905      -27.557       44.220       71.779       31.395     1955.388     5152.178      985.676        2.040        0.405      178.760       19.016        0.011      346.862       25.413      863.319
07/22/2014  20:52:00     -126.352       19.846      -17.810       43.726       39.162       16.320     1911.945     1533.645      266.341        1.019        0.186      127.901       13.581        0.011      346.824       25.351      863.348
07/22/2014  20:53:00     -107.776      -49.024      -17.527      115.416       57.983       37.194    13320.885     3361.984     1383.399        1.619        0.903      118.402       49.629        0.176      346.880       25.444      863.362
07/22/2014  20:54:00      -41.569      -16.720       13.232       86.401       65.396       34.634     7465.131     4276.595     1199.493        0.756        0.647       44.806       40.946        0.835      346.846       25.387      863.341
07/22/2014  20:55:00     -221.968     -127.482       17.654      175.635      150.655       79.329    30847.524    22697.076     6293.111        6.282        2.992      255.972       83.585        0.107      346.983       25.619      863.324
07/22/2014  20:56:00     -250.307     -200.471        2.145      169.514      116.634       79.030    28734.929    13603.511     6245.803        7.571        2.429      320.690       90.362        0.079      347.059       25.750      863.350
07/22/2014  20:57:00     -316.990     -222.780      -14.262      113.867      102.504       63.511    12965.757    10506.985     4033.601        8.891        1.375      387.445       58.797        0.023      347.080       25.785      863.357
07/22/2014  20:58:00     -317.450     -146.042      -13.449      128.701      129.544       62.738    16564.008    16781.656     3936.049        7.978        1.864      349.432       70.944        0.041      347.015       25.675      863.389
07/22/2014  20:59:00     -293.758     -135.026      -22.574       88.326       59.197       47.845     7801.458     3504.274     2289.158        5.931        0.680      323.304       38.510        0.014      347.051       25.735      863.387
07/22/2014  21:00:00     -210.972      -75.626      -19.596       93.650       75.990       42.185     8770.384     5774.555     1779.576        3.347        0.816      224.117       28.185        0.016      347.008       25.662      863.388
07/22/2014  21:01:00     -232.253      -62.813        5.649      136.290      116.110       56.897    18574.892    13481.430     3237.302        4.660        1.765      240.597       63.540        0.070      346.964       25.588      863.401
07/22/2014  21:02:00     -259.589     -153.411       -0.416      133.078      112.190       66.992    17709.710    12586.650     4487.905        6.285        1.739      301.531       69.450        0.053      346.958       25.578      863.428
07/22/2014  21:03:00     -168.863     -136.838        0.589      160.586      104.826       67.359    25787.838    10988.466     4537.208        4.427        2.066      217.346       82.691        0.145      347.013       25.672      863.469
07/22/2014  21:04:00     -119.647       -7.437       11.292       81.426       89.327       54.059     6630.218     7979.240     2922.354        1.601        0.877      119.878       48.609        0.164      346.983       25.622      863.488
07/22/2014  21:05:00     -211.668     -105.720       -8.525       99.337       66.709       42.626     9867.818     4450.048     1816.987        3.609        0.807      236.601       43.170        0.033      347.001       25.650      863.495
07/22/2014  21:06:00     -320.916     -107.397       -7.821       93.684       86.532       44.646     8776.622     7487.774     1993.252        6.642        0.913      338.409       39.450        0.014      347.009       25.666      863.496
07/22/2014  21:07:00     -366.058      -70.060      -13.458      151.723       89.601       58.977    23019.969     8028.406     3478.272        8.680        1.726      372.702       52.282        0.020      347.005       25.658      863.523
07/22/2014  21:08:00     -270.987     -109.493       -3.892      141.578       91.395       64.744    20044.399     8353.081     4191.836        5.901        1.629      292.271       70.726        0.059      346.991       25.634      863.566
07/22/2014  21:09:00     -223.389     -128.168        1.394      196.812      120.969       77.691    38734.953    14633.545     6035.935        6.286        2.970      257.546       91.493        0.126      346.953       25.569      863.614
07/22/2014  21:10:00     -339.618      -52.221      -10.859      153.109       98.009       62.750    23442.363     9605.857     3937.568        7.758        1.849      343.610       71.734        0.044      346.859       25.406      863.642
07/22/2014  21:11:00     -386.843      -96.741        1.547      144.489      107.326       68.379    20877.201    11518.872     4675.660        9.803        1.854      398.756       74.153        0.035      346.750       25.217      863.657
07/22/2014  21:12:00     -258.158     -216.406        8.644      158.202      136.863       74.568    25027.991    18731.447     5560.371        8.143        2.466      336.863       74.752        0.049      346.706       25.142      863.674
07/22/2014  21:13:00     -169.250     -253.444       -5.233      125.730       96.957       60.988    15808.029     9400.675     3719.507        6.091        1.446      304.761       61.751        0.041      346.732       25.188      863.677
07/22/2014  21:14:00     -181.286     -123.101       14.706      124.743      103.827       53.217    15560.933    10779.996     2831.999        3.870        1.459      219.131       52.817        0.058      346.704       25.137      863.697
07/22/2014  21:15:00     -121.486     -277.520        4.888      101.419      140.757       44.842    10285.828    19812.652     2010.822        6.195        1.605      302.946       47.175        0.024      346.695       25.125      863.751
07/22/2014  21:16:00     -162.056     -171.247        7.916      120.085       90.218       43.540    14420.466     8139.301     1895.733        4.005        1.223      235.770       29.810        0.016      346.662       25.067      863.759
07/22/2014  21:17:00     -120.012      -87.733       -1.155       99.980       79.923       48.433     9995.926     6387.684     2345.793        2.041        0.936      148.660       55.739        0.141      346.573       24.916      863.786
07/22/2014  21:18:00     -176.948       39.370        5.717      132.121       59.959       53.419    17455.869     3595.042     2853.572        2.839        1.195      181.274       69.297        0.146      346.556       24.886      863.795
07/22/2014  21:19:00     -166.143       20.628      -12.776       87.501       58.203       33.701     7656.444     3387.534     1135.767        2.018        0.609      167.419       26.926        0.026      346.498       24.787      863.791
07/22/2014  21:20:00      -41.813       31.316        7.764       59.851       51.090       32.940     3582.180     2610.219     1085.056        0.503        0.364       52.240       33.356        0.408      346.403       24.626      863.753
07/22/2014  21:21:00     -214.458      -19.281      -13.252      132.952      111.556       58.542    17676.233    12444.679     3427.131        4.004        1.677      215.323       69.777        0.105      346.409       24.633      863.699
07/22/2014  21:22:00     -337.524      -37.942       -6.285      168.418      113.386       60.350    28364.571    12856.412     3642.136        8.012        2.243      339.650       72.547        0.046      346.386       24.591      863.701
07/22/2014  21:23:00     -310.098      -70.945       -8.834      208.135      118.259       61.149    43320.189    13985.121     3739.207        8.115        3.052      318.109       76.559        0.058      346.348       24.527      863.720
07/22/2014  21:24:00     -354.302      -38.874      -20.387      133.001       81.914       50.224    17689.145     6709.876     2522.483        7.718        1.346      356.428       51.846        0.021      346.299       24.444      863.688
07/22/2014  21:25:00     -292.490      -66.799      -15.593      133.420       89.682       53.835    17800.946     8042.934     2898.183        5.949        1.437      300.021       58.056        0.037      346.255       24.367      863.671
07/22/2014  21:26:00     -238.121     -123.304        0.984      177.326      129.293       70.071    31444.515    16716.561     4909.987        6.248        2.654      268.152       71.816        0.072      346.224       24.314      863.672
07/22/2014  21:27:00     -219.414     -127.626       -2.916       92.672       88.141       47.177     8588.098     7768.757     2225.712        4.151        0.929      253.832       50.143        0.039      346.251       24.360      863.681
07/22/2014  21:28:00     -155.695     -101.569       -6.207       63.127       75.763       46.208     3985.019     5740.007     2135.204        2.323        0.593      185.896       31.871        0.029      346.231       24.327      863.653
07/22/2014  21:29:00     -121.190      -66.751       11.277      119.338       95.084       55.254    14241.670     9041.013     3053.042        2.280        1.317      138.357       67.371        0.237      346.208       24.288      863.635
07/22/2014  21:30:00     -191.758      -60.368        3.670      157.978      120.034       62.846    24956.935    14408.101     3949.579        4.186        2.166      201.036       69.304        0.119      346.186       24.249      863.635
07/22/2014  21:31:00     -245.954     -144.674      -14.024      191.296      135.579       86.678    36594.237    18381.544     7513.124        7.204        3.124      285.348       95.277        0.111      346.192       24.259      863.598
07/22/2014  21:32:00     -387.886     -110.905       -6.582      210.601      124.735       70.704    44352.633    15558.707     4999.104       11.384        3.246      403.430       85.100        0.044      346.185       24.246      863.590
07/22/2014  21:33:00     -411.824      -16.368      -14.494      208.932      139.416       89.189    43652.457    19436.722     7954.623       12.055        3.552      412.149      106.073        0.066      346.175       24.230      863.579
07/22/2014  21:34:00     -375.610     -229.531      -19.798      215.602      111.789       80.892    46484.208    12496.680     6543.589       12.983        3.276      440.190       69.454        0.025      346.203       24.276      863.594
07/22/2014  21:35:00     -373.327     -202.315       -5.822      228.185      125.621       94.216    52068.266    15780.585     8876.599       12.852        3.836      424.623      111.243        0.069      346.172       24.223      863.583
07/22/2014  21:36:00     -271.143     -129.575      -20.804      150.500       83.057       61.704    22650.171     6898.451     3807.422        6.204        1.668      300.513       60.645        0.041      346.159       24.203      863.558
07/22/2014  21:37:00     -423.656     -108.611       -8.169      224.330      143.484       79.305    50323.980    20587.623     6289.283       13.426        3.860      437.357       91.818        0.044      346.152       24.189      863.569
07/22/2014  21:38:00     -298.898     -190.165       -2.459      135.402      120.997       63.391    18333.676    14640.359     4018.465        8.124        1.850      354.264       61.214        0.030      346.170       24.221      863.556
07/22/2014  21:39:00      -80.368      -51.012       19.700      120.077       83.467       68.393    14418.428     6966.761     4677.581        1.775        1.303       95.190       71.834        0.569      346.087       24.080      863.571
07/22/2014  21:40:00     -279.047     -152.162        8.109      224.708      141.145       79.704    50493.791    19921.828     6352.706        8.891        3.838      317.837      104.624        0.108      346.063       24.036      863.582
07/22/2014  21:41:00     -246.595       39.424      -15.702      103.061       73.532       50.248    10621.572     5406.921     2524.890        4.058        0.928      249.726       50.354        0.041      346.075       24.057      863.576
07/22/2014  21:42:00     -303.271      -45.139      -17.845      190.901      113.814       61.996    36443.284    12953.526     3843.518        7.377        2.662      306.612       82.337        0.072      346.023       23.969      863.601
07/22/2014  21:43:00     -384.828     -153.014      -26.092      199.633      154.167       73.308    39853.217    23767.331     5374.065       12.058        3.450      414.133       86.262        0.043      346.056       24.025      863.604
07/22/2014  21:44:00     -277.626     -128.651      -28.727       99.082      115.026       59.865     9817.259    13230.908     3583.853        6.054        1.332      305.986       54.953        0.032      346.062       24.035      863.647
07/22/2014  21:45:00     -187.429     -143.290      -16.041      119.061       77.336       52.174    14175.627     5980.813     2722.152        3.939        1.144      235.927       51.146        0.047      346.061       24.035      863.649
07/22/2014  21:46:00     -158.805     -105.426       -0.873      102.520       96.921       48.964    10510.303     9393.712     2397.488        2.931        1.115      190.614       43.446        0.052      346.018       23.962      863.668
07/22/2014  21:47:00     -179.628      -54.668      -11.346      113.627       83.492       40.454    12911.062     6970.950     1636.557        2.845        1.076      187.762       35.599        0.036      345.973       23.884      863.664
07/22/2014  21:48:00     -295.021      -89.560       -4.639      155.639      121.770       67.376    24223.631    14828.020     4539.478        6.933        2.180      308.315       62.645        0.041      346.010       23.948      863.665
07/22/2014  21:49:00     -446.727      -95.958      -11.509      186.386      129.881       87.084    34739.574    16868.987     7583.657       13.404        2.960      456.917       94.715        0.043      346.011       23.949      863.661
07/22/2014  21:50:00     -245.816      -26.238        5.982      166.136      115.710       72.332    27601.024    13388.847     5231.921        5.368        2.311      247.212       78.078        0.100      345.981       23.897      863.673
07/22/2014  21:51:00     -296.596     -119.860       -2.812      156.105       98.688       64.156    24368.918     9739.389     4115.999        7.028        1.911      319.900       64.870        0.041      345.971       23.879      863.695
07/22/2014  21:52:00     -330.255     -129.263      -23.586      193.023      184.565       82.109    37257.883    34064.295     6741.875       10.218        3.903      354.651       99.809        0.079      345.943       23.832      863.726
07/22/2014  21:53:00     -244.357      -11.735       -5.591      183.841      116.120       67.244    33797.536    13483.742     4521.754        5.583        2.590      244.639       63.234        0.067      345.945       23.835      863.724
07/22/2014  21:54:00     -366.445      -30.708      -13.002      144.989      124.902       77.117    21021.926    15600.556     5946.977        8.897        2.128      367.730       80.376        0.048      345.916       23.784      863.730
07/22/2014  21:55:00     -199.844      -90.945       15.824      220.152      143.550       93.170    48467.077    20606.549     8680.593        6.309        3.888      219.565       94.832        0.187      345.933       23.815      863.776
07/22/2014  21:56:00     -297.522     -138.937       -4.717      150.951       80.293       57.173    22786.204     6446.947     3268.773        7.017        1.625      328.364       63.689        0.038      345.985       23.903      863.835
07/22/2014  21:57:00     -231.023     -153.655       -5.700      114.967       81.823       48.450    13217.360     6694.976     2347.443        4.963        1.113      277.455       50.162        0.033      345.962       23.865      863.854
07/22/2014  21:58:00     -301.365     -201.630        1.759      182.263      141.253       69.327    33219.934    19952.520     4806.234        9.472        2.899      362.596       71.766        0.039      345.934       23.816      863.852
07/22/2014  21:59:00     -341.712      -75.871      -15.559      138.208      116.126       65.635    19101.327    13485.279     4307.921        7.982        1.845      350.034       60.422        0.030      345.930       23.808      863.854
07/22/2014  22:00:00     -288.878     -123.247       -8.002      148.984      113.808       67.279    22196.271    12952.368     4526.402        6.918        1.984      314.070       73.449        0.055      345.920       23.792      863.884
07/22/2014  22:01:00     -327.821     -132.838        0.966      138.617      130.721       67.727    19214.716    17087.977     4587.005        8.299        2.044      353.713       63.845        0.033      345.915       23.784      863.895
07/22/2014  22:02:00     -383.593      -60.618      -12.990      227.563      123.179       82.760    51785.005    15173.010     6849.266       11.238        3.690      388.353       93.636        0.058      345.881       23.726      863.853
07/22/2014  22:03:00     -574.720     -136.169      -12.306      152.584      120.533       76.355    23281.952    14528.240     5830.025       19.631        2.182      590.631       67.604        0.013      345.888       23.737      863.837
07/22/2014  22:04:00     -388.110      -47.799       -5.832      199.683      134.988       78.598    39873.193    18221.743     6177.678       10.860        3.214      391.042       88.056        0.051      345.837       23.652      863.863
07/22/2014  22:05:00     -382.008      -84.458       -7.955      169.478      131.756       65.573    28722.897    17359.765     4299.802       10.174        2.519      391.233       72.129        0.034      345.799       23.585      863.886
07/22/2014  22:06:00     -307.261     -156.986       -8.506      153.803      113.427       61.554    23655.413    12865.616     3788.854        7.971        2.015      345.042       63.063        0.033      345.792       23.572      863.926
07/22/2014  22:07:00     -221.907     -109.521       10.359      128.335       92.860       64.118    16469.937     8623.063     4111.067        4.527        1.460      247.462       65.907        0.071      345.785       23.561      863.960
07/22/2014  22:08:00     -204.385     -148.253        3.282      163.252      122.389       87.844    26651.278    14979.041     7716.510        5.655        2.467      252.492      101.397        0.161      345.775       23.544      863.971
07/22/2014  22:09:00     -256.916     -211.206      -10.692      200.459      139.331       88.692    40183.882    19413.192     7866.340        8.908        3.373      332.586      103.137        0.096      345.769       23.535      863.947
07/22/2014  22:10:00     -254.415     -218.814       -8.095      187.228      144.507       94.059    35054.408    20882.191     8847.183        8.871        3.239      335.569       91.189        0.074      345.747       23.495      863.955
07/22/2014  22:11:00     -382.523     -212.195       -6.536      161.038      117.257       73.906    25933.282    13749.293     5462.093       11.826        2.257      437.436       70.704        0.026      345.740       23.485      863.972
07/22/2014  22:12:00     -351.653     -243.228      -18.844      197.408      160.662       92.344    38970.053    25812.290     8527.377       12.823        3.665      427.574      104.564        0.060      345.744       23.491      863.957
07/22/2014  22:13:00     -184.295      -51.401       17.837      153.989      138.270       84.668    23712.506    19118.728     7168.751        4.345        2.500      191.329       86.481        0.204      345.720       23.450      863.927
07/22/2014  22:14:00     -354.479      -99.584      -10.601      174.320      109.987       71.956    30387.443    12097.219     5177.732        9.166        2.383      368.201       74.707        0.041      345.716       23.442      863.977
07/22/2014  22:15:00     -181.472      -75.150       -5.517      109.812      115.619       54.698    12058.571    13367.860     2991.864        3.351        1.421      196.417       53.793        0.075      345.700       23.417      863.998
07/22/2014  22:16:00     -218.164      -70.675       -4.135       76.979       97.266       46.920     5925.821     9460.600     2201.450        3.509        0.879      229.326       33.682        0.022      345.682       23.384      863.964
07/22/2014  22:17:00     -217.021     -142.230       12.413      158.551      109.376       73.712    25138.338    11963.004     5433.392        5.500        2.127      259.475       83.712        0.104      345.693       23.403      863.991
07/22/2014  22:18:00     -301.249     -219.909       -8.362      117.507      107.807       61.210    13807.805    11622.411     3746.691        8.417        1.459      372.976       62.809        0.028      345.701       23.417      863.986
07/22/2014  22:19:00     -272.863     -112.245       -8.037      148.537       96.365       57.625    22063.293     9286.205     3320.684        6.089        1.734      295.048       58.310        0.039      345.669       23.361      863.972
07/22/2014  22:20:00     -241.432     -128.266       -2.798      188.726      121.747       73.283    35617.404    14822.421     5370.337        6.527        2.791      273.389       81.042        0.088      345.626       23.288      863.968
07/22/2014  22:21:00     -257.141     -113.336       -6.723      232.202      129.152       79.087    53917.680    16680.359     6254.702        7.792        3.843      281.010       84.827        0.091      345.652       23.333      863.946
07/22/2014  22:22:00     -411.301     -114.978      -19.162      201.451      136.978       88.315    40582.611    18762.918     7799.616       12.494        3.357      427.069       92.418        0.047      345.624       23.283      863.952
07/22/2014  22:23:00     -390.708     -180.571      -11.471      169.785      163.197       85.774    28826.789    26633.343     7357.205       12.409        3.141      430.416       97.980        0.052      345.598       23.239      863.936
07/22/2014  22:24:00     -306.934     -171.632        4.621      226.385      137.161       82.984    51250.256    18813.178     6886.296       10.030        3.847      351.661      112.708        0.103      345.611       23.262      863.971
07/22/2014  22:25:00     -351.029     -235.933      -28.100      157.627      136.397       76.886    24846.274    18604.012     5911.496       11.451        2.468      422.949       83.552        0.039      345.591       23.228      863.999
07/22/2014  22:26:00     -343.733     -268.277      -11.174      154.029      114.172       80.294    23724.950    13035.313     6447.105       11.672        2.160      436.033       80.292        0.034      345.574       23.197      863.995
07/22/2014  22:27:00     -296.105     -163.971       -5.076      175.471      120.295       76.410    30790.153    14470.970     5838.447        8.283        2.555      338.474       86.121        0.065      345.570       23.193      864.028
07/22/2014  22:28:00     -293.307     -152.244       -8.555      130.478      109.161       63.076    17024.470    11916.185     3978.644        7.109        1.646      330.465       60.829        0.034      345.561       23.176      864.042
07/22/2014  22:29:00     -344.705     -146.284      -11.648      132.029      121.363       69.131    17431.563    14728.921     4779.124        8.864        1.847      374.461       69.119        0.034      345.545       23.149      864.064
07/22/2014  22:30:00     -355.713     -183.140       -3.157      166.336      116.936       64.289    27667.750    13673.991     4133.128       10.277        2.274      400.090       71.323        0.032      345.552       23.160      864.069
07/22/2014  22:31:00     -313.456     -137.176       -3.981      153.178       93.934       59.180    23463.545     8823.513     3502.282        7.643        1.789      342.157       70.276        0.042      345.532       23.127      864.066
07/22/2014  22:32:00     -324.282     -141.319       -4.881      176.625      113.102       88.084    31196.395    12792.077     7758.850        8.844        2.587      353.737      101.702        0.083      345.528       23.120      864.030
07/22/2014  22:33:00     -316.897     -148.946       -6.322      178.373      140.905       71.919    31816.891    19854.252     5172.359        8.973        2.842      350.155       72.389        0.043      345.497       23.066      864.025
07/22/2014  22:34:00     -319.020     -174.335       -6.655      161.929       99.955       74.076    26221.086     9991.046     5487.294        8.695        2.085      363.547       81.607        0.050      345.510       23.088      864.078
07/22/2014  22:35:00     -283.678     -128.321        3.644      137.356      121.205       57.507    18866.557    14690.752     3307.052        6.690        1.843      311.351       66.748        0.046      345.504       23.078      864.058
07/22/2014  22:36:00     -318.374     -237.297      -28.044       80.455       99.111       62.728     6473.057     9822.969     3934.752        8.934        1.012      397.079       55.257        0.019      345.504       23.077      864.059
07/22/2014  22:37:00     -283.021     -129.920       -7.947      126.857       98.306       52.143    16092.715     9664.139     2718.854        6.275        1.424      311.417       46.493        0.022      345.503       23.075      864.070
07/22/2014  22:38:00     -216.416     -195.190        3.686      137.873      115.985       65.047    19008.949    13452.439     4231.057        6.081        1.835      291.436       54.524        0.035      345.476       23.029      864.077
07/22/2014  22:39:00     -229.933     -145.927       -2.940      170.095      110.406       67.091    28932.398    12189.527     4501.208        5.989        2.281      272.331       82.530        0.092      345.469       23.019      864.059
07/22/2014  22:40:00     -296.088     -116.222       -4.923      125.971       83.612       51.735    15868.711     6990.888     2676.561        6.336        1.277      318.081       63.973        0.040      345.464       23.009      864.052
07/22/2014  22:41:00     -202.205      -65.190        0.150      128.079      108.942       53.012    16404.259    11868.403     2810.282        3.810        1.554      212.454       53.984        0.065      345.425       22.944      864.043
07/22/2014  22:42:00     -211.754     -128.340       -0.620      141.068      118.987       58.175    19900.286    14157.952     3384.381        4.937        1.872      247.610       74.126        0.090      345.483       23.042      864.049
07/22/2014  22:43:00     -305.676     -157.560      -14.867      157.035      114.384       58.505    24660.006    13083.660     3422.862        7.982        2.058      343.894       56.834        0.027      345.520       23.106      864.051
07/22/2014  22:44:00     -301.557      -94.983      -23.287      180.897       86.721       60.589    32723.562     7520.477     3671.077        7.220        2.196      316.162       82.910        0.069      345.485       23.045      864.041
07/22/2014  22:45:00     -300.404     -115.374      -14.803      130.014       88.162       57.871    16903.760     7772.622     3349.044        6.589        1.401      321.798       65.692        0.042      345.492       23.058      864.046
07/22/2014  22:46:00     -210.937      -80.057       -5.587       67.660      124.021       48.976     4577.824    15381.257     2398.606        3.664        1.118      225.618       36.827        0.027      345.500       23.071      864.081
07/22/2014  22:47:00      -84.443     -131.911       -2.169      124.471       59.922       41.346    15493.025     3590.604     1709.507        2.266        1.040      156.625       42.516        0.074      345.545       23.151      864.126
07/22/2014  22:48:00      -15.573      -10.040       47.214       35.569       64.664       33.921     1265.119     4181.471     1150.650        0.458        0.330       18.529       36.300        3.838      345.404       22.911      864.179
07/22/2014  22:49:00        7.521       36.146       28.591       46.072       44.608       31.153     2122.631     1989.833      970.510        0.363        0.254       36.920       25.630        0.482      345.437       22.966      864.178
07/22/2014  22:50:00       48.084       50.982        5.727       33.586       32.944       22.018     1128.006     1085.328      484.803        0.382        0.135       70.081       15.799        0.051      345.390       22.886      864.198
07/22/2014  22:51:00      -11.160      -13.084        3.255       21.918       19.032       17.204      480.385      362.204      295.963        0.072        0.057       17.197       17.776        1.069      345.370       22.851      864.237
07/22/2014  22:52:00       19.362       15.296       17.589       34.315       36.422       17.340     1177.548     1326.541      300.663        0.186        0.140       24.675       18.576        0.567      345.438       22.967      864.255
07/22/2014  22:53:00       87.647       70.551       -4.820       26.359       30.509       30.014      694.813      930.773      900.870        0.760        0.126      112.514       24.850        0.049      345.322       22.770      864.239
07/22/2014  22:54:00       75.373       62.873       -2.370       35.790       27.917       29.070     1280.946      779.374      845.088        0.627        0.145       98.153       19.133        0.038      345.248       22.642      864.233
07/22/2014  22:55:00      111.296       64.774        6.176       51.913       37.772       31.831     2694.961     1426.738     1013.212        1.088        0.257      128.773       19.481        0.023      345.185       22.533      864.229
07/22/2014  22:56:00      127.019       69.577       11.395       59.924       40.771       32.862     3590.896     1662.267     1079.939        1.372        0.317      144.827       32.978        0.052      345.169       22.507      864.226
07/22/2014  22:57:00       27.660       41.181       53.326       38.042       31.731       21.732     1447.221     1006.884      472.281        0.411        0.146       49.608       16.529        0.111      345.153       22.480      864.240
07/22/2014  22:58:00        3.415       17.088       25.938       22.749       28.240       24.708      517.531      797.480      610.502        0.145        0.096       17.426       19.960        1.312      345.131       22.442      864.226
07/22/2014  22:59:00        1.784      -24.810       15.682        9.106       12.284       11.635       82.912      150.885      135.363        0.062        0.018       24.874        4.815        0.037      345.158       22.489      864.238
07/22/2014  23:00:00       -5.854      -18.334       -8.305       13.167       10.825        9.995      173.371      117.174       99.891        0.041        0.020       19.246        6.162        0.103      345.215       22.585      864.262
07/22/2014  23:01:00        4.095      -29.815      -16.023       17.355       21.141       14.824      301.188      446.938      219.752        0.106        0.048       30.095       12.726        0.179      345.293       22.720      864.295
07/22/2014  23:02:00       41.614      -13.298       11.453       22.553       16.490       17.861      508.638      271.934      319.007        0.157        0.055       43.687       13.545        0.096      345.307       22.743      864.291
07/22/2014  23:03:00       38.347       37.755       21.830       24.213       19.779       24.791      586.286      391.203      614.590        0.248        0.080       53.814        8.219        0.023      345.326       22.776      864.278
07/22/2014  23:04:00       55.586       47.154        2.559       24.098       25.127       19.812      580.724      631.363      392.517        0.346        0.080       72.892       13.308        0.033      345.332       22.788      864.275
07/22/2014  23:05:00       56.773       30.688       10.338       17.958       15.234       18.480      322.495      232.078      341.512        0.258        0.045       64.536       13.368        0.043      345.234       22.620      864.284
07/22/2014  23:06:00       76.237       54.481        9.421       31.748       27.835       27.203     1007.912      774.787      740.010        0.570        0.126       93.703        6.935        0.005      345.155       22.484      864.279
07/22/2014  23:07:00       59.510       34.455       10.327       25.508       27.149       26.089      650.642      737.073      680.624        0.345        0.103       68.765       11.412        0.028      345.086       22.367      864.281
07/22/2014  23:08:00       61.402       32.894       25.808       20.129       25.397       18.054      405.181      645.007      325.940        0.345        0.069       69.658       11.170        0.026      345.150       22.473      864.295
07/22/2014  23:09:00       38.372       30.652       54.689       24.404       26.453       13.175      595.552      699.787      173.585        0.344        0.073       49.112        4.417        0.008      345.175       22.516      864.314
07/22/2014  23:10:00        9.806       11.754       47.855       29.344       39.750       22.212      861.097     1580.043      493.356        0.273        0.147       15.307       21.303        1.937      345.213       22.583      864.341
07/22/2014  23:11:00        9.115        8.786       29.432       20.272       25.449       16.489      410.974      647.637      271.877        0.118        0.067       12.660       11.479        0.822      345.116       22.418      864.346
07/22/2014  23:12:00       19.960       10.741       16.668       16.789       16.400       17.365      281.858      268.953      301.552        0.082        0.043       22.667       11.766        0.269      345.086       22.365      864.343
07/22/2014  23:13:00       26.402       17.620       13.847       11.599       13.245       10.038      134.540      175.424      100.766        0.080        0.021       31.742        4.675        0.022      345.094       22.380      864.352
07/22/2014  23:14:00       24.748       15.873       15.934       18.567       20.558       15.509      344.739      422.620      240.534        0.106        0.050       29.401       13.179        0.201      345.067       22.333      864.346
07/22/2014  23:15:00       57.289       43.931       25.954       27.373       27.870       22.962      749.270      776.753      527.233        0.397        0.103       72.194       12.544        0.030      345.159       22.488      864.335
07/22/2014  23:16:00       55.614       28.946       24.113       45.763       29.658       22.685     2094.280      879.600      514.629        0.400        0.174       62.696       18.709        0.089      345.199       22.559      864.328
07/22/2014  23:17:00       16.687      -20.033       14.212       21.432       39.219       22.365      459.314     1538.095      500.193        0.169        0.125       26.073       21.758        0.696      345.149       22.472      864.345
07/22/2014  23:18:00       22.764        1.592       11.633       22.150       27.288       19.066      490.605      744.629      363.513        0.113        0.080       22.820       19.343        0.718      345.146       22.468      864.351
07/22/2014  23:19:00      -41.311      -17.227       -5.643       20.259       19.363        8.874      410.437      374.911       78.754        0.145        0.043       44.759        9.746        0.047      345.157       22.486      864.348
07/22/2014  23:20:00      -59.559      -13.666        3.492       22.779       23.807       14.729      518.881      566.774      216.954        0.252        0.065       61.106       11.092        0.033      345.192       22.545      864.344
07/22/2014  23:21:00      -30.944      -47.938        4.563       33.807       26.643       15.490     1142.928      709.858      239.925        0.268        0.105       57.058       13.757        0.058      345.105       22.399      864.347
07/22/2014  23:22:00      -42.246      -82.572        4.879       44.920       39.601       23.990     2017.785     1568.200      575.528        0.639        0.208       92.752       24.397        0.069      345.126       22.434      864.361
07/22/2014  23:23:00      -59.459     -126.443        5.055       47.664       38.834       33.064     2271.817     1508.102     1093.233        1.221        0.244      139.726       24.448        0.031      345.178       22.521      864.391
07/22/2014  23:24:00      -45.894     -138.445       -5.355       40.750       53.682       32.928     1660.522     2881.796     1084.268        1.346        0.281      145.854       24.918        0.029      345.184       22.532      864.403
07/22/2014  23:25:00      -65.684     -129.208       -6.378       27.096       76.636       18.317      734.218     5873.088      335.515        1.399        0.347      144.945       14.264        0.010      345.164       22.497      864.395
07/22/2014  23:26:00      -86.346     -105.684        0.312       59.538       77.962       33.361     3544.775     6078.101     1112.929        1.468        0.537      136.473       24.799        0.033      345.126       22.433      864.378
07/22/2014  23:27:00     -169.198      -80.189       -4.341       54.817       61.944       36.799     3004.931     3837.007     1354.146        2.163        0.410      187.238       33.104        0.031      345.087       22.367      864.362
07/22/2014  23:28:00     -121.029     -111.935       15.468       75.608       61.955       37.843     5716.644     3838.388     1432.056        1.920        0.549      164.856       39.302        0.057      345.072       22.340      864.385
07/22/2014  23:29:00     -103.122      -91.823        9.778       79.001       55.534       40.001     6241.159     3084.066     1600.098        1.504        0.546      138.078       24.926        0.033      345.081       22.358      864.419
07/22/2014  23:30:00     -140.317     -190.022        0.707       68.593       61.620       39.883     4704.944     3797.005     1590.678        3.294        0.505      236.214       38.822        0.027      345.041       22.284      864.417
07/22/2014  23:31:00     -136.723     -126.099        1.942       65.662       67.131       36.317     4311.455     4506.638     1318.957        2.237        0.507      185.995       30.048        0.026      344.979       22.180      864.392
07/22/2014  23:32:00     -271.048     -153.648      -12.290       86.220       74.733       36.365     7433.917     5585.065     1322.415        5.578        0.717      311.568       32.395        0.011      344.951       22.130      864.377
07/22/2014  23:33:00     -167.474     -144.522        5.522       86.885       74.808       54.883     7548.999     5596.212     3012.169        3.256        0.808      221.210       55.000        0.062      344.887       22.022      864.382
07/22/2014  23:34:00     -191.824     -120.088       -0.611      101.223       77.183       49.414    10246.084     5957.264     2441.711        3.493        0.932      226.313       50.317        0.049      344.906       22.053      864.370
07/22/2014  23:35:00     -137.988     -116.075        0.058       74.546       53.071       36.187     5557.089     2816.518     1309.525        2.110        0.484      180.316       34.446        0.036      344.905       22.053      864.388
07/22/2014  23:36:00     -169.825     -132.909       -3.343       76.865       54.241       32.953     5908.186     2942.094     1085.924        2.822        0.497      215.651       15.423        0.005      344.877       22.004      864.398
07/22/2014  23:37:00     -153.165      -91.631       -2.703       88.830       69.142       41.636     7890.850     4780.551     1733.568        2.313        0.720      178.482       44.340        0.062      344.810       21.890      864.395
07/22/2014  23:38:00     -155.649     -112.353        2.610       81.894       55.263       41.545     6706.649     3054.025     1725.984        2.417        0.574      191.964       45.292        0.056      344.763       21.809      864.392
07/22/2014  23:39:00     -197.384     -131.307      -11.270       76.746       70.869       42.687     5889.945     5022.436     1822.217        3.453        0.637      237.070       38.934        0.027      344.799       21.869      864.400
07/22/2014  23:40:00     -158.365     -121.329        1.135       86.914       66.335       39.312     7554.012     4400.267     1545.468        2.665        0.675      199.500       38.749        0.038      344.743       21.775      864.419
07/22/2014  23:41:00     -207.168     -149.364      -11.875       84.974       54.394       40.684     7220.586     2958.729     1655.184        3.860        0.592      255.398       40.579        0.025      344.750       21.786      864.424
07/22/2014  23:42:00     -190.202     -136.050        0.515      109.506       75.446       53.485    11991.586     5692.068     2860.661        3.761        1.027      233.851       56.294        0.058      344.708       21.716      864.441
07/22/2014  23:43:00     -200.666     -161.265        0.401      108.187       95.627       52.661    11704.415     9144.544     2773.200        4.494        1.181      257.436       64.101        0.062      344.676       21.660      864.439
07/22/2014  23:44:00     -148.603     -108.766       -2.237       87.682       84.131       50.060     7688.123     7078.040     2505.963        2.559        0.864      184.155       38.137        0.043      344.665       21.642      864.427
07/22/2014  23:45:00     -271.230     -214.205      -19.113      117.220      100.197       65.957    13740.545    10039.475     4350.384        7.397        1.407      345.615       64.821        0.035      344.701       21.704      864.398
07/22/2014  23:46:00     -215.079     -106.052       -1.490      124.229       92.272       52.490    15432.910     8514.108     2755.203        4.210        1.335      239.804       59.665        0.062      344.653       21.620      864.392
07/22/2014  23:47:00     -190.911     -130.206       -1.597      105.026      100.272       57.037    11030.506    10054.521     3253.167        3.887        1.217      231.086       41.935        0.033      344.663       21.639      864.396
07/22/2014  23:48:00     -220.262     -147.225       -8.542      110.013      104.861       50.908    12102.801    10995.901     2591.620        4.797        1.285      264.935       49.565        0.035      344.675       21.657      864.397
07/22/2014  23:49:00     -212.623     -110.321       13.340      163.867      127.815       63.227    26852.312    16336.658     3997.637        5.236        2.359      239.540       75.735        0.100      344.691       21.687      864.395
07/22/2014  23:50:00     -300.568      -88.545      -15.535       93.085       89.934       50.710     8664.764     8088.118     2571.496        5.887        0.966      313.339       42.661        0.019      344.658       21.628      864.389
07/22/2014  23:51:00     -274.089      -86.106        1.177      128.298       89.612       50.650    16460.326     8030.322     2565.397        5.479        1.353      287.296       47.813        0.028      344.651       21.617      864.391
07/22/2014  23:52:00     -203.819     -116.307       -3.990      115.423      101.322       45.074    13322.356    10266.244     2031.695        4.035        1.281      234.668       55.449        0.056      344.641       21.601      864.398
07/22/2014  23:53:00     -226.796      -84.282      -12.327       77.314       83.786       46.085     5977.525     7020.155     2123.811        3.690        0.756      241.950       42.570        0.031      344.650       21.615      864.394
07/22/2014  23:54:00     -162.598      -70.693        2.896       95.516       84.610       50.785     9123.347     7158.881     2579.152        2.515        0.943      177.301       53.927        0.093      344.583       21.503      864.370
07/22/2014  23:55:00     -171.758      -62.827       -7.440       84.099       90.739       53.705     7072.677     8233.505     2884.250        2.584        0.910      182.888       52.292        0.082      344.575       21.491      864.350
07/22/2014  23:56:00     -131.579      -66.423        3.086       56.922       58.771       34.711     3240.061     3453.989     1204.862        1.482        0.395      147.394       28.529        0.037      344.511       21.381      864.331
07/22/2014  23:57:00     -178.418     -115.617       -5.970       80.965       69.854       41.494     6555.365     4879.598     1721.777        2.919        0.658      212.603       45.308        0.045      344.558       21.459      864.326
07/22/2014  23:58:00     -119.278      -98.501        4.639       63.285       77.499       39.250     4004.965     6006.086     1540.579        1.775        0.578      154.692       33.422        0.047      344.516       21.389      864.323
07/22/2014  23:59:00     -146.810      -98.228       10.747      105.973       61.279       43.187    11230.339     3755.074     1865.119        2.408        0.843      176.641       52.833        0.089      344.510       21.377      864.361
